[[{"header":{"parameterUnit":"m.s-1","parameterCategory":1,"la1":30.6,"la2":29.2853,"lo1":-89.7004,"lo2":-87.6739,"dy":0.0162,"dx":0.0183,"nx":112,"ny":82,"refTime":"2023-08-07T06:00:00:Z","depth":0,"parameterNumber":2,"parameterNumberName":"U-component_of_WINDS"},"data":[0.0,0.0,0.0,0.0,0.0,0.0,0.0,0.0,0.0,0.0,0.0,0.0,0.0,0.0,0.0,0.0,0.0,0.0,0.0,0.0,0.0,0.0,0.0,0.0,0.0,0.0,0.0,0.0,0.0,0.0,0.0,0.0,0.0,0.0,0.0,0.0,0.0,0.0,0.0,0.0,0.0,0.0,0.0,0.0,0.0,0.0,0.0,0.0,0.0,0.0,0.0,0.0,0.0,0.0,0.0,0.0,0.0,0.0,0.0,0.0,0.0,0.0,0.0,0.0,0.0,0.0,0.0,0.0,0.0,0.0,0.0,0.0,0.0,0.0,0.0,0.0,0.0,0.0,0.0,0.0,0.0,0.0,0.0,0.0,0.0,0.0,0.0,0.0,0.0,0.0,-4.7309,-4.7309,-4.7309,-4.7309,-4.7309,-4.7309,-4.7309,-4.7309,0.0,0.0,0.0,0.0,0.0,0.0,0.0,0.0,0.0,0.0,0.0,0.0,0.0,0.0,0.0,0.0,0.0,0.0,0.0,0.0,0.0,0.0,0.0,0.0,0.0,0.0,0.0,0.0,0.0,0.0,0.0,0.0,0.0,0.0,0.0,0.0,0.0,0.0,0.0,0.0,0.0,0.0,0.0,0.0,0.0,0.0,0.0,0.0,0.0,0.0,0.0,0.0,0.0,0.0,0.0,0.0,0.0,0.0,0.0,0.0,0.0,0.0,0.0,0.0,0.0,0.0,0.0,0.0,0.0,0.0,0.0,0.0,0.0,0.0,0.0,0.0,0.0,0.0,0.0,0.0,0.0,0.0,0.0,0.0,0.0,0.0,0.0,0.0,0.0,0.0,0.0,0.0,0.0,0.0,0.0,0.0,0.0,0.0,0.0,0.0,0.0,0.0,0.0,0.0,-4.7309,-4.7309,-4.7309,-4.7309,-4.7309,-4.7309,-4.7309,-4.7309,0.0,0.0,0.0,0.0,0.0,0.0,0.0,0.0,0.0,0.0,0.0,0.0,0.0,0.0,0.0,0.0,0.0,0.0,0.0,0.0,0.0,0.0,0.0,0.0,0.0,0.0,0.0,0.0,0.0,0.0,0.0,0.0,0.0,0.0,0.0,0.0,0.0,0.0,0.0,0.0,0.0,0.0,0.0,0.0,0.0,0.0,0.0,0.0,0.0,0.0,0.0,0.0,0.0,0.0,0.0,0.0,0.0,0.0,0.0,0.0,0.0,0.0,0.0,0.0,0.0,0.0,0.0,0.0,0.0,0.0,0.0,0.0,0.0,0.0,0.0,0.0,0.0,0.0,0.0,0.0,0.0,0.0,0.0,0.0,0.0,0.0,0.0,0.0,0.0,0.0,0.0,0.0,0.0,0.0,0.0,0.0,0.0,0.0,0.0,0.0,0.0,0.0,0.0,-4.7309,-4.7309,-4.7309,-4.7309,-4.7309,-4.7309,-4.7309,-4.7309,-4.7309,-4.7309,0.0,0.0,0.0,0.0,0.0,0.0,0.0,0.0,0.0,0.0,0.0,0.0,0.0,0.0,0.0,0.0,0.0,0.0,0.0,0.0,0.0,0.0,0.0,0.0,0.0,0.0,0.0,0.0,0.0,0.0,0.0,0.0,0.0,0.0,0.0,0.0,0.0,0.0,0.0,0.0,0.0,0.0,0.0,0.0,0.0,0.0,0.0,0.0,0.0,0.0,0.0,0.0,0.0,0.0,0.0,0.0,0.0,0.0,0.0,0.0,0.0,0.0,0.0,0.0,0.0,0.0,0.0,0.0,0.0,0.0,0.0,0.0,0.0,0.0,0.0,0.0,0.0,0.0,0.0,0.0,0.0,0.0,0.0,0.0,0.0,0.0,0.0,0.0,0.0,0.0,0.0,0.0,0.0,0.0,0.0,0.0,0.0,0.0,0.0,0.0,0.0,0.0,-4.7309,-4.7309,-4.7309,-4.7309,-4.7309,-4.7309,-4.7309,-4.7309,-4.7309,-4.7309,0.0,0.0,0.0,0.0,0.0,0.0,0.0,0.0,0.0,0.0,0.0,0.0,0.0,0.0,0.0,0.0,0.0,0.0,0.0,0.0,0.0,0.0,0.0,0.0,0.0,0.0,0.0,0.0,0.0,0.0,0.0,0.0,0.0,0.0,0.0,0.0,0.0,0.0,0.0,0.0,0.0,0.0,0.0,0.0,0.0,0.0,0.0,0.0,0.0,0.0,0.0,0.0,0.0,0.0,0.0,0.0,0.0,0.0,0.0,0.0,0.0,0.0,0.0,0.0,0.0,0.0,0.0,0.0,0.0,0.0,0.0,0.0,0.0,0.0,0.0,0.0,0.0,0.0,0.0,0.0,0.0,0.0,0.0,0.0,0.0,0.0,0.0,0.0,0.0,0.0,0.0,0.0,0.0,0.0,0.0,0.0,0.0,0.0,0.0,0.0,0.0,0.0,-4.7309,-4.7309,-4.7309,-4.7309,-4.7309,-4.7309,-4.7309,-4.7309,-4.7309,-4.7309,0.0,0.0,0.0,0.0,0.0,0.0,0.0,0.0,0.0,0.0,0.0,0.0,0.0,0.0,0.0,0.0,0.0,0.0,0.0,0.0,0.0,0.0,0.0,0.0,0.0,0.0,0.0,0.0,0.0,0.0,0.0,0.0,0.0,0.0,0.0,0.0,0.0,0.0,0.0,0.0,0.0,0.0,0.0,0.0,0.0,0.0,0.0,0.0,0.0,0.0,0.0,0.0,0.0,0.0,0.0,0.0,0.0,0.0,0.0,0.0,0.0,0.0,0.0,0.0,0.0,0.0,0.0,0.0,0.0,0.0,0.0,0.0,0.0,0.0,0.0,0.0,0.0,0.0,0.0,0.0,0.0,0.0,0.0,0.0,0.0,0.0,0.0,0.0,0.0,0.0,0.0,0.0,0.0,0.0,0.0,0.0,0.0,0.0,0.0,0.0,0.0,0.0,-4.7309,-4.7309,-4.7309,-4.7309,-4.7309,-4.7309,-4.7309,-4.7309,-4.7309,0.0,0.0,0.0,0.0,0.0,0.0,0.0,0.0,0.0,0.0,0.0,0.0,0.0,0.0,0.0,0.0,0.0,0.0,0.0,0.0,0.0,0.0,0.0,0.0,0.0,0.0,0.0,0.0,0.0,0.0,0.0,0.0,0.0,0.0,0.0,0.0,0.0,0.0,0.0,0.0,0.0,0.0,0.0,0.0,0.0,0.0,0.0,0.0,0.0,0.0,0.0,0.0,0.0,0.0,0.0,0.0,0.0,0.0,0.0,0.0,0.0,0.0,0.0,0.0,0.0,0.0,0.0,0.0,0.0,0.0,0.0,0.0,0.0,0.0,0.0,0.0,0.0,0.0,0.0,0.0,0.0,0.0,0.0,0.0,0.0,0.0,0.0,0.0,0.0,0.0,0.0,0.0,0.0,0.0,0.0,0.0,0.0,0.0,0.0,0.0,0.0,0.0,-4.7309,-4.7309,-4.7309,-4.7309,-4.7309,-4.7309,-4.7309,-4.7309,-4.7309,-4.7309,0.0,0.0,0.0,0.0,0.0,0.0,0.0,0.0,0.0,0.0,0.0,0.0,0.0,0.0,0.0,0.0,0.0,0.0,0.0,0.0,0.0,0.0,0.0,0.0,0.0,0.0,0.0,0.0,0.0,0.0,0.0,0.0,0.0,0.0,0.0,0.0,0.0,0.0,0.0,0.0,0.0,0.0,0.0,0.0,0.0,0.0,0.0,0.0,0.0,0.0,0.0,0.0,0.0,0.0,0.0,0.0,0.0,0.0,0.0,0.0,0.0,0.0,0.0,0.0,0.0,0.0,0.0,0.0,0.0,0.0,0.0,0.0,0.0,0.0,0.0,0.0,0.0,0.0,0.0,0.0,0.0,0.0,0.0,0.0,0.0,0.0,0.0,0.0,0.0,0.0,0.0,0.0,0.0,0.0,0.0,0.0,0.0,0.0,0.0,0.0,0.0,0.0,-4.7309,-4.7309,-4.7309,-4.7309,-4.7309,-4.7309,-4.7309,-4.7309,-4.7309,0.0,0.0,0.0,0.0,0.0,0.0,0.0,0.0,0.0,0.0,0.0,0.0,0.0,0.0,0.0,0.0,0.0,0.0,0.0,0.0,0.0,0.0,0.0,0.0,0.0,0.0,0.0,0.0,0.0,0.0,0.0,0.0,0.0,0.0,0.0,0.0,0.0,0.0,0.0,0.0,0.0,0.0,0.0,0.0,0.0,0.0,0.0,0.0,0.0,0.0,0.0,0.0,0.0,0.0,0.0,0.0,0.0,0.0,0.0,0.0,0.0,0.0,0.0,0.0,0.0,0.0,0.0,0.0,0.0,0.0,0.0,0.0,0.0,0.0,0.0,0.0,0.0,0.0,0.0,0.0,0.0,0.0,0.0,0.0,0.0,0.0,0.0,0.0,0.0,0.0,0.0,0.0,0.0,0.0,0.0,0.0,0.0,0.0,0.0,0.0,0.0,0.0,0.0,-4.7938,-4.7997,-4.7997,-4.7997,-4.7997,-4.7997,-4.7997,-4.7578,-4.7309,-4.7309,0.0,0.0,0.0,0.0,0.0,0.0,0.0,0.0,0.0,0.0,0.0,0.0,0.0,0.0,0.0,0.0,0.0,0.0,0.0,0.0,0.0,0.0,0.0,0.0,0.0,0.0,0.0,0.0,0.0,0.0,0.0,0.0,0.0,0.0,0.0,0.0,0.0,0.0,0.0,0.0,0.0,0.0,0.0,0.0,0.0,0.0,0.0,0.0,0.0,0.0,0.0,0.0,0.0,0.0,0.0,0.0,0.0,0.0,0.0,0.0,0.0,0.0,0.0,0.0,0.0,0.0,0.0,0.0,0.0,0.0,0.0,0.0,0.0,0.0,0.0,0.0,0.0,0.0,0.0,0.0,0.0,0.0,0.0,0.0,0.0,0.0,0.0,0.0,0.0,0.0,0.0,0.0,0.0,0.0,0.0,0.0,0.0,0.0,0.0,0.0,0.0,0.0,-4.8626,-4.8686,-4.8686,-4.8686,-4.8686,-4.8686,-4.8686,-4.8327,-4.7967,-4.7728,0.0,0.0,0.0,0.0,0.0,0.0,0.0,0.0,0.0,0.0,0.0,0.0,0.0,0.0,0.0,0.0,0.0,0.0,0.0,0.0,0.0,0.0,0.0,0.0,0.0,0.0,0.0,0.0,0.0,0.0,0.0,0.0,0.0,0.0,0.0,0.0,0.0,0.0,0.0,0.0,0.0,0.0,0.0,0.0,0.0,0.0,0.0,0.0,0.0,0.0,0.0,0.0,0.0,0.0,0.0,0.0,0.0,0.0,0.0,0.0,0.0,0.0,0.0,0.0,0.0,0.0,0.0,0.0,0.0,0.0,0.0,0.0,0.0,0.0,0.0,0.0,0.0,0.0,0.0,0.0,0.0,0.0,0.0,0.0,0.0,0.0,0.0,0.0,0.0,0.0,0.0,0.0,0.0,0.0,0.0,0.0,0.0,0.0,0.0,0.0,0.0,0.0,-4.9389,-4.9389,-4.9389,-4.9389,-4.9389,-4.9389,-4.9389,-4.9329,-4.906,-4.8416,0.0,0.0,0.0,0.0,0.0,0.0,0.0,0.0,0.0,0.0,0.0,0.0,0.0,0.0,0.0,0.0,0.0,0.0,0.0,0.0,0.0,0.0,0.0,0.0,0.0,0.0,0.0,0.0,0.0,0.0,0.0,0.0,0.0,0.0,0.0,0.0,0.0,0.0,0.0,0.0,0.0,0.0,0.0,0.0,0.0,0.0,0.0,0.0,0.0,0.0,0.0,0.0,0.0,0.0,0.0,0.0,0.0,0.0,0.0,0.0,-4.374,-4.3074,0.0,0.0,0.0,0.0,0.0,0.0,0.0,0.0,0.0,0.0,0.0,0.0,0.0,0.0,0.0,0.0,0.0,0.0,0.0,0.0,0.0,0.0,0.0,0.0,0.0,0.0,0.0,0.0,0.0,0.0,0.0,0.0,0.0,0.0,0.0,0.0,0.0,0.0,0.0,0.0,-4.9972,-4.9986,-4.9986,-4.9986,-4.9986,-4.9986,-4.9986,-4.9553,-4.9239,-4.912,-4.8566,0.0,0.0,0.0,0.0,0.0,0.0,0.0,0.0,0.0,0.0,0.0,0.0,0.0,0.0,0.0,0.0,0.0,0.0,0.0,0.0,0.0,0.0,0.0,0.0,0.0,0.0,0.0,0.0,0.0,0.0,0.0,0.0,0.0,0.0,0.0,0.0,0.0,0.0,0.0,0.0,0.0,0.0,0.0,0.0,0.0,0.0,0.0,0.0,0.0,0.0,0.0,0.0,0.0,0.0,0.0,0.0,0.0,0.0,0.0,-4.1773,-4.164,0.0,0.0,0.0,0.0,0.0,0.0,0.0,0.0,0.0,0.0,0.0,0.0,0.0,0.0,0.0,0.0,0.0,0.0,0.0,0.0,0.0,0.0,0.0,0.0,0.0,0.0,0.0,0.0,0.0,0.0,0.0,0.0,0.0,0.0,0.0,0.0,0.0,0.0,0.0,0.0,-5.0614,-5.0674,-5.0674,-5.0674,-5.0674,-5.0674,-5.0674,-5.0391,-5.0062,-4.9763,-4.9404,0.0,0.0,0.0,0.0,0.0,0.0,0.0,0.0,0.0,0.0,0.0,0.0,0.0,0.0,0.0,0.0,0.0,0.0,0.0,0.0,0.0,0.0,0.0,0.0,0.0,0.0,0.0,0.0,0.0,0.0,0.0,0.0,0.0,0.0,0.0,0.0,0.0,0.0,0.0,0.0,0.0,0.0,0.0,0.0,0.0,0.0,0.0,0.0,0.0,0.0,0.0,0.0,0.0,-3.9973,-3.9973,-3.9998,-4.045,-4.0651,-4.0626,-4.0174,-4.0568,-4.1557,-4.1557,0.0,0.0,0.0,0.0,0.0,0.0,0.0,0.0,0.0,0.0,0.0,0.0,0.0,0.0,0.0,0.0,0.0,0.0,0.0,0.0,0.0,0.0,-4.9434,-4.9434,-4.9569,-4.9613,-4.9613,0.0,0.0,0.0,0.0,0.0,0.0,0.0,0.0,0.0,0.0,0.0,-5.1229,-5.1229,-5.1229,-5.1229,-5.1229,-5.1229,-5.1229,-5.1229,-5.0943,-5.0405,-5.0255,-4.9717,0.0,0.0,0.0,0.0,0.0,0.0,0.0,0.0,0.0,0.0,0.0,0.0,0.0,0.0,0.0,0.0,0.0,0.0,0.0,0.0,0.0,0.0,0.0,0.0,0.0,0.0,0.0,0.0,0.0,0.0,0.0,0.0,-3.9982,-4.0058,0.0,0.0,0.0,0.0,0.0,0.0,0.0,0.0,0.0,0.0,0.0,0.0,0.0,-3.9923,-4.04,-4.04,-4.0651,-4.1075,-4.1075,-4.1075,-4.1075,-4.115,-4.1175,-4.1175,-4.11,0.0,-4.1317,-4.1317,0.0,0.0,0.0,0.0,0.0,0.0,0.0,0.0,0.0,0.0,0.0,0.0,0.0,0.0,0.0,0.0,0.0,0.0,0.0,0.0,0.0,0.0,-5.0076,-5.0076,-5.0541,-5.096,-5.096,-5.0062,-4.9434,-5.0002,-5.0076,-5.0255,0.0,0.0,0.0,0.0,0.0,0.0,-5.1229,-5.1229,-5.1229,-5.1229,-5.1229,-5.1229,-5.1229,-5.1229,-5.1169,-5.1079,-5.0495,-5.0106,-4.9956,-4.9434,0.0,0.0,0.0,0.0,0.0,0.0,0.0,0.0,0.0,0.0,0.0,0.0,0.0,0.0,0.0,0.0,0.0,0.0,0.0,0.0,0.0,0.0,0.0,0.0,0.0,0.0,0.0,0.0,0.0,-3.988,-3.9697,-3.9697,-3.9697,-3.9697,0.0,0.0,0.0,0.0,0.0,0.0,0.0,0.0,0.0,-4.0149,-4.045,-4.0727,-4.0924,-4.0924,-4.105,-4.1275,-4.1275,-4.1275,-4.13,-4.1656,-4.1806,-4.1806,-4.2133,-4.2258,-4.2208,-4.1551,-4.1625,-4.2131,0.0,0.0,0.0,0.0,-4.552,-4.7702,-4.7215,-4.7988,-4.9186,-4.8834,0.0,0.0,0.0,0.0,0.0,0.0,0.0,-5.0361,-5.0361,-5.0571,-5.0734,-5.0734,-5.102,-5.1229,-5.1229,-5.078,-5.0451,-5.0674,-5.0734,-5.087,-5.1169,-5.1229,0.0,0.0,0.0,-5.1229,-5.1229,-5.1528,-5.1768,-5.1768,-5.2097,-5.2187,-5.1798,-5.1768,-5.1618,-5.1229,-5.0913,-5.0584,-5.0196,-4.9972,-4.9494,0.0,0.0,0.0,0.0,0.0,0.0,0.0,0.0,0.0,0.0,0.0,0.0,0.0,0.0,0.0,0.0,0.0,0.0,0.0,0.0,0.0,0.0,0.0,0.0,0.0,0.0,0.0,0.0,-3.9697,-3.9697,-3.9697,-3.9697,-3.9697,0.0,0.0,0.0,0.0,0.0,0.0,-4.0099,-4.0501,-4.0674,-4.0674,-4.1075,-4.1351,-4.1555,-4.1555,-4.163,-4.1756,-4.1852,-4.1902,-4.1982,-4.2534,-4.2785,-4.2811,-4.3212,-4.3388,-4.3313,-4.2208,-4.1702,-4.1702,-4.1702,-4.2299,-4.3073,-4.246,-4.4436,-4.7228,-4.6134,-4.725,-4.9075,-4.8195,-4.8268,-4.8738,-4.9112,0.0,0.0,0.0,0.0,-5.1229,-5.1229,-5.1349,-5.1468,-5.1468,-5.1588,-5.1708,-5.1708,-5.1708,-5.1618,-5.1289,-5.1229,-5.1229,-5.1229,-5.1349,0.0,-5.1468,-5.1618,-5.1708,-5.1708,-5.2157,-5.2456,-5.2456,-5.2875,-5.2995,-5.2486,-5.2456,-5.2187,-5.1498,-5.1468,-5.1169,-5.0465,-5.0435,-5.0182,-4.9523,0.0,0.0,0.0,0.0,0.0,0.0,0.0,0.0,0.0,0.0,0.0,0.0,0.0,0.0,0.0,0.0,0.0,0.0,0.0,0.0,0.0,0.0,0.0,0.0,0.0,0.0,0.0,0.0,0.0,-3.9697,-3.9697,0.0,0.0,0.0,0.0,-4.0425,-4.0475,-4.0701,-4.1175,-4.1225,-4.125,-4.125,-4.1275,-4.1605,-4.2162,-4.2162,-4.2439,-4.2911,-4.3438,-4.3664,-4.3689,-4.4242,-4.4493,-4.4493,-4.4518,-4.4543,-4.4468,-4.3363,-4.2886,-4.2886,-4.2886,-4.2942,-4.3164,-4.4403,-4.4969,-4.5369,-4.6548,-4.7982,-4.8936,-4.7577,-4.7169,-4.7453,-4.8787,-4.9259,0.0,0.0,-5.0239,-5.1229,-5.1229,-5.1678,-5.2157,-5.2157,-5.2636,-5.3084,-5.3084,-5.3084,-5.2725,-5.1468,-5.1229,-5.1229,-5.1229,0.0,-5.2157,-5.2157,-5.2665,-5.3084,-5.3084,-5.3114,-5.3144,-5.3144,-5.3144,-5.3174,-5.3144,-5.3144,-5.2845,-5.2187,-5.2157,-5.1858,-5.1199,-5.1169,-5.0823,-5.0166,-5.0106,0.0,0.0,0.0,0.0,0.0,0.0,0.0,0.0,0.0,0.0,0.0,0.0,0.0,0.0,0.0,0.0,0.0,0.0,0.0,0.0,0.0,0.0,0.0,0.0,0.0,0.0,0.0,0.0,-3.9697,-3.9697,0.0,-4.0199,-4.0224,-4.045,-4.0949,-4.1,-4.1075,-4.1275,-4.1681,-4.2032,-4.2384,-4.2735,-4.3187,-4.374,-4.374,-4.384,-4.4041,-4.4242,-4.4317,-4.4342,-4.4543,-4.4618,-4.4618,-4.4618,-4.4618,-4.4593,-4.4192,-4.384,-4.3514,-4.3514,-4.3288,-4.3073,-4.3547,-4.4264,-4.5209,-4.6578,-4.7402,-4.7909,-4.8339,-4.7808,-4.7587,-5.032,-5.1128,-5.1216,-5.1679,-5.2118,-5.2486,-5.2486,-5.2665,-5.2815,-5.2815,-5.3025,-5.3174,-5.3174,-5.3174,-5.3054,-5.2576,-5.2486,-5.2486,-5.2486,-5.2665,-5.2815,-5.2815,-5.3025,-5.3174,-5.3174,-5.3563,-5.3832,-5.3832,-5.4221,-5.4311,-5.3892,-5.3832,-5.3563,-5.2875,-5.2426,-5.2097,-5.1858,-5.1439,-5.1109,-5.0823,-5.0405,-4.9956,0.0,0.0,0.0,0.0,0.0,0.0,0.0,0.0,0.0,0.0,0.0,0.0,0.0,0.0,0.0,0.0,0.0,0.0,0.0,0.0,0.0,0.0,0.0,0.0,0.0,0.0,-3.9772,-3.9948,-3.9973,-4.0199,-4.0752,-4.0802,-4.1028,-4.158,-4.1605,-4.1781,-4.2158,-4.2509,-4.2961,-4.3514,-4.389,-4.4242,-4.4618,-4.4618,-4.4719,-4.492,-4.5095,-4.5296,-4.5472,-4.5648,-4.5723,-4.5723,-4.5723,-4.5723,-4.5723,-4.5723,-4.5422,-4.4869,-4.4292,-4.3865,-4.357,-4.4133,-4.486,-4.59,-4.7806,-4.7806,-4.7416,-4.9795,-4.8963,-4.7733,-5.1386,-5.2226,-5.2043,-5.2957,-5.3174,-5.3174,-5.3174,-5.3354,-5.3533,-5.3533,-5.3683,-5.3922,-5.4132,-5.4192,-5.4251,-5.4461,-5.3773,-5.3174,-5.3174,-5.3384,-5.3533,-5.3533,-5.3713,-5.3862,-5.3862,-5.4251,-5.4551,-5.4551,-5.494,-5.5029,-5.4581,-5.4551,-5.4251,-5.3563,-5.3114,-5.2785,-5.2546,-5.1887,-5.1558,-5.1558,-5.0644,-5.0196,-5.0196,0.0,0.0,0.0,0.0,0.0,0.0,0.0,0.0,0.0,0.0,0.0,0.0,0.0,0.0,0.0,0.0,0.0,0.0,0.0,0.0,0.0,0.0,0.0,-3.9697,-3.9697,-3.9923,-4.045,-4.0526,-4.0752,-4.125,-4.13,-4.1605,-4.2213,-4.2263,-4.274,-4.3765,-4.3815,-4.4091,-4.4669,-4.4669,-4.4694,-4.4719,-4.4719,-4.502,-4.5573,-4.61,-4.6652,-4.7118,-4.7682,-4.7908,-4.7908,-4.7908,-4.7908,-4.7908,-4.7908,-4.7606,-4.7004,-4.5347,-4.4694,-4.4843,-4.6421,-4.7065,-4.7481,-5.0129,-4.9289,-4.7702,-5.185,-5.0417,-4.7838,-5.198,-5.2308,-5.1527,-5.2891,-5.3294,-5.3294,-5.3294,-5.3803,-5.4311,-5.4311,-5.479,-5.5418,-5.6128,-5.6248,-5.6376,-5.6974,-5.5029,-5.3294,-5.3294,-5.3862,-5.4311,-5.4311,-5.485,0.0,-5.5239,-5.5239,-5.5239,-5.5239,-5.5239,-5.5209,-5.5209,-5.5209,-5.491,-5.4281,-5.4221,-5.3922,-5.3234,-5.2576,-5.2217,-5.2187,-5.0883,-5.0226,-5.0196,0.0,0.0,0.0,0.0,0.0,0.0,0.0,0.0,0.0,0.0,0.0,0.0,0.0,0.0,0.0,0.0,0.0,0.0,0.0,0.0,0.0,0.0,-4.0149,-3.9747,-4.0049,-4.035,-4.0501,-4.0824,-4.1329,-4.1882,-4.1932,-4.2308,-4.3263,-4.3338,-4.3664,-4.4367,-4.4392,-4.4844,-4.5824,-4.5849,-4.6225,-4.7004,-4.7004,-4.7079,-4.723,-4.7405,-4.7556,-4.7707,-4.7832,-4.7908,-4.7908,-4.7908,-4.7908,-4.7908,-4.7908,-4.7832,-4.773,-4.7999,-4.7195,-4.618,-4.8938,-5.0239,-5.0699,-5.0972,-5.0623,-5.0285,-5.2477,-5.172,-5.045,-5.3118,-5.3973,-5.4247,-5.5158,-5.5658,-5.6017,-5.6017,-5.6166,-5.6286,-5.6286,-5.6436,-5.6615,-5.6795,-5.6825,-5.6885,-5.7064,-5.6526,-5.6017,-5.6017,-5.6166,-5.6286,-5.6286,-5.6466,-5.6585,-5.6585,-5.6585,-5.6585,-5.6585,-5.6166,-5.5897,-5.5897,-5.5478,-5.5119,-5.494,-5.4491,-5.4132,-5.3922,-5.3264,-5.2695,-5.2217,-5.1379,-5.0674,0.0,0.0,0.0,0.0,0.0,0.0,0.0,0.0,0.0,0.0,0.0,0.0,0.0,0.0,0.0,0.0,0.0,0.0,0.0,0.0,0.0,0.0,-4.03,-4.0475,-4.04,-4.0651,-4.0953,-4.1178,-4.148,-4.1982,-4.276,-4.2836,-4.3212,-4.4091,-4.4141,-4.4493,-4.5296,-4.5321,-4.5849,-4.6954,-4.6979,-4.728,-4.7908,-4.7908,-4.8033,-4.8259,-4.8259,-4.8385,-4.8611,-4.8611,-4.8611,-4.8611,-4.8611,-4.8611,-4.8611,-4.8611,-4.8611,-4.8661,0.0,0.0,0.0,0.0,-5.2753,-5.4163,-5.373,-5.3221,-5.2961,-5.4387,-5.3869,-5.3019,-5.4862,-5.5688,-5.6077,-5.6466,-5.6825,-5.7094,-5.7094,-5.7094,-5.7094,-5.7094,-5.7094,-5.7184,-5.7453,-5.7513,-5.7603,-5.7872,-5.7932,0.0,-5.7932,-5.7483,-5.7094,-5.7094,-5.7094,-5.7094,-5.7094,-5.7094,-5.7094,-5.7094,-5.6765,-5.6555,-5.6555,-5.5957,0.0,0.0,0.0,-5.4491,-5.4221,-5.3832,0.0,0.0,0.0,-5.1319,-5.0614,-5.0315,0.0,0.0,-4.8147,-4.7728,0.0,0.0,0.0,0.0,0.0,0.0,0.0,0.0,0.0,0.0,0.0,0.0,0.0,0.0,0.0,0.0,-4.0651,-4.0877,-4.13,-4.1426,-4.1681,-4.2162,-4.2313,-4.2766,-4.3714,-4.3865,-4.4116,-4.4669,-4.4769,-4.5271,-4.6351,0.0,0.0,0.0,0.0,-4.8033,-4.8083,-4.8109,-4.836,-4.8862,-4.8937,-4.9213,-4.969,-4.9766,-4.9791,-4.9791,-4.9715,-4.969,-4.969,-4.9615,-4.959,-4.949,-4.8674,-4.8556,-4.9183,-5.1894,-5.4728,-5.7184,-5.7124,0.0,0.0,-5.6697,-5.619,-5.5409,-5.6697,-5.7154,-5.7214,-5.7214,-5.7274,-5.7334,-5.7334,-5.7334,-5.7334,-5.7334,-5.7334,-5.7483,-5.8112,-5.8231,-5.8411,-5.8979,-5.9099,-5.9099,-5.9099,-5.8112,-5.7334,-5.7334,-5.7334,-5.7334,-5.7334,-5.7334,-5.7334,-5.7334,-5.7244,0.0,-5.7214,-5.6645,-5.6308,-5.6218,-5.5568,-5.494,-5.4341,-5.4251,-5.3653,-5.2456,-5.2336,-5.1977,-5.1319,-5.0704,-5.0375,-5.0255,-4.9015,-4.8386,0.0,0.0,0.0,0.0,0.0,0.0,0.0,0.0,0.0,0.0,0.0,0.0,0.0,0.0,0.0,-4.105,-4.1555,-4.1936,-4.2037,-4.2384,-4.2534,-4.2263,-4.2936,-4.3564,-4.379,-4.4192,-4.4694,-4.5271,-4.5723,-4.6276,-4.6928,-4.738,-4.7908,-4.8586,-4.8611,-4.8812,-4.9264,-4.9264,-4.9314,-4.9439,0.0,0.0,-5.0268,-5.0745,-5.0946,-5.0921,-5.0469,-5.0268,-5.0218,-4.9766,-4.959,-4.9694,-5.0783,-5.2749,-5.4993,-5.5083,-5.6275,-5.7842,-5.7304,-5.6937,-5.6697,-5.6989,-5.6937,-5.675,-5.7042,-5.7483,0.0,-5.7932,-5.8321,-5.871,-5.871,-5.871,-5.871,-5.871,-5.871,-5.874,-5.889,-5.8919,-5.8949,-5.9069,-5.9099,-5.9099,-5.9099,-5.889,-5.871,-5.871,-5.871,-5.871,-5.871,-5.871,-5.871,-5.871,-5.8231,-5.7932,-5.7932,-5.7304,-5.6705,-5.6248,-5.5568,-5.5119,-5.4999,-5.4491,-5.4102,-5.3832,-5.3264,-5.2665,-5.2007,-5.1887,-5.1558,-5.099,-4.9703,-4.912,0.0,0.0,0.0,0.0,0.0,0.0,0.0,0.0,0.0,0.0,0.0,-4.0199,0.0,0.0,-4.1103,-4.1656,-4.1982,-4.2313,-4.259,-4.3037,-4.3288,-4.3011,-4.3463,-4.4016,-4.4593,-4.4895,-4.5397,-4.625,-4.6577,-4.7079,-4.7908,-4.8209,-4.8611,-4.9163,-4.9188,-4.9314,-4.959,-4.9866,-5.0017,-5.0017,-5.0569,-5.0845,-5.087,-5.1147,-5.1272,-5.1272,-5.0971,-5.0845,-5.082,-5.0544,-5.0444,-5.068,-5.3173,-5.4671,-5.559,-5.6022,-5.7196,-5.856,-5.8231,-5.8112,-5.8112,-5.8112,-5.8112,-5.8112,-5.8112,-5.8351,-5.862,-5.862,-5.886,-5.9099,-5.9099,-5.9099,-5.9099,-5.9099,-5.9099,-5.9099,-5.9099,-5.9099,-5.9099,-5.9099,-5.9099,-5.9099,-5.9099,-5.9099,-5.9099,-5.9099,-5.9099,-5.9099,-5.9099,-5.9099,-5.9099,-5.9099,-5.88,-5.862,-5.862,-5.7992,-5.7334,-5.6675,-5.6047,-5.5688,-5.5688,-5.5059,-5.4551,-5.4221,-5.3862,-5.3354,-5.2695,-5.2695,-5.2516,-5.2187,-5.1528,-5.069,0.0,0.0,0.0,0.0,0.0,0.0,0.0,0.0,-3.9722,-3.9823,-4.0199,-4.0576,-4.0802,-4.1204,-4.1681,-4.2288,-4.2363,-4.2564,-4.3062,-4.3514,-4.389,-4.4091,-4.4141,-4.4493,-4.5397,-4.5673,-4.6175,-4.6993,-4.733,-4.7832,-4.8736,-4.8862,-4.9138,-4.959,-4.969,-4.9766,-4.9766,-5.0318,-5.0569,-5.0594,-5.1172,-5.1448,-5.1448,-5.1548,-5.1599,-5.1599,-5.1498,-5.1373,-5.1339,-5.1646,-5.1778,-5.2148,-5.5379,-5.6085,-5.537,-5.6852,-5.8088,-5.9099,-5.9099,-5.9099,-5.9099,-5.9099,-5.9099,-5.9099,-5.9099,-5.9099,-5.9099,-5.9099,-5.9099,-5.9099,-5.9099,-5.9099,-5.9099,-5.9099,-5.9099,-5.9099,-5.9099,-5.9099,-5.9099,-5.9099,-5.9099,-5.9099,-5.9099,-5.9099,-5.9099,-5.9099,-5.9099,-5.9099,-5.9099,-5.9099,-5.9099,-5.9099,-5.9099,-5.9099,-5.9099,-5.8501,-5.7872,-5.7334,-5.6705,-5.6286,-5.6218,-5.5658,-5.5059,-5.4431,-5.4401,-5.4072,-5.3384,-5.3384,-5.3324,-5.3174,-5.3174,-5.2336,-3.9697,-3.9697,-3.9697,-3.9697,-3.9697,-3.9697,0.0,0.0,-3.9848,-4.0325,-4.0475,-4.0827,-4.1835,-4.2087,-4.2313,-4.2785,-4.2886,-4.3087,-4.3639,-4.3765,-4.4166,-4.5171,-4.5296,-4.5347,-4.5472,-4.6376,-4.6943,-4.7068,-4.8033,-4.8636,-4.8761,-4.9238,-4.954,-4.959,-5.0067,-5.0318,-5.0318,-5.0896,-5.1197,-5.1197,-5.1749,-5.2026,-5.2026,-5.2528,-5.2754,-5.2703,-5.2226,-5.1724,-5.1405,-5.2919,-5.3512,-5.3832,-5.7126,-5.8345,-5.832,-5.9339,-5.9469,-5.9099,-5.9099,-5.9099,-5.9099,-5.9099,-5.9099,-5.9099,-5.9099,-5.9099,-5.9099,-5.9099,-5.9099,-5.9099,-5.9099,-5.9099,-5.9099,-5.9099,-5.9099,-5.9099,-5.9099,-5.9099,-5.9099,-5.9099,-5.9099,-5.9099,-5.9099,-5.9099,-5.9099,-5.9099,-5.9099,-5.9099,-5.9099,-5.9099,-5.9099,-5.9099,-5.9099,-5.9099,-5.9099,-5.8501,-5.8082,-5.8022,-5.7363,-5.6735,-5.6248,-5.6158,-5.5748,-5.5089,-5.5089,-5.476,-5.4102,-5.4102,-5.3773,-5.3174,-5.3174,-5.3054,-3.9697,-3.9697,0.0,0.0,-3.9697,-3.9697,-3.9697,-3.9948,-4.0249,-4.0475,-4.1028,-4.1605,-4.2112,-4.2464,-4.2766,0.0,-4.2986,-4.3162,-4.3714,-4.4091,-4.4568,-4.5397,-4.5773,-4.5974,-4.5974,-4.6677,-4.7193,-4.7556,-4.8309,-4.8912,-4.9238,-4.9464,-4.9741,-5.0067,-5.0293,-5.0569,-5.0921,-5.1473,-5.1749,-5.1774,-5.2327,-5.2578,-5.2578,-5.2829,-5.2929,-5.2904,-5.3663,-5.3875,-5.3841,-5.5548,-5.6224,-5.6477,-5.8831,-5.9531,-5.9274,-6.0304,-6.0505,-6.0266,-6.0266,-6.0027,-5.9668,-5.9668,-5.9428,-5.9099,-5.9099,-5.9099,-5.9099,-5.9099,-5.9099,-5.9099,-5.9099,-5.9099,-5.9099,-5.9099,-5.9099,-5.9099,-5.9099,-5.9099,-5.9099,-5.9099,-5.9099,-5.9099,-5.9099,-5.9099,-5.9099,-5.9099,-5.9099,-5.9099,-5.9099,-5.9099,-5.9099,-5.9099,-5.9099,-5.9099,-5.9099,-5.886,-5.871,-5.871,-5.8052,-5.7573,-5.7334,-5.6585,-5.6098,-5.5777,-5.5388,-5.5059,-5.479,-5.479,-5.464,-5.4341,-5.4341,-5.4341,-3.9697,0.0,0.0,-3.9697,-3.9697,-3.9697,-3.9697,-4.0124,-4.0551,-4.0701,-4.1505,-4.2263,-4.2414,-4.2766,-4.2986,-4.2986,-4.2986,-4.3212,-4.394,-4.4367,-4.4895,-4.5623,-4.6075,-4.6376,-4.6527,-4.7029,-4.7581,-4.8109,-4.8686,-4.9163,-4.9565,-4.959,-4.9841,-5.0393,-5.0569,-5.0921,-5.1498,-5.2051,-5.2327,-5.2327,-5.2729,-5.2929,-5.2929,-5.3359,-5.3606,-5.3674,-5.538,-5.6141,-5.6245,-5.7977,-5.8669,-5.8884,-6.0569,-6.0907,-6.0588,-6.1394,-6.1433,-6.1104,-6.1104,-6.0775,-6.0386,-6.0386,-5.9907,-5.9368,-5.9368,-5.9249,-5.9099,-5.9099,-5.9099,-5.9099,-5.9099,-5.9099,-5.9099,-5.9099,-5.9099,-5.9099,-5.9099,-5.9099,-5.9099,-5.9099,-5.9099,-5.9099,-5.9099,-5.9099,-5.9099,-5.9099,-5.9099,-5.9099,-5.9099,-5.9099,-5.9099,-5.9099,-5.9099,-5.9099,-5.9099,-5.9099,-5.9099,-5.9099,-5.865,-5.8321,-5.8141,-5.7214,-5.6526,-5.6248,-5.5718,-5.5359,-5.5179,-5.5179,-5.5179,-5.5179,-5.5179,-5.5179,0.0,0.0,-3.9697,-3.9697,-3.9697,-3.9697,-3.9697,-4.0124,-4.0676,-4.115,-4.1756,-4.2363,-4.2861,-4.2961,-4.2986,-4.2986,-4.2986,-4.3363,-4.4443,-4.4618,-4.5045,-4.615,-4.6301,-4.6527,0.0,-4.7581,-4.8134,-4.8711,-4.9264,-4.9565,-4.959,-4.959,-4.9841,-5.0393,-5.0971,-5.1523,-5.2076,-5.2628,-5.2904,-5.2904,-5.2929,-5.2929,-5.2998,-5.4608,-5.5287,-5.5419,-5.7149,-5.7941,-5.8068,-5.9749,-6.0419,-6.06,-6.235,-6.2991,-6.2961,-6.3019,-6.2211,-6.1104,-6.1104,-6.1104,-6.1074,-6.1074,-6.0625,-6.0057,-6.0057,-5.9608,-5.9099,-5.9099,-5.9099,-5.9099,-5.9099,-5.9099,-5.9099,-5.9099,-5.9099,-5.9099,-5.9099,-5.9099,-5.9099,-5.9099,-5.9099,-5.9099,-5.9099,-5.9099,-5.9099,-5.9099,-5.9099,-5.9099,-5.9099,-5.9099,-5.9099,-5.9099,-5.9099,-5.9099,-5.9099,-5.9099,-5.9099,-5.9099,-5.9069,-5.88,-5.8141,-5.8082,-5.7453,-5.6248,-5.6188,-5.5837,-5.5179,-5.5179,-5.5179,-5.5179,-5.5179,-5.5179,0.0,0.0,-3.9697,-3.9697,-3.9697,-3.9798,-4.0149,-4.0676,-4.1229,-4.1781,-4.2308,-4.2816,-4.2936,-4.2986,-4.2986,-4.2986,-4.2986,-4.3363,-4.4468,-4.4618,-4.5045,-4.6175,-4.6627,0.0,0.0,0.0,0.0,-4.8736,-4.9289,-4.959,-4.959,-4.9941,-5.0393,-5.0971,-5.1523,-5.2101,-5.2653,-5.2829,-5.2929,-5.2929,-5.4055,-5.4541,-5.4608,-5.6337,-5.7112,-5.7213,-5.8918,-5.9659,-5.981,-6.1525,-6.2233,-6.2292,-6.2875,-6.3079,-6.3079,-6.3079,-6.278,-6.2421,-6.2421,-6.2121,-6.1762,-6.1762,-6.1313,-6.0775,-6.0775,-6.0625,-6.0326,-5.9877,-5.9757,-5.9668,-5.9219,-5.9099,-5.9099,-5.9099,-5.9099,-5.9099,-5.9099,-5.9099,-5.9099,-5.9099,-5.9099,-5.9099,-5.9099,-5.9099,-5.9099,-5.9099,-5.9099,-5.9099,-5.9099,-5.9099,-5.9099,-5.9099,-5.9099,-5.9099,-5.9099,-5.9099,-5.9099,-5.9099,-5.9099,-5.9009,-5.877,-5.8351,-5.7932,-5.7483,-5.6615,-5.6128,-5.5837,-5.5418,-5.5179,-5.5179,-5.5179,-5.5179,0.0,-3.9697,-3.9697,-3.9697,-3.9697,-3.9848,-4.04,-4.0899,-4.1505,-4.2112,-4.264,-4.2986,-4.2986,-4.2986,-4.2986,-4.2986,-4.3137,-4.3589,-4.4493,-4.4794,-4.5271,-4.62,-4.6803,0.0,0.0,0.0,0.0,-4.9012,-4.9389,-4.959,-4.959,-5.0117,-5.0695,-5.1272,-5.1825,-5.2377,-5.2929,-5.2929,-5.3179,-5.381,-5.4875,-5.5748,-5.6402,-5.8103,-5.8856,-5.9008,-6.069,-6.1437,-6.1525,-6.2613,-6.3079,-6.3079,-6.3079,-6.3079,-6.3079,-6.3079,-6.3079,-6.3079,-6.3079,-6.281,-6.245,-6.245,-6.2002,-6.1463,-6.1463,-6.1313,-6.1014,-6.0565,-6.0446,-6.0356,-5.9937,-5.9638,-5.9458,-5.9458,-5.9279,-5.9099,-5.9099,-5.9099,-5.9099,-5.9099,-5.9099,-5.9099,-5.9099,-5.9099,-5.9099,-5.9099,-5.9099,-5.9099,-5.9099,-5.9099,-5.9099,-5.9099,-5.9099,-5.9099,-5.9099,-5.9099,-5.9099,-5.9099,-5.9099,-5.9099,-5.9099,-5.871,-5.8351,-5.8112,-5.7304,-5.6645,-5.6218,-5.5748,-5.5418,-5.5179,-5.5179,-5.5179,-3.9749,-3.9697,-3.9697,-3.9697,-3.9697,-3.9848,-4.0425,-4.0899,-4.1505,-4.2137,-4.2665,-4.2986,0.0,0.0,-4.2986,-4.2986,-4.3413,-4.3966,-4.4543,-4.5095,-4.5648,0.0,0.0,0.0,0.0,0.0,0.0,-4.9565,0.0,-4.959,-4.959,-5.0142,-5.072,-5.1272,-5.185,-5.2402,-5.2929,-5.2998,-5.3852,-5.5551,-5.5617,-5.6504,-5.8194,-5.9872,-6.06,-6.075,-6.235,-6.3079,-6.3079,-6.3079,-6.3079,-6.3079,-6.3079,-6.3079,-6.3079,-6.3079,-6.3079,-6.3079,-6.3079,-6.3079,-6.3079,-6.3079,-6.266,-6.2151,-6.2151,-6.1702,-6.1224,-6.1164,-6.1164,-6.1164,-6.1134,-6.0625,-6.0116,-6.0086,-5.9608,-5.9129,-5.9129,-5.9099,-5.9099,-5.9099,-5.9099,-5.9099,-5.9099,-5.9099,-5.9099,-5.9099,-5.9099,-5.9099,-5.9099,-5.9099,-5.9099,-5.9099,-5.9099,-5.9099,-5.9099,-5.9099,-5.9099,-5.9099,-5.9099,-5.9099,-5.9099,-5.9099,-5.88,-5.8171,-5.8141,-5.7483,-5.6278,-5.6248,-5.5888,-5.5179,-5.5179,-5.5179,-4.0211,-3.9697,-3.9697,-3.9697,-3.9697,-3.9948,-4.0849,-4.1175,-4.1551,-4.2559,-4.2886,-4.2986,0.0,0.0,0.0,-4.2986,-4.3087,0.0,-4.4493,-4.4744,0.0,0.0,0.0,-4.7757,-4.7908,-4.8812,0.0,0.0,-4.959,-4.959,-4.959,-5.0519,-5.1122,-5.1272,-5.2226,-5.2779,-5.2929,-5.4122,-5.5617,-5.7341,-5.8606,-5.9413,-5.9933,-6.1644,-6.2438,-6.2497,-6.2875,-6.3079,-6.3079,-6.3079,-6.3079,-6.3079,-6.3079,-6.3079,-6.3079,-6.3079,-6.3079,-6.3079,-6.3079,-6.3079,-6.3079,-6.3079,-6.2959,-6.2839,-6.2839,-6.272,-6.248,-6.2002,-6.1852,-6.1732,-6.1253,-6.0984,-6.0715,-6.0206,-5.9967,-5.9697,-5.9219,-5.9099,-5.9099,-5.9099,-5.9099,-5.9099,-5.9099,-5.9099,-5.9099,-5.9099,-5.9099,-5.9099,-5.9099,-5.9099,-5.9099,-5.9099,-5.9099,-5.9099,-5.9099,-5.9099,-5.9099,-5.9099,-5.9099,-5.9099,-5.9099,-5.9099,-5.9039,-5.886,-5.8381,-5.7693,-5.6855,-5.6406,-5.5888,-5.5179,-5.5179,-5.5179,-4.0083,-3.9697,-3.9697,-3.9697,-3.9697,-3.9973,-4.1025,-4.1275,-4.1793,-4.3512,-4.3381,0.0,0.0,0.0,0.0,0.0,0.0,0.0,-4.4493,-4.4844,-4.5321,0.0,-4.7255,0.0,-4.7908,-4.8937,-4.959,0.0,-4.959,-4.969,-4.9941,-5.0795,-5.1772,-5.2745,-5.3592,-5.4366,-5.5141,-5.5314,-5.6634,-5.9104,-6.0055,-6.093,-6.1644,-6.2672,-6.3079,-6.3079,-6.3079,-6.3079,-6.3079,-6.3079,-6.3079,-6.3079,-6.3079,-6.3079,-6.3079,-6.3079,-6.3079,-6.3079,-6.3079,-6.3079,-6.3079,-6.3079,-6.3079,-6.3079,-6.3079,-6.3079,-6.2989,-6.263,-6.254,-6.245,-6.2061,-6.1553,-6.1014,-6.0625,-6.0086,-5.9548,-5.9189,-5.9099,-5.9099,-5.9099,-5.9099,-5.9099,-5.9099,-5.9099,-5.9099,-5.9099,-5.9099,-5.9099,-5.9099,-5.9099,-5.9099,-5.9099,-5.9099,-5.9099,-5.9099,-5.9099,-5.9099,-5.9099,-5.9099,-5.9099,-5.9099,-5.9099,-5.9099,-5.9099,-5.874,-5.8231,-5.7543,-5.6885,-5.6256,-5.5628,-5.5329,-5.5179,-4.0032,-3.9929,-3.9929,-3.9749,-3.9697,-3.9973,-4.1025,-4.1436,-4.2251,-4.4543,0.0,0.0,-4.4779,0.0,-4.2986,-4.2986,0.0,-4.3915,-4.4543,-4.5045,-4.5598,-4.6225,-4.7255,-4.797,-4.8193,-4.9229,-5.0014,-5.0206,-5.027,-5.0242,-5.0393,-5.1408,-5.293,-5.4979,-5.5483,-5.6569,-5.8292,-5.6828,-5.7696,-6.087,-6.087,-6.1644,-6.3079,-6.3079,-6.3079,-6.3079,-6.3079,-6.3079,-6.3079,-6.3079,-6.3079,-6.3079,-6.3079,-6.3079,-6.3079,-6.3079,-6.3079,-6.3079,-6.3079,-6.3079,-6.3079,-6.3079,-6.3079,-6.3079,-6.3079,-6.3079,-6.3079,-6.3079,-6.3079,-6.3079,-6.3079,-6.2181,-6.1224,-6.1134,-6.0146,-5.9219,-5.9129,-5.9099,-5.9099,-5.9099,-5.9099,-5.9099,-5.9099,-5.9099,-5.9099,-5.9099,-5.9099,-5.9099,-5.9099,-5.9099,-5.9099,-5.9099,-5.9099,-5.9099,-5.9099,-5.9099,-5.9099,-5.9099,-5.9099,-5.9099,-5.9099,-5.9099,-5.9099,-5.9099,-5.9099,-5.877,-5.8112,-5.7423,-5.6765,-5.6166,-5.5508,-5.5179,-4.1838,-4.1269,-4.1019,-3.9981,-3.9697,-3.9973,-4.1025,-4.2184,0.0,0.0,0.0,-4.4725,-4.4941,-4.3907,0.0,-4.2986,0.0,0.0,0.0,0.0,-4.5146,0.0,0.0,0.0,0.0,0.0,0.0,0.0,0.0,-5.2625,-5.0499,-5.3541,-5.5959,-5.7368,-5.7505,-5.8355,-6.0055,-5.9782,-6.0629,-6.2672,-6.2672,-6.2817,-6.3079,-6.3079,-6.3079,-6.3079,-6.3079,0.0,-6.3079,-6.3079,-6.3079,-6.3079,-6.3079,-6.3079,-6.3079,-6.3079,-6.3079,-6.3079,-6.3079,-6.3079,-6.3079,-6.3079,-6.3079,-6.3079,-6.3079,-6.3079,-6.3079,-6.3079,-6.3079,-6.3079,-6.3079,-6.251,-6.1792,-6.1253,-6.0505,-5.9757,-5.9219,-5.9099,-5.9099,-5.9099,-5.9099,-5.9099,-5.9099,-5.9099,-5.9099,-5.9099,-5.9099,-5.9099,-5.9099,-5.9099,-5.9099,-5.9099,-5.9099,-5.9099,-5.9099,-5.9099,-5.9099,-5.9099,-5.9099,-5.9099,-5.9099,-5.9099,-5.9099,-5.9099,-5.9099,-5.877,-5.8112,-5.7423,-5.6765,-5.6166,-5.5508,-5.5179,-4.293,-4.2593,-4.2252,-4.1019,-4.1169,-4.1808,-4.2268,0.0,0.0,0.0,0.0,-4.6317,-4.7043,0.0,0.0,0.0,0.0,0.0,0.0,0.0,0.0,0.0,0.0,0.0,0.0,0.0,0.0,0.0,0.0,-5.4952,-5.3508,-5.6624,-5.8697,-5.929,-5.929,-6.0116,-6.1851,-6.093,-6.1377,-6.3079,-6.3079,-6.3079,-6.3079,-6.3079,-6.3079,-6.3079,-6.3079,-6.3079,-6.3079,-6.3079,-6.3079,-6.3079,-6.3079,-6.3079,-6.3079,-6.3079,-6.3079,-6.3079,-6.3079,-6.3079,-6.3079,-6.3079,-6.3079,-6.3079,-6.3079,-6.3079,-6.3079,-6.3079,-6.3079,-6.2989,-6.266,-6.2091,-6.1403,-6.0745,-6.0057,-5.9488,-5.9189,-5.9099,-5.9099,-5.9099,-5.9099,-5.9099,-5.9099,-5.9099,-5.9099,-5.9099,-5.9099,-5.9099,-5.9099,-5.9099,-5.9099,-5.9099,-5.9099,-5.9099,-5.9099,-5.9099,-5.9099,-5.9099,-5.9099,-5.9099,-5.9099,-5.9099,-5.9099,-5.9099,-5.9099,-5.8949,-5.862,-5.7603,-5.6944,-5.6615,-5.5658,-5.5179,-4.3975,-4.3929,-4.3598,-4.2301,-4.2544,-4.323,-4.3704,-4.4602,0.0,0.0,0.0,0.0,0.0,0.0,0.0,0.0,0.0,0.0,0.0,0.0,0.0,0.0,0.0,0.0,0.0,0.0,0.0,0.0,0.0,0.0,-5.7246,-5.9308,-6.0661,-6.1079,-6.105,-6.1703,-6.3079,-6.1703,-6.1762,-6.3079,-6.3079,-6.3079,-6.3079,-6.3079,-6.3079,-6.3079,-6.3079,-6.3079,-6.3079,-6.3079,-6.3079,-6.3079,-6.3079,-6.3079,-6.3079,-6.3079,-6.3079,-6.3079,-6.3079,-6.3079,-6.3079,-6.3079,-6.3079,-6.3079,-6.3079,-6.3079,-6.3079,-6.3079,-6.2989,-6.275,-6.2241,-6.1493,-6.0715,-6.0027,-5.9488,-5.9099,-5.9099,-5.9099,-5.9099,-5.9099,-5.9099,-5.9099,-5.9099,-5.9099,-5.9099,-5.9099,-5.9099,-5.9099,-5.9099,-5.9099,-5.9099,-5.9099,-5.9099,-5.9099,-5.9099,-5.9099,-5.9099,-5.9099,-5.9099,-5.9099,-5.9099,-5.9099,-5.9099,-5.9099,-5.9099,-5.9039,-5.889,-5.7693,-5.7034,-5.6885,-5.5718,-5.5179,-4.5553,-4.5207,-4.4932,-4.3646,-4.2544,-4.2377,-4.4628,0.0,0.0,0.0,0.0,0.0,0.0,0.0,0.0,0.0,0.0,0.0,0.0,0.0,0.0,0.0,0.0,0.0,0.0,0.0,0.0,0.0,0.0,0.0,-6.0651,-6.0559,-6.1258,-6.2817,-6.2875,-6.2933,-6.3079,-6.2933,-6.2933,-6.3079,-6.3079,-6.3079,-6.3079,-6.3079,-6.3079,-6.3079,-6.3079,-6.3079,0.0,-6.3079,-6.3079,-6.3079,-6.3079,-6.3079,-6.3079,-6.3079,-6.3079,-6.3079,-6.3079,-6.3079,-6.3079,-6.3079,-6.3079,-6.3079,-6.3079,-6.3079,-6.3079,-6.3079,-6.266,-6.2181,-6.2121,-6.1134,-6.0027,-5.9338,-5.9159,-5.9099,-5.9099,-5.9099,-5.9099,-5.9099,-5.9099,-5.9099,-5.9099,-5.9099,-5.9099,-5.9099,-5.9099,-5.9099,-5.9099,-5.9099,-5.9099,-5.9099,-5.9099,-5.9099,-5.9099,-5.9099,-5.9099,-5.9099,-5.9099,-5.9099,-5.9099,-5.9099,-5.9099,-5.9099,-5.9099,-5.88,-5.8201,-5.7453,-5.6795,-5.6308,-5.5538,-5.5179,-4.6682,-4.655,-4.6255,-4.4978,-4.484,-4.5206,-4.5827,0.0,0.0,0.0,-5.0117,-5.0383,0.0,0.0,0.0,0.0,0.0,0.0,0.0,0.0,0.0,0.0,0.0,0.0,0.0,0.0,0.0,0.0,0.0,0.0,-6.0475,-6.1134,-6.1965,-6.3079,-6.3079,-6.3079,-6.3079,-6.3079,-6.3079,-6.3079,-6.3079,-6.3079,-6.3079,-6.3079,-6.3079,-6.3079,-6.3079,-6.3079,0.0,-6.3079,-6.3079,-6.3079,-6.3079,-6.3079,-6.3079,-6.3079,-6.3079,-6.3079,-6.3079,-6.3079,-6.3079,-6.3079,-6.281,-6.257,-6.2959,-6.281,-6.248,-6.248,-6.2002,-6.1403,-6.0984,-6.0206,-5.9428,-5.9159,-5.9099,-5.9099,-5.9099,-5.9099,-5.9099,-5.9099,-5.9099,-5.9099,-5.9099,-5.9099,-5.9099,-5.9099,-5.9099,-5.9099,-5.9099,-5.9099,-5.9099,-5.9099,-5.9099,-5.9099,-5.9099,-5.9099,-5.9099,-5.9099,-5.9099,-5.9099,-5.9099,-5.9099,-5.9099,-5.9099,-5.871,-5.8381,-5.8112,-5.7064,-5.6406,-5.6166,-5.5508,-5.5179,-4.7309,-4.7309,-4.7062,-4.6211,-4.6344,-4.6771,0.0,0.0,0.0,-4.997,-5.0554,-5.0943,-5.1169,0.0,0.0,0.0,0.0,0.0,0.0,0.0,0.0,0.0,0.0,0.0,0.0,0.0,0.0,0.0,0.0,0.0,-6.0086,-6.0984,-6.1882,-6.275,-6.278,-6.2869,-6.3079,-6.3079,-6.3079,-6.3079,-6.3079,-6.3079,-6.3079,-6.3079,-6.3079,-6.3079,-6.3079,-6.3079,0.0,-6.3079,-6.3079,-6.3079,-6.3079,-6.3079,-6.3079,-6.3079,-6.2959,-6.278,-6.278,-6.266,-6.251,-6.251,-6.2181,-6.1882,-6.2361,-6.2181,-6.1792,-6.1792,-6.1313,-6.0655,-5.9967,-5.9458,-5.9099,-5.9099,-5.9099,-5.9099,-5.9099,-5.9099,-5.9099,-5.9099,-5.9099,-5.9099,-5.9099,-5.9099,-5.9099,-5.9099,-5.9099,-5.9099,-5.9099,-5.9099,-5.9099,-5.9099,-5.9099,-5.9099,-5.9099,-5.9099,-5.9099,-5.9099,-5.9099,-5.9099,-5.9099,-5.9099,-5.9009,-5.883,-5.8351,-5.7932,-5.7543,-5.6615,-5.6128,-5.5867,-5.5418,-5.5179,-4.7309,-4.7309,-4.7309,-4.7266,-4.6344,-4.5953,0.0,0.0,0.0,0.0,-5.0196,-5.0405,0.0,0.0,0.0,0.0,0.0,0.0,0.0,0.0,0.0,0.0,0.0,0.0,0.0,0.0,0.0,0.0,0.0,0.0,-6.0057,-6.0086,-6.0715,-6.2061,-6.2121,-6.2421,-6.3079,-6.3079,-6.3079,-6.3079,-6.3079,-6.3079,-6.3079,-6.3079,-6.3079,-6.3079,-6.3079,-6.3079,0.0,-6.3079,-6.3079,-6.3079,-6.3079,-6.3079,-6.3079,-6.3079,-6.266,-6.2121,-6.2121,-6.1672,-6.1134,-6.1134,-6.1134,-6.1134,-6.1134,-6.1134,-6.1134,-6.1134,-6.0625,-5.9937,-5.9279,-5.9099,-5.9099,-5.9099,-5.9099,-5.9099,-5.9099,-5.9099,-5.9099,-5.9099,-5.9099,-5.9099,-5.9099,-5.9099,-5.9099,-5.9099,-5.9099,-5.9099,-5.9099,-5.9099,-5.9099,-5.9099,-5.9099,-5.9099,-5.9099,-5.9099,-5.9099,-5.9099,-5.9099,-5.9099,-5.9099,-5.9099,-5.88,-5.8141,-5.8112,-5.7483,-5.6248,-5.6248,-5.5837,-5.5209,-5.5179,-5.5179,-4.7309,-4.7309,-4.7309,-4.7309,-4.7019,-4.6873,-4.7491,0.0,0.0,0.0,0.0,0.0,0.0,0.0,0.0,0.0,0.0,0.0,0.0,0.0,0.0,0.0,0.0,0.0,0.0,0.0,0.0,0.0,0.0,0.0,-5.9398,-5.9428,-6.0027,-6.1373,-6.1433,-6.1732,-6.2391,-6.2421,-6.263,-6.3079,-6.3079,-6.3079,-6.3079,-6.3079,-6.3079,-6.3079,-6.3079,-6.3079,-6.3049,-6.26,-6.2421,-6.2361,-6.1912,-6.1732,-6.1732,-6.1732,-6.1613,-6.1433,-6.1433,-6.1283,-6.1104,-6.1104,-6.0805,-6.0416,-6.0416,-6.0416,-6.0326,-5.9877,-5.9578,-5.9368,-5.9159,-5.9099,-5.9099,-5.9099,-5.9099,-5.9099,-5.9099,-5.9099,-5.9099,-5.9099,-5.9099,-5.9099,-5.9099,-5.9099,-5.9099,-5.9099,-5.9099,-5.9099,-5.9099,-5.9099,-5.9099,-5.9099,-5.9099,-5.9099,-5.9099,-5.9099,-5.9099,-5.9099,-5.9099,-5.889,-5.8471,-5.8441,-5.8112,-5.7423,-5.7004,-5.6585,-5.6218,-5.5718,-5.5388,-5.5179,-5.5179,-5.5179,0.0,-4.7309,-4.7309,-4.7309,-4.7309,0.0,0.0,0.0,0.0,0.0,0.0,0.0,0.0,0.0,0.0,0.0,0.0,0.0,0.0,0.0,0.0,0.0,0.0,0.0,0.0,0.0,0.0,0.0,0.0,0.0,-5.9099,-5.9099,-5.9488,-6.0326,-6.0595,-6.1044,-6.1732,-6.1732,-6.1942,-6.2331,-6.2331,-6.2331,-6.2331,-6.2331,-6.2331,-6.2331,-6.2331,-6.2331,0.0,-6.1882,-6.1732,-6.1672,-6.1283,-6.1104,-6.1104,-6.1104,-6.0954,-6.0715,-6.0715,-6.0565,-6.0356,-6.0356,-6.0057,-5.9727,-5.9727,-5.9727,-5.9638,-5.9219,-5.9099,-5.9099,-5.9099,-5.9099,-5.9099,-5.9099,-5.9099,-5.9099,-5.9099,-5.9099,-5.9099,-5.9099,-5.9099,-5.9099,-5.9099,-5.9099,-5.9099,-5.9099,-5.9099,-5.9099,-5.9099,-5.9099,-5.9099,-5.9099,-5.9099,-5.9009,-5.877,-5.8949,-5.9009,-5.874,-5.874,-5.8441,-5.7752,-5.7723,-5.7423,-5.6765,-5.6376,-5.6098,-5.5807,-5.5388,-5.5179,-5.5179,-5.5179,-5.5179,0.0,0.0,0.0,0.0,0.0,0.0,0.0,0.0,0.0,0.0,0.0,0.0,0.0,0.0,0.0,0.0,0.0,0.0,0.0,0.0,0.0,0.0,0.0,0.0,0.0,0.0,0.0,0.0,0.0,0.0,-5.9099,-5.9099,-5.9099,-5.9099,-5.9697,-6.0356,-6.1044,-6.1044,-6.1074,-6.1104,-6.1104,-6.1104,-6.1104,-6.1104,-6.1104,0.0,-6.1104,-6.1104,-6.1104,-6.1074,-6.1044,-6.1044,-6.0984,-6.0984,-6.0984,-6.0984,-6.0565,-6.0027,-6.0027,-5.9608,-5.9099,-5.9099,-5.9099,-5.9099,-5.9099,-5.9099,-5.9099,-5.9099,-5.9099,-5.9099,-5.9099,-5.9099,-5.9099,-5.9099,-5.9099,-5.9099,-5.9099,-5.9099,-5.9099,-5.9099,-5.9099,-5.9099,-5.9099,-5.9099,-5.9099,-5.9099,-5.9099,-5.9099,-5.9099,-5.9069,-5.9039,-5.9039,-5.8979,-5.871,-5.8112,-5.865,-5.874,-5.8082,-5.8052,-5.7752,-5.7064,-5.7034,-5.6735,-5.6158,-5.6158,-5.5807,-5.5179,-5.5179,-5.5179,-5.5179,-5.5179,-5.5179,-4.7309,0.0,-4.7309,0.0,0.0,0.0,0.0,0.0,0.0,0.0,0.0,0.0,0.0,0.0,0.0,0.0,0.0,0.0,0.0,0.0,0.0,0.0,0.0,0.0,0.0,0.0,0.0,0.0,0.0,-5.9099,-5.9099,-5.9099,-5.9099,-5.9099,-5.9249,-5.9668,-6.0326,-6.0326,-6.0595,-6.1104,-6.1104,-6.1104,-6.1104,-6.1104,-6.1104,-6.1104,-6.1104,-6.1104,-6.1074,-6.0535,-6.0326,-6.0266,-5.9787,-5.9578,-5.9578,-5.9578,-5.9488,-5.9338,-5.9338,-5.9249,-5.9099,-5.9099,-5.9099,-5.9099,-5.9099,-5.9099,-5.9099,-5.9099,-5.9099,-5.9099,-5.9099,-5.9099,-5.9099,-5.9099,-5.9099,-5.9099,-5.9099,-5.9099,-5.9099,-5.9099,-5.9099,-5.9099,-5.9099,-5.9099,-5.9099,-5.9099,-5.9099,-5.9099,-5.9099,-5.865,-5.8351,-5.8351,-5.7872,-5.7513,-5.7363,-5.7962,-5.8052,-5.7393,-5.7334,-5.7064,-5.6406,-5.6376,-5.6077,-5.5448,-5.5418,-5.5359,-5.5179,-5.5179,-5.5179,-5.5179,-5.5179,-5.5179,-4.7309,-4.7309,-4.7309,-4.7309,-4.7309,-4.7309,0.0,0.0,0.0,0.0,0.0,0.0,0.0,0.0,0.0,0.0,0.0,0.0,0.0,0.0,0.0,0.0,0.0,0.0,0.0,0.0,0.0,0.0,0.0,-5.9099,-5.9099,-5.9099,-5.9099,-5.9099,-5.9099,-5.9279,-5.9638,-5.9638,-5.9817,-6.0176,-6.0176,-6.0176,-6.0176,-6.0176,-6.0176,-6.0176,-6.0176,-6.0176,-6.0146,-5.9787,-5.9638,-5.9608,-5.9249,-5.9099,-5.9099,-5.9099,-5.9099,-5.9099,-5.9099,-5.9099,-5.9099,-5.9099,-5.9099,-5.9099,-5.9099,-5.9099,-5.9099,-5.9099,-5.9099,-5.9099,-5.9099,-5.9099,-5.9099,-5.9099,-5.9099,-5.9099,-5.9099,-5.9099,-5.9099,-5.9099,-5.9099,-5.9099,-5.9099,-5.9099,-5.9099,-5.9099,-5.886,-5.865,-5.865,-5.8082,-5.7663,-5.7663,-5.7304,-5.6974,-5.6705,-5.7004,-5.7064,-5.6705,-5.6675,-5.6376,-5.5748,-5.5718,-5.5568,-5.5209,-5.5179,-5.5179,-5.5179,-5.5179,-5.5179,-5.5179,-5.5179,-5.5179,-4.7309,-4.7309,-4.7309,-4.7309,-4.7309,-4.7309,0.0,0.0,0.0,0.0,0.0,0.0,0.0,0.0,0.0,0.0,0.0,0.0,0.0,0.0,0.0,0.0,0.0,0.0,0.0,0.0,0.0,0.0,0.0,-5.9099,-5.9099,-5.9099,-5.9099,-5.9099,-5.9099,-5.9099,-5.9099,-5.9099,-5.9099,-5.9099,-5.9099,-5.9099,-5.9099,-5.9099,-5.9099,-5.9099,-5.9099,-5.9099,-5.9099,-5.9099,-5.9099,-5.9099,-5.9099,-5.9099,-5.9099,-5.9099,-5.9099,-5.9099,-5.9099,-5.9099,-5.9099,-5.9099,-5.9099,-5.9099,-5.9099,-5.9099,-5.9099,-5.9099,-5.9099,-5.9099,-5.9099,-5.9099,-5.9099,-5.9099,-5.9099,-5.9099,-5.9099,-5.9099,-5.9099,-5.9099,-5.9099,-5.9099,-5.9099,-5.9009,-5.8949,-5.8949,-5.8381,-5.7962,-5.7962,-5.7363,-5.6944,-5.6944,-5.6855,-5.6585,-5.6077,-5.6017,-5.6017,-5.6017,-5.6017,-5.5777,-5.5209,-5.5179,-5.5179,-5.5179,-5.5179,-5.5179,-5.5179,-5.5179,-5.5179,-5.5179,-5.5179,-5.5179,-4.7309,-4.7309,-4.7309,-4.7309,-4.7309,-4.7309,0.0,0.0,0.0,0.0,0.0,0.0,0.0,0.0,0.0,0.0,0.0,0.0,0.0,0.0,0.0,0.0,0.0,0.0,0.0,0.0,0.0,0.0,0.0,-5.9099,-5.9099,-5.9099,-5.9099,-5.9099,-5.9099,-5.9099,-5.9099,-5.9099,-5.9099,-5.9099,-5.9099,-5.9099,-5.9099,-5.9099,-5.9099,-5.9099,0.0,-5.9099,-5.9099,-5.9099,-5.9099,-5.9099,-5.9099,-5.9099,-5.9099,-5.9099,-5.9099,-5.9099,-5.9099,-5.9099,-5.9099,-5.9099,-5.9099,-5.9099,-5.9099,-5.9099,-5.9099,-5.9099,-5.9099,-5.9099,-5.9099,-5.9099,-5.9099,-5.9099,-5.9099,-5.9099,-5.9099,-5.9099,-5.9099,-5.9099,-5.9099,-5.9099,-5.9099,-5.865,-5.8261,-5.8261,-5.7693,-5.7244,-5.7244,-5.6705,-5.6368,-5.6368,-5.5807,-5.5448,-5.5359,-5.5329,-5.5329,-5.5329,-5.5329,-5.5299,-5.5179,-5.5179,-5.5179,-5.5179,-5.5179,-5.5179,-5.5179,-5.5179,-5.5179,-5.5179,-5.5179,-5.5179,-4.7309,-4.7309,-4.7309,-4.7309,-4.7309,-4.7309,-4.7309,0.0,0.0,0.0,0.0,0.0,0.0,0.0,0.0,0.0,0.0,0.0,0.0,0.0,0.0,0.0,0.0,0.0,0.0,0.0,0.0,0.0,0.0,0.0,-5.859,-5.8919,-5.9099,-5.9099,-5.9099,-5.9099,-5.9099,-5.9099,-5.9099,-5.9099,-5.9099,-5.9099,-5.9099,-5.9099,-5.9099,-5.9099,-5.9099,-5.9099,-5.9099,-5.9099,-5.9099,-5.9099,-5.9099,-5.9099,-5.9099,-5.9099,-5.9099,-5.9099,-5.9099,-5.9099,-5.9099,-5.9099,-5.9099,-5.9099,-5.9099,-5.9099,-5.9099,-5.9099,-5.9099,-5.9099,-5.9099,-5.9099,-5.9099,-5.9099,-5.9099,-5.9099,-5.9099,-5.9099,-5.9099,-5.9099,-5.883,-5.859,-5.859,-5.8022,-5.7573,-5.7573,-5.7004,-5.6585,-5.6585,-5.6047,-5.5658,-5.5658,-5.5359,-5.5179,-5.5179,-5.5179,-5.5179,-5.5179,-5.5179,-5.5179,-5.5179,-5.5179,-5.5179,-5.5179,-5.5179,-5.5179,-5.5179,-5.5179,-5.5179,-5.5179,-5.5179,-5.5179,-4.7309,-4.7309,-4.7309,-4.7309,0.0,-4.7309,-4.7309,0.0,0.0,0.0,0.0,0.0,0.0,0.0,0.0,0.0,0.0,0.0,0.0,0.0,0.0,0.0,0.0,0.0,0.0,0.0,0.0,0.0,0.0,0.0,-5.7872,-5.8351,-5.862,-5.862,-5.862,-5.862,-5.862,-5.862,-5.88,-5.9099,-5.9099,-5.9099,-5.9099,-5.9099,-5.9099,-5.9099,-5.9099,-5.9099,-5.9099,-5.9099,-5.9099,-5.9099,-5.9099,-5.9099,-5.9099,-5.9099,-5.9099,-5.9099,-5.9099,-5.9099,-5.9099,-5.9099,-5.9099,-5.9099,-5.9099,-5.9099,-5.9099,-5.9099,-5.9099,-5.9099,-5.9099,-5.9099,-5.9099,-5.9099,-5.9099,-5.9099,-5.9099,-5.8979,-5.889,-5.889,-5.8351,-5.7872,-5.7872,-5.7334,-5.6885,-5.6885,-5.6346,-5.6008,-5.6008,-5.5508,-5.5179,-5.5179,-5.5179,-5.5179,-5.5179,-5.5179,-5.5179,-5.5179,-5.5179,-5.5179,-5.5179,-5.5179,-5.5179,-5.5179,-5.5179,-5.5179,-5.5179,-5.5179,-5.5179,-5.5179,-5.5179,-5.5179,-4.7309,-4.7309,-4.7309,-4.7309,0.0,0.0,-4.7309,-4.7309,0.0,0.0,0.0,0.0,0.0,0.0,0.0,0.0,0.0,0.0,0.0,0.0,0.0,0.0,0.0,0.0,0.0,0.0,0.0,0.0,0.0,0.0,-5.7154,-5.7214,-5.7244,-5.7244,-5.7244,-5.7244,-5.7244,-5.7244,-5.7872,-5.9099,-5.9099,-5.9099,-5.9099,-5.9099,-5.9099,-5.9099,-5.9099,-5.9099,-5.9099,-5.9099,-5.9099,-5.9099,-5.9099,-5.9099,-5.9099,-5.9099,-5.9099,-5.9099,-5.9099,-5.9099,-5.9099,-5.9099,-5.9099,-5.9099,-5.9099,-5.9099,-5.9099,-5.9099,-5.9099,-5.9099,-5.9099,-5.9099,-5.9099,-5.9099,-5.9099,-5.9099,-5.9099,-5.862,-5.8201,-5.8201,-5.7633,-5.7154,-5.7154,-5.6645,-5.6226,-5.6226,-5.5688,-5.5269,-5.5269,-5.5209,-5.5179,-5.5179,-5.5179,-5.5179,-5.5179,-5.5179,-5.5179,-5.5179,-5.5179,-5.5179,-5.5179,-5.5179,-5.5179,-5.5179,-5.5179,-5.5179,-5.5179,-5.5179,-5.5179,-5.5179,-5.5179,-5.5179,-4.7309,-4.7309,-4.7309,-4.7309,0.0,0.0,0.0,0.0,0.0,0.0,0.0,0.0,0.0,0.0,0.0,0.0,0.0,0.0,0.0,0.0,0.0,0.0,0.0,0.0,0.0,0.0,0.0,0.0,0.0,0.0,-5.6526,-5.6885,-5.7094,-5.7094,-5.7094,-5.7094,-5.7094,-5.7094,-5.7363,-5.7872,-5.8291,-5.8501,-5.8501,-5.8919,-5.9099,-5.9099,-5.9099,-5.9099,-5.9099,-5.9099,-5.9099,-5.9099,-5.9099,-5.9099,-5.9099,-5.9099,-5.9099,-5.9099,-5.9099,-5.9099,-5.9099,-5.9099,-5.9099,-5.9039,-5.862,-5.8501,-5.8411,-5.7962,-5.7842,-5.8052,-5.889,-5.9099,-5.9009,-5.859,-5.8501,-5.8381,-5.7962,-5.7663,-5.7483,-5.7483,-5.6974,-5.6526,-5.6526,-5.5987,-5.5568,-5.5568,-5.5359,-5.5179,-5.5179,-5.5179,-5.5179,-5.5179,-5.5179,-5.5179,-5.5179,-5.5179,-5.5179,-5.5179,-5.5179,-5.5179,-5.5179,-5.5179,-5.5179,-5.5179,-5.5179,-5.5179,-5.5179,-5.5179,-5.5179,-5.5179,-5.5179,-5.497,-4.7309,-4.7309,-4.7309,0.0,0.0,0.0,0.0,0.0,0.0,0.0,0.0,0.0,0.0,0.0,0.0,0.0,0.0,0.0,0.0,0.0,0.0,0.0,0.0,0.0,0.0,0.0,0.0,0.0,0.0,0.0,0.0,-5.6256,-5.6496,-5.6496,-5.6496,-5.6496,-5.6496,-5.6496,-5.6496,-5.6496,-5.7184,-5.7603,-5.7812,-5.8261,-5.8471,-5.8471,-5.8471,-5.8471,-5.8471,-5.8471,-5.8471,-5.8471,-5.8471,-5.8471,-5.8471,-5.8471,-5.8471,-5.8471,-5.8471,-5.8471,-5.8471,-5.8471,-5.8471,-5.8381,-5.7932,-5.7812,-5.7693,-5.7244,-5.7094,-5.7304,-5.8231,-5.8471,-5.8351,-5.7902,-5.7812,-5.7663,-5.7184,-5.6944,-5.6795,-5.6795,-5.6286,-5.5867,-5.5867,-5.5478,-5.5179,-5.5179,-5.5179,-5.5179,-5.5179,-5.5179,-5.5179,-5.5179,-5.5179,-5.5179,-5.5179,-5.5179,-5.5179,-5.5179,-5.5179,-5.5179,-5.5179,-5.5179,-5.5179,-5.5179,-5.5179,-5.5179,-5.5179,-5.497,-5.488,-5.488,-5.467,-5.4311,-4.7309,-4.7309,0.0,0.0,0.0,0.0,0.0,0.0,0.0,0.0,0.0,0.0,0.0,0.0,0.0,0.0,0.0,0.0,0.0,0.0,0.0,0.0,0.0,0.0,0.0,0.0,0.0,0.0,0.0,0.0,0.0,-5.5179,-5.5179,-5.5179,-5.5179,-5.5179,-5.5179,-5.5179,-5.5179,-5.5209,-5.5837,-5.6496,-5.7094,-5.7094,-5.7094,-5.7094,-5.7094,-5.7094,-5.7094,-5.7094,-5.7094,-5.7094,-5.7094,-5.7094,-5.7094,-5.7094,-5.7094,-5.7094,-5.7094,-5.7094,-5.7094,-5.7094,-5.7094,-5.7094,-5.7094,-5.7094,-5.7094,-5.7064,-5.7064,-5.7064,-5.7064,-5.7064,-5.7064,-5.7094,-5.7094,-5.7094,-5.7064,-5.6585,-5.6218,-5.6218,-5.5628,-5.5179,-5.5179,-5.5179,-5.5179,-5.5179,-5.5179,-5.5179,-5.5179,-5.5179,-5.5179,-5.5179,-5.5179,-5.5179,-5.5179,-5.5179,-5.5179,-5.5179,-5.5179,-5.5179,-5.5179,-5.5179,-5.5179,-5.5179,-5.5179,-5.5179,-5.5179,-5.4521,-5.4192,-5.4192,-5.3503,-5.3174,-4.7309,0.0,0.0,0.0,0.0,0.0,0.0,0.0,0.0,0.0,0.0,0.0,0.0,0.0,0.0,0.0,0.0,0.0,0.0,0.0,0.0,0.0,0.0,0.0,0.0,0.0,0.0,0.0,0.0,0.0,-5.5179,-5.5179,-5.5179,-5.5179,-5.5179,-5.5179,-5.5179,-5.5179,-5.5179,-5.5179,-5.5388,-5.5837,-5.6466,-5.6885,-5.7094,-5.7094,-5.7094,-5.7094,-5.7094,-5.7094,-5.7094,-5.7094,-5.7094,-5.7094,-5.7094,-5.7094,-5.7094,-5.7094,-5.7094,-5.7094,-5.7094,-5.7094,-5.7094,-5.7004,-5.6585,-5.6436,-5.6346,-5.5897,-5.5748,-5.5748,-5.5748,-5.5748,-5.5867,-5.6346,-5.6436,-5.6316,-5.5867,-5.5598,-5.5478,-5.5478,-5.5329,-5.5179,-5.5179,-5.5179,-5.5179,-5.5179,-5.5179,-5.5179,-5.5179,-5.5179,-5.5179,-5.5179,-5.5179,-5.5179,-5.5179,-5.5179,-5.5179,-5.5179,-5.5179,-5.5179,-5.5179,-5.5179,-5.5179,-5.5179,-5.473,-5.4491,-5.4491,-5.3803,-5.3503,-5.3473,-5.3264,-5.2935,-4.7309,0.0,0.0,0.0,0.0,0.0,0.0,0.0,0.0,0.0,0.0,0.0,0.0,0.0,0.0,0.0,0.0,0.0,0.0,0.0,0.0,0.0,0.0,0.0,0.0,0.0,0.0,0.0,0.0,-5.5179,-5.5179,-5.5179,-5.5179,-5.5179,-5.5179,-5.5179,-5.5179,-5.5179,-5.5179,-5.5179,-5.5179,-5.5388,-5.5807,-5.6166,-5.6346,-5.6346,-5.6346,-5.6346,-5.6346,-5.6346,-5.6346,-5.6346,-5.6346,-5.6346,-5.6346,-5.6346,-5.6346,-5.6346,-5.6346,-5.6346,-5.6346,-5.6346,-5.6346,-5.6256,-5.5897,-5.5777,-5.5688,-5.5299,-5.5179,-5.5179,-5.5179,-5.5179,-5.5299,-5.5688,-5.5777,-5.5658,-5.5269,-5.5179,-5.5179,-5.5179,-5.5179,-5.5179,-5.5179,-5.5179,-5.5179,-5.5179,-5.5179,-5.5179,-5.5179,-5.5179,-5.5179,-5.5179,-5.5179,-5.5179,-5.5179,-5.494,-5.479,-5.479,-5.4551,-5.4401,-5.4401,-5.464,-5.467,-5.4401,-5.4012,-5.3803,-5.3803,-5.3114,-5.2785,-5.2785,-5.2516,-5.2187,0.0,0.0,0.0,0.0,0.0,0.0,0.0,0.0,0.0,0.0,0.0,0.0,0.0,0.0,0.0,0.0,0.0,0.0,0.0,0.0,0.0,0.0,0.0,0.0,0.0,0.0,0.0,0.0,0.0,-5.5179,-5.5179,-5.5179,-5.5179,-5.5179,-5.5179,-5.5179,-5.5179,-5.5179,-5.5179,-5.5179,-5.5179,-5.5179,-5.5179,-5.5179,-5.5179,-5.5179,-5.5179,-5.5179,-5.5179,-5.5179,-5.5179,-5.5179,-5.5179,-5.5179,-5.5179,-5.5179,-5.5179,-5.5179,-5.5179,-5.5179,-5.5179,-5.5179,-5.5179,-5.5179,-5.5179,-5.5179,-5.5179,-5.5179,-5.5179,-5.5179,-5.5179,-5.5179,-5.5179,-5.5179,-5.5179,-5.5179,-5.5179,-5.5179,-5.5179,-5.5179,-5.5179,-5.5179,-5.5179,-5.5179,-5.5179,-5.5179,-5.5179,-5.5179,-5.5179,-5.5179,-5.5179,-5.5119,-5.5089,-5.5059,-5.4999,-5.4461,-5.4132,-5.4132,-5.3533,-5.3144,-5.3084,-5.3743,-5.3832,-5.3204,-5.3114,-5.3084,-5.3084,-5.2426,-5.2127,-5.2097,-5.1498,-5.1229,0.0,0.0,0.0,0.0,0.0,0.0,0.0,0.0,0.0,0.0,0.0,0.0,0.0,0.0,0.0,0.0,0.0,0.0,0.0,0.0,0.0,0.0,0.0,0.0,0.0,0.0,0.0,0.0,-5.5179,-5.5179,-5.5179,-5.5179,-5.5179,-5.5179,-5.5179,-5.5179,-5.5179,-5.5179,-5.5179,-5.5179,-5.5179,-5.5179,-5.5179,-5.5179,-5.5179,-5.5179,-5.5179,-5.5179,-5.5179,-5.5179,-5.5179,-5.5179,-5.5179,-5.5179,-5.5179,-5.5179,-5.5179,-5.5179,-5.5179,-5.5179,-5.5179,-5.5179,-5.5179,-5.5179,-5.5179,-5.5179,-5.5179,-5.5179,-5.5179,-5.5179,-5.5179,-5.5179,-5.5179,-5.5179,-5.5179,-5.5179,-5.5179,-5.5179,-5.5179,-5.5179,-5.5179,-5.5179,-5.5179,-5.5179,-5.5179,-5.5179,-5.5179,-5.5179,-5.5179,-5.5179,-5.4999,-5.4491,-5.4431,-5.4192,-5.3653,-5.3473,-5.3414,-5.3414,-5.3264,-5.2935,-5.2426,-5.3054,-5.3324,-5.3174,-5.2665,-5.2426,-5.2396,-5.1738,-5.1439,-5.1439,-5.1289,-5.1229,0.0,0.0,0.0,0.0,0.0,0.0,0.0,0.0,0.0,0.0,0.0,0.0,0.0,0.0,0.0,0.0,0.0,0.0,0.0,0.0,0.0,0.0,0.0,0.0,0.0,0.0,0.0,-5.4221,-5.4221,-5.4221,-5.4221,-5.4221,-5.4221,-5.4221,-5.4221,-5.4221,-5.4221,-5.4551,-5.473,-5.473,-5.5029,-5.5179,-5.5179,-5.5179,-5.5179,-5.5179,-5.5179,-5.5179,-5.5179,-5.5179,-5.5179,-5.5179,-5.5179,-5.5179,-5.5179,-5.5179,-5.5179,-5.5179,-5.5179,-5.5179,-5.5179,-5.5179,-5.5179,-5.5179,-5.5179,-5.5179,-5.5179,-5.5179,-5.5179,-5.5179,-5.5179,-5.5179,-5.5179,-5.5179,-5.5179,-5.5179,-5.5179,-5.5179,-5.5179,-5.5179,-5.5179,-5.5179,-5.5179,-5.5179,-5.5179,-5.5179,-5.5179,-5.5089,-5.476,-5.473,-5.4461,-5.3773,-5.3713,-5.3563,-5.3204,-5.2905,-5.2725,-5.2725,-5.2426,-5.2097,-5.1738,-5.2067,-5.2247,-5.2247,-5.1917,-5.1738,-5.1738,-5.1379,-5.1229,-5.1229,-5.1229,-5.1229,0.0,0.0,0.0,0.0,0.0,0.0,0.0,0.0,0.0,0.0,0.0,0.0,0.0,0.0,0.0,0.0,0.0,0.0,0.0,0.0,0.0,0.0,0.0,0.0,0.0,0.0,0.0,-5.3174,-5.3174,-5.3174,-5.3174,-5.3174,-5.3174,-5.3174,-5.3174,-5.3174,-5.3174,-5.3743,-5.4042,-5.4042,-5.4581,-5.485,-5.485,-5.485,-5.497,-5.5179,-5.5179,-5.5179,-5.5179,-5.5179,-5.5179,-5.5179,-5.5179,-5.5179,-5.5179,-5.5179,-5.5179,-5.5179,-5.5179,-5.5179,-5.5179,-5.5179,-5.5179,-5.5179,-5.5179,-5.5179,-5.5179,-5.5179,-5.5179,-5.5179,-5.5179,-5.5179,-5.5179,-5.5179,-5.5179,-5.5179,-5.5179,-5.5179,-5.5179,-5.5179,-5.5179,-5.5179,-5.5179,-5.5179,-5.5149,-5.5029,-5.5029,-5.479,-5.4132,-5.4042,-5.3773,-5.3084,-5.3025,-5.2965,-5.2845,-5.2336,-5.2037,-5.2037,-5.1528,-5.1229,-5.1229,-5.1229,-5.1229,-5.1229,-5.1229,-5.1229,-5.1229,-5.1229,-5.1229,-5.1229,-5.1229,-5.1229,0.0,0.0,0.0,0.0,0.0,0.0,0.0,0.0,0.0,0.0,0.0,0.0,0.0,0.0,0.0,0.0,0.0,0.0,0.0,0.0,0.0,0.0,0.0,0.0,0.0,0.0,0.0,-5.3144,-5.3174,-5.3174,-5.3174,-5.3174,-5.3174,-5.3174,-5.3174,-5.3174,-5.3174,-5.3264,-5.3324,-5.3324,-5.3414,-5.3443,-5.3443,-5.3443,-5.4102,-5.5179,-5.5179,-5.5179,-5.5179,-5.5179,-5.5179,-5.5179,-5.5179,-5.5179,-5.5179,-5.5179,-5.5179,-5.5179,-5.5179,-5.5179,-5.5179,-5.5179,-5.5179,-5.5179,-5.5179,-5.5179,-5.5179,-5.5179,-5.5179,-5.5179,-5.5179,-5.5179,-5.5179,-5.5179,-5.5179,-5.5179,-5.5179,-5.5179,-5.5179,-5.5179,-5.5179,-5.5179,-5.5179,-5.5179,-5.4999,-5.4431,-5.4341,-5.4102,-5.3414,-5.3324,-5.3054,-5.2396,-5.2336,-5.2097,-5.1528,-5.1409,-5.1349,-5.1349,-5.1259,-5.1229,-5.1229,-5.1229,-5.1229,-5.1229,-5.1229,-5.1229,-5.1229,-5.1229,-5.1229,-5.1229,-5.1229,-5.1229,0.0,0.0,0.0,0.0,0.0,0.0,0.0,0.0,0.0,0.0,0.0,0.0,0.0,0.0,0.0,0.0,0.0,0.0,0.0,0.0,0.0,0.0,0.0,0.0,0.0,0.0,0.0,-5.2067,-5.2067,-5.2067,-5.2067,-5.2067,-5.2067,-5.2067,-5.2067,-5.2067,-5.2067,-5.2456,-5.2815,-5.3174,-5.3174,-5.3174,-5.3174,-5.3174,-5.3503,-5.4072,-5.4072,-5.4281,-5.464,-5.464,-5.485,-5.5179,-5.5179,-5.5179,-5.5179,-5.5179,-5.5179,-5.5179,-5.5179,-5.5179,-5.5179,-5.5179,-5.5179,-5.5179,-5.5179,-5.5179,-5.5179,-5.5179,-5.5179,-5.5179,-5.5179,-5.5179,-5.5179,-5.5179,-5.5179,-5.5179,-5.5179,-5.5179,-5.5179,-5.5179,-5.5179,-5.5059,-5.47,-5.464,-5.4401,-5.3743,-5.3623,-5.3384,-5.2725,-5.2636,-5.2366,-5.1708,-5.1648,-5.1528,-5.1259,-5.1229,-5.1229,-5.1229,-5.1229,-5.1229,-5.1229,-5.1229,-5.1229,-5.1229,-5.1229,-5.1229,-5.1229,-5.1229,-5.1229,-5.1229,-5.1229,-5.1229,0.0,0.0,0.0,0.0,0.0,0.0,0.0,0.0,0.0,0.0,0.0,0.0,0.0,0.0,0.0,0.0,0.0,0.0,0.0,0.0,0.0,0.0,0.0,0.0,0.0,0.0,0.0,-5.1229,-5.1229,-5.1229,-5.1229,-5.1229,-5.1229,-5.1229,-5.1229,-5.1229,-5.1229,-5.1708,-5.2187,-5.2665,-5.2665,-5.2665,-5.2665,-5.2665,-5.2665,-5.2695,-5.3025,-5.3473,-5.3952,-5.3952,-5.4251,-5.467,-5.467,-5.467,-5.47,-5.488,-5.494,-5.497,-5.5119,-5.5179,-5.5179,-5.5179,-5.5179,-5.5179,-5.5179,-5.5179,-5.5179,-5.5179,-5.5179,-5.5179,-5.5179,-5.5179,-5.5179,-5.5179,-5.5179,-5.5179,-5.5179,-5.5179,-5.5149,-5.497,-5.494,-5.473,-5.4072,-5.3952,-5.3713,-5.3025,-5.2935,-5.2695,-5.2037,-5.1947,-5.1768,-5.1259,-5.1229,-5.1229,-5.1229,-5.1229,-5.1229,-5.1229,-5.1229,-5.1229,-5.1229,-5.1229,-5.1229,-5.1229,-5.1229,-5.1229,-5.1229,-5.1229,-5.1229,-5.1229,-5.1229,-5.1229,0.0,0.0,0.0,0.0,0.0,0.0,0.0,0.0,0.0,0.0,0.0,0.0,0.0,0.0,0.0,0.0,0.0,0.0,0.0,0.0,0.0,0.0,0.0,0.0,0.0,0.0,0.0,-5.1229,-5.1229,-5.1229,-5.1229,-5.1229,-5.1229,-5.1229,-5.1229,-5.1229,-5.1229,-5.1259,-5.1289,-5.1319,-5.1319,-5.1319,-5.1319,-5.1319,-5.1319,-5.1379,-5.2636,-5.3204,-5.3234,-5.3234,-5.3264,-5.3294,-5.3294,-5.3294,-5.3354,-5.4012,-5.4251,-5.4341,-5.497,-5.5179,-5.5179,-5.5179,-5.5179,-5.5179,-5.5179,-5.5179,-5.5179,-5.5179,-5.5179,-5.5179,-5.5179,-5.5179,-5.5179,-5.5179,-5.5179,-5.5179,-5.5179,-5.5179,-5.4999,-5.4371,-5.4251,-5.4042,-5.3354,-5.3234,-5.2995,-5.2336,-5.2247,-5.2007,-5.1349,-5.1259,-5.1259,-5.1229,-5.1229,-5.1229,-5.1229,-5.1229,-5.1229,-5.1229,-5.1229,-5.1229,-5.1229,-5.1229,-5.1229,-5.1229,-5.1229,-5.1229,-5.1229,-5.1229,-5.1229,-5.1229,-5.1229,-5.1229,0.0,0.0,0.0,0.0,0.0,0.0,0.0,0.0,0.0,0.0,0.0,0.0,0.0,0.0,0.0,0.0,0.0,0.0,0.0,0.0,0.0,0.0,0.0,0.0,0.0,0.0,0.0,0.0,-5.1229,-5.1229,-5.1229,-5.1229,-5.1229,-5.1229,-5.1229,-5.1229,-5.1229,-5.1229,-5.1229,-5.1229,-5.1229,-5.1229,-5.1229,-5.1229,-5.1229,-5.1259,-5.1708,-5.2157,-5.2546,-5.2546,-5.2785,-5.3174,-5.3174,-5.3174,-5.3204,-5.3443,-5.3563,-5.3593,-5.3803,-5.3892,-5.3892,-5.3892,-5.3892,-5.3892,-5.3892,-5.3892,-5.3892,-5.3892,-5.3892,-5.3892,-5.3892,-5.3892,-5.3892,-5.3892,-5.3892,-5.3892,-5.3892,-5.4251,-5.4371,-5.3683,-5.3563,-5.3324,-5.2665,-5.2546,-5.2336,-5.1678,-5.1558,-5.1498,-5.1259,-5.1229,-5.1229,-5.1229,-5.1229,-5.1229,-5.1229,-5.1229,-5.1229,-5.1229,-5.1229,-5.1229,-5.1229,-5.1229,-5.1229,-5.1229,-5.1229,-5.1229,-5.1229,-5.1229,-5.1229,-5.1229,-5.1229,-5.1229,0.0,0.0,0.0,0.0,0.0,0.0,0.0,0.0,0.0,0.0,0.0,0.0,0.0,0.0,0.0,0.0,0.0,0.0,0.0,0.0,0.0,0.0,0.0,0.0,0.0,0.0,0.0,-5.1229,-5.1229,0.0,-5.1229,-5.1229,-5.1229,-5.1229,-5.1229,-5.1229,-5.1229,-5.1229,-5.1229,-5.1229,-5.1229,-5.1229,-5.1229,-5.1229,-5.1229,-5.1229,-5.1229,-5.1468,-5.1858,-5.1858,-5.2127,-5.2516,-5.2516,-5.2516,-5.2546,-5.2785,-5.2845,-5.2875,-5.3114,-5.3174,-5.3174,-5.3174,-5.3174,-5.3174,-5.3174,-5.3174,-5.3174,-5.3174,-5.3174,-5.3174,-5.3174,-5.3174,-5.3174,-5.3174,-5.3174,-5.3114,-5.2905,-5.3384,-5.3653,-5.2965,-5.2845,-5.2636,-5.1977,-5.1858,-5.1708,-5.1289,-5.1229,-5.1229,-5.1229,-5.1229,-5.1229,-5.1229,-5.1229,-5.1229,-5.1229,-5.1229,-5.1229,-5.1229,-5.1229,-5.1229,-5.1229,-5.1229,-5.1229,-5.1229,-5.1229,-5.1229,-5.1229,-5.1229,-5.1229,-5.1229,-5.1229,-5.1229,0.0,0.0,0.0,0.0,0.0,0.0,0.0,0.0,0.0,0.0,0.0,0.0,0.0,0.0,0.0,0.0,0.0,0.0,0.0,0.0,0.0,0.0,0.0,0.0,0.0,0.0,0.0,-5.1169,-5.1169,-5.1169,-5.1169,-5.1169,-5.1199,-5.1199,-5.1199,-5.1229,-5.1229,-5.1229,-5.1229,-5.1229,-5.1229,-5.1229,-5.1229,-5.1229,-5.1229,-5.1229,-5.1229,-5.1229,-5.1229,-5.1229,-5.1229,-5.1229,-5.1229,-5.1229,-5.1289,-5.1947,-5.2187,-5.2247,-5.2905,-5.3114,-5.3114,-5.3114,-5.3114,-5.3114,-5.3114,-5.3114,-5.3114,-5.3114,-5.3114,-5.3114,-5.3114,-5.3114,-5.3114,-5.3114,-5.3114,-5.2935,-5.2306,-5.2665,-5.2935,-5.2306,-5.2187,-5.1977,-5.1319,-5.1229,-5.1229,-5.1229,-5.1229,-5.1229,-5.1229,-5.1229,-5.1229,-5.1229,-5.1229,-5.1229,-5.1229,-5.1229,-5.1229,-5.1229,-5.1229,-5.1229,-5.1229,-5.1229,-5.1229,-5.1229,-5.1229,-5.1229,-5.1229,-5.1229,-5.1229,-5.1229,-5.1229,-5.1229,-4.7309,0.0,0.0,0.0,0.0,0.0,0.0,0.0,0.0,0.0,0.0,0.0,0.0,0.0,0.0,0.0,0.0,0.0,0.0,0.0,0.0,0.0,0.0,0.0,0.0,0.0,-4.9823,0.0,-4.9823,-4.9823,-4.9823,-5.0242,-5.0465,-5.0465,-5.0913,-5.1229,-5.1229,-5.1229,-5.1229,-5.1229,-5.1229,-5.1229,-5.1229,-5.1229,-5.1229,-5.1229,-5.1229,-5.1229,-5.1229,-5.1229,-5.1229,-5.1229,-5.1229,-5.1229,-5.1229,-5.1439,-5.1498,-5.1498,-5.1708,-5.1768,-5.1768,-5.1768,-5.1768,-5.1768,-5.1768,-5.1768,-5.1768,-5.1768,-5.1768,-5.1768,-5.1768,-5.1768,-5.1768,-5.1768,-5.1768,-5.1708,-5.1528,-5.1618,-5.1708,-5.1528,-5.1498,-5.1439,-5.1259,-5.1229,-5.1229,-5.1229,-5.1229,-5.1229,-5.1229,-5.1229,-5.1229,-5.1229,-5.1229,-5.1229,-5.1229,-5.1229,-5.1229,-5.1229,-5.1229,-5.1229,-5.1229,-5.1229,-5.1229,-5.1229,-5.1229,-5.1229,-5.1229,-5.1229,-5.1229,-5.1229,-5.1229,-5.1229,-4.7309,0.0,0.0,0.0,0.0,0.0,-4.7309,-4.7309,0.0,0.0,0.0,0.0,0.0,0.0,0.0,0.0,0.0,0.0,0.0,0.0,0.0,0.0,0.0,0.0,0.0,-4.9299,-4.9299,-4.9299,-4.9299,-4.9299,-4.9299,-4.9613,-4.9823,-4.9823,-5.0212,-5.0391,-5.0391,-5.0661,-5.0764,-5.0764,-5.1079,-5.1229,-5.1229,-5.1229,-5.1229,-5.1229,-5.1229,-5.1229,-5.1229,-5.1229,-5.1229,-5.1229,-5.1229,-5.1229,-5.1229,-5.1229,-5.1229,-5.1229,-5.1229,-5.1229,-5.1229,-5.1229,-5.1229,-5.1229,-5.1229,-5.1229,-5.1229,-5.1229,-5.1229,-5.1229,-5.1229,-5.1229,-5.1229,-5.1229,-5.1229,-5.1229,-5.1229,-5.1229,-5.1229,-5.1229,-5.1229,-5.1229,-5.1229,-5.1229,-5.1229,-5.1229,-5.1229,-5.1229,-5.1229,-5.1229,-5.1229,-5.1229,-5.1229,-5.1229,-5.1229,-5.1229,-5.1229,-5.1229,-5.1229,-5.1229,-5.1229,-5.1229,-5.1229,-5.1229,-5.096,-5.0661,-5.0391,-5.096,-5.1079,-5.0764,-5.0541,-5.0391,0.0,-4.7309,-4.7309,0.0,0.0,0.0,-4.7309,-4.7309,-4.7309,0.0,0.0,0.0,0.0,0.0,0.0,0.0,0.0,0.0,0.0,0.0,0.0,0.0,0.0,0.0,-4.903,-4.909,-4.909,-4.909,-4.909,-4.909,-4.909,-4.9179,-4.9209,-4.9209,-4.9269,-4.9299,-4.9299,-4.9853,-5.0076,-5.0106,-5.0734,-5.1109,-5.1109,-5.1199,-5.1229,-5.1229,-5.1229,-5.1229,-5.1229,-5.1229,-5.1229,-5.1229,-5.1229,-5.1229,-5.1229,-5.1229,-5.1229,-5.1229,-5.1229,-5.1229,-5.1229,-5.1229,-5.1229,-5.1229,-5.1229,-5.1229,-5.1229,-5.1229,-5.1229,-5.1229,-5.1229,-5.1229,-5.1229,-5.1229,-5.1229,-5.1229,-5.1229,-5.1229,-5.1229,-5.1229,-5.1229,-5.1229,-5.1229,-5.1229,-5.1229,-5.1229,-5.1229,-5.1229,-5.1229,-5.1229,-5.1229,-5.1229,-5.1229,-5.1229,-5.1229,-5.1229,-5.1229,-5.1229,-5.1229,-5.1229,-5.1229,-5.1139,-5.1109,-5.1109,-5.0435,-4.9853,-4.9299,-5.0451,-5.069,-5.0076,-4.9523,-4.9299,0.0,0.0,0.0,0.0,-4.7309,0.0,-4.7309,-4.7309,-4.7309,0.0,0.0,0.0,0.0,0.0,0.0,0.0,0.0,0.0,0.0,0.0,0.0,0.0,0.0,0.0,-4.7668,-4.7698,-4.7698,-4.7698,-4.7698,-4.7698,-4.7698,-4.8177,-4.8476,-4.8476,-4.903,-4.9299,-4.9299,-4.9449,-4.9464,-4.9464,-5.0122,-5.0375,-5.0405,-5.0913,-5.1229,-5.1229,-5.1229,-5.1229,-5.1229,-5.1229,-5.1229,-5.1229,-5.1229,-5.1229,-5.1229,-5.1229,-5.1229,-5.1229,-5.1229,-5.1229,-5.1229,-5.1229,-5.1229,-5.1229,-5.1229,-5.1229,-5.1229,-5.1229,-5.1229,-5.1229,-5.1229,-5.1229,-5.1229,-5.1229,-5.1229,-5.1229,-5.1229,-5.1229,-5.1229,-5.1229,-5.1229,-5.1229,-5.1229,-5.1229,-5.1229,-5.1229,-5.1229,-5.1229,-5.1229,-5.1229,-5.1229,-5.1229,-5.1229,-5.1229,-5.1229,-5.1229,-5.1229,-5.1229,-5.1229,-5.1229,-5.1229,-5.0674,-5.0375,-5.0375,-4.9793,-4.9449,-4.9299,-4.9569,-4.9583,-4.9464,-4.9359,-4.9299,0.0,0.0,0.0,-4.7309,-4.7309,0.0,0.0,-4.7309,-4.7309,0.0,0.0,0.0,0.0,0.0,0.0,0.0,0.0,0.0,0.0,0.0,0.0,0.0,0.0,0.0,-4.7309,-4.7309,-4.7309,-4.7309,-4.7309,-4.7309,-4.7309,-4.7608,-4.7788,-4.7788,-4.8117,-4.8297,-4.8297,-4.8626,-4.882,-4.882,-4.9434,-4.9763,-4.9763,-5.0421,-5.0674,-5.0704,-5.1079,-5.1229,-5.1229,-5.1229,-5.1229,-5.1229,-5.1229,-5.1229,-5.1229,-5.1229,-5.1229,-5.1229,-5.1229,-5.1229,-5.1229,-5.1229,-5.1229,-5.1229,-5.1229,-5.1229,-5.1229,-5.1229,-5.1229,-5.1229,-5.1229,-5.1229,-5.1229,-5.1229,-5.1229,-5.1229,-5.1229,-5.1229,-5.1229,-5.1229,-5.1229,-5.1229,-5.1229,-5.1229,-5.1229,-5.1229,-5.1229,-5.1229,-5.1229,-5.1229,-5.1229,-5.1229,-5.1229,-5.1229,-5.1229,-5.1229,-5.1229,-5.1229,-5.0853,-5.0674,-5.0674,-5.0092,-4.9613,-4.9284,-4.8955,-4.8626,-4.8297,-4.8297,-4.8446,-4.882,-4.8446,-4.8297,0.0,0.0,0.0,0.0,0.0,-4.7309,0.0,0.0,0.0,0.0,0.0,0.0,0.0,0.0,0.0,0.0,0.0,0.0,0.0,0.0,0.0,0.0,0.0,0.0,-4.7309,-4.7309,-4.7309,-4.7309,-4.7309,-4.7309,-4.7309,-4.7309,-4.7309,-4.7309,-4.7309,-4.7309,-4.7309,-4.7848,-4.8087,-4.8117,-4.882,-4.912,-4.9149,-4.9763,-5.0016,-5.0046,-5.0704,-5.0973,-5.105,-5.1169,-5.1229,-5.1229,-5.1229,-5.1229,-5.1229,-5.1229,-5.1229,-5.1229,-5.1229,-5.1229,-5.1229,-5.1229,-5.1229,-5.1229,-5.1229,-5.1229,-5.1229,-5.1229,-5.1229,-5.1229,-5.1229,-5.1229,-5.1229,-5.1229,-5.1229,-5.1229,-5.1229,-5.1229,-5.1229,-5.1229,-5.1229,-5.1229,-5.1229,-5.1229,-5.1229,-5.1229,-5.1229,-5.1229,-5.1229,-5.1229,-5.1229,-5.1229,-5.1229,-5.1169,-5.105,-5.0973,-5.099,-5.084,-5.0361,-5.0016,-5.0016,-4.9434,-4.882,-4.8117,-4.8087,-4.7848,-4.7309,-4.7309,-4.7578,-4.8087,-4.7549,-4.7309,0.0,0.0,0.0,0.0,-4.7309,-4.7309,0.0,0.0,-4.7309,-4.7309,0.0,0.0,0.0,0.0,0.0,0.0,0.0,0.0,0.0,0.0,0.0,0.0,0.0,0.0,-4.7309,-4.7309,-4.7309,-4.7309,-4.7309,-4.7309,-4.7309,-4.7309,-4.7309,-4.7309,-4.7309,-4.7309,-4.7309,-4.7369,-4.7429,-4.7429,-4.8087,-4.8386,-4.8416,-4.912,-4.9419,-4.9404,-5.0062,-5.0315,-5.0345,-5.0913,-5.1229,-5.1229,-5.1229,-5.1229,-5.1229,-5.1229,-5.1229,-5.1229,-5.1229,-5.1229,-5.1229,-5.1229,-5.1229,-5.1229,-5.1229,-5.1229,-5.1229,-5.1229,-5.1229,-5.1229,-5.1229,-5.1229,-5.1229,-5.1229,-5.1229,-5.1229,-5.1229,-5.1229,-5.1229,-5.1229,-5.1229,-5.1229,-5.1229,-5.1229,-5.1229,-5.1229,-5.1229,-5.1229,-5.1229,-5.1229,-5.1229,-5.1229,-5.1229,-5.0943,-5.0345,-5.0315,-5.0092,-4.9569,-4.9404,-4.9419,-4.9419,-4.8745,-4.8087,-4.7429,-4.7429,-4.7369,-4.7309,-4.7309,-4.7339,-4.7429,-4.7339,-4.7309,0.0,0.0,0.0,0.0,0.0,0.0,-4.7409,-4.7309,-4.7309,-4.7309,0.0,0.0,0.0,0.0,0.0,0.0,-4.713,0.0,0.0,0.0,0.0,0.0,0.0,0.0,-4.7309,-4.7309,-4.7309,-4.7309,-4.7309,-4.7309,-4.7309,-4.7309,-4.7309,-4.7309,-4.7309,-4.7309,-4.7309,-4.7309,-4.7309,-4.7309,-4.7578,-4.7728,-4.7728,-4.8386,-4.8686,-4.8745,-4.9404,-4.9673,-4.9733,-5.0391,-5.0614,-5.0644,-5.1079,-5.1229,-5.1229,-5.1229,-5.1229,-5.1229,-5.1229,-5.1229,-5.1229,-5.1229,-5.1229,-5.1229,-5.1229,-5.1229,-5.1229,-5.1229,-5.1229,-5.1229,-5.1229,-5.1229,-5.1229,-5.1229,-5.1229,-5.1229,-5.1229,-5.1229,-5.1229,-5.1229,-5.1229,-5.1229,-5.1229,-5.1229,-5.1229,-5.1229,-5.1229,-5.1229,-5.1229,-5.0853,-5.0614,-5.0614,-5.0301,-4.9972,-4.9703,-4.9673,-4.9553,-4.9329,-4.894,-4.8536,-4.8147,-4.7878,-4.7578,-4.7309,-4.7309,-4.7309,-4.7309,-4.7309,-4.7309,-4.7309,-4.7309,-4.7309,-4.7892,0.0,0.0,0.0,0.0,-4.8512,-4.7538,-4.7309,-4.7309,-4.7309,-4.7309,0.0,0.0,0.0,-4.7249,-4.707,0.0,-4.7249,0.0,0.0,0.0,0.0,0.0,0.0,0.0,-4.7309,-4.7309,-4.7309,-4.7309,-4.7309,-4.7309,-4.7309,-4.7309,-4.7309,-4.7309,-4.7309,-4.7309,-4.7309,-4.7309,-4.7309,-4.7309,-4.7309,-4.7309,-4.7788,-4.8027,-4.8057,-4.8716,-4.906,-4.9045,-4.9703,-4.9972,-5.0002,-5.0511,-5.069,-5.072,-5.1079,-5.1229,-5.1229,-5.1229,-5.1229,-5.1229,-5.1229,-5.1229,-5.1229,-5.1229,-5.1229,-5.1229,-5.1229,-5.1229,-5.1229,-5.1229,-5.1229,-5.1229,-5.1229,-5.1229,-5.1229,-5.1229,-5.1229,-5.1229,-5.1229,-5.1229,-5.1169,-5.0943,-5.1109,-5.1169,-5.0913,-5.096,-5.09,-5.072,-5.0272,-4.9972,-4.9972,-4.9553,-4.9239,-4.906,-4.906,-4.897,-4.8745,-4.8297,-4.7818,-4.7339,-4.7309,-4.7309,-4.7309,-4.7309,-4.7309,-4.7309,-4.7309,-4.7309,-4.7309,-4.7309,-4.7309,-4.9296,-4.9536,-4.9852,-4.7807,-4.8072,-4.8512,-4.7538,-4.7309,-4.7309,-4.7309,-4.7309,-4.7309,-4.7309,-4.7309,-4.71,-4.6471,-4.689,0.0,0.0,0.0,0.0,0.0,0.0,0.0,0.0,-4.7309,-4.7309,-4.7309,-4.7309,-4.7309,-4.7309,-4.7309,-4.7309,-4.7309,-4.7309,-4.7309,-4.7309,-4.7309,-4.7309,-4.7309,-4.7309,-4.7309,-4.7309,-4.7339,-4.7339,-4.7369,-4.8027,-4.8327,-4.8356,-4.906,-4.9329,-4.9329,-4.9359,-4.9359,-4.9539,-5.075,-5.1229,-5.1229,-5.1229,-5.1229,-5.1229,-5.1229,-5.1229,-5.1229,-5.1229,-5.1229,-5.1229,-5.1229,-5.1229,-5.1229,-5.1229,-5.1229,-5.1229,-5.1229,-5.1229,-5.1229,-5.1229,-5.1229,-5.1229,-5.1229,-5.1229,-5.0973,-5.0345,-5.0764,-5.099,-5.0315,-5.0226,-5.0032,-4.9449,-4.9359,-4.9329,-4.9329,-4.9329,-4.906,-4.8386,-4.8327,-4.8057,-4.7399,-4.7339,-4.7339,-4.7309,-4.7309,-4.7309,-4.7309,-4.7309,-4.7309,-4.7309,-4.7309,-4.7309,-4.7309,-4.7309,-4.7309,-5.0048,-5.0627,-5.1043,-4.9694,-4.9615,-4.9773,-4.9447,-4.8282,-4.7495,-4.8157,-4.8293,-4.8293,-4.8293,-4.8293,-4.8232,-4.7987,-4.757,-4.7219,0.0,0.0,0.0,0.0,0.0,0.0,0.0,0.0,0.0,-4.7309,-4.7309,-4.7309,-4.7309,-4.7309,-4.7309,-4.7309,-4.7309,-4.7309,-4.7309,-4.7309,-4.7309,-4.7309,-4.7309,-4.7309,-4.7309,-4.7309,-4.7309,-4.7309,-4.7549,-4.7638,-4.7698,-4.8356,-4.8626,-4.8656,-4.9149,-4.9299,-4.9359,-4.9763,-4.9912,-4.9912,-4.9912,-4.9912,-4.9912,-4.9912,-4.9912,-4.9912,-4.9912,-4.9912,-4.9912,-4.9912,-5.0242,-5.0435,-5.0032,-5.0242,-5.0451,-5.0032,-4.9912,-4.9912,-4.9912,-4.9912,-4.9912,-4.9912,-4.9912,-4.9853,-4.9643,-4.9763,-4.9853,-4.9643,-4.9583,-4.9523,-4.9329,-4.894,-4.8626,-4.8626,-4.8237,-4.7878,-4.7668,-4.7638,-4.7549,-4.7309,-4.7309,-4.7309,-4.7309,-4.7309,-4.7309,-4.7309,-4.7309,-4.7309,-4.7309,-4.7309,-4.7309,-4.7309,-4.7309,-4.7309,-5.1043,-5.1704,-5.2134,-5.0741,-5.0665,-5.0817,-5.0474,-4.9367,-4.8584,-4.9215,-4.9376,-4.9376,-4.9376,-4.9376,-4.9376,-4.9376,-4.8501,-4.7722,0.0,-4.7309,0.0,0.0,0.0,0.0,0.0,0.0,-4.7309,-4.7309,-4.7309,-4.7309,0.0,-4.7309,-4.7309,-4.7309,-4.7309,-4.7309,-4.7309,-4.7309,-4.7309,-4.7309,-4.7309,-4.7309,-4.7309,-4.7309,-4.7309,-4.7309,-4.7309,-4.7309,-4.7339,-4.7758,-4.7938,-4.7967,-4.8416,-4.8566,-4.8626,-4.9149,-4.9299,-4.9299,-4.9299,-4.9299,-4.9299,-4.9299,-4.9299,-4.9299,-4.9299,-4.9299,-4.9359,-4.9553,-4.9763,-4.9853,-4.9673,-4.9763,-4.9793,-4.9419,-4.9299,-4.9299,-4.9299,-4.9299,-4.9299,-4.9299,-4.9299,-4.9239,-4.9,-4.897,-4.897,-4.897,-4.897,-4.888,-4.8596,-4.8207,-4.7938,-4.7938,-4.7549,-4.7452,-4.7807,-4.7849,-4.7849,-4.7849,-4.7849,-4.7679,-4.7309,-4.7309,-4.7429,-4.7638,-4.7429,-4.7429,-4.7668,-4.7429,-4.7309,-4.7309,-4.7309,-4.7309]},{"header":{"parameterUnit":"m.s-1","parameterCategory":1,"la1":30.6,"la2":29.2853,"lo1":-89.7004,"lo2":-87.6739,"dy":0.0162,"dx":0.0183,"nx":112,"ny":82,"refTime":"2023-08-07T06:00:00:Z","depth":0,"parameterNumber":3,"parameterNumberName":"V-component_of_WINDS"},"data":[0.0,0.0,0.0,0.0,0.0,0.0,0.0,0.0,0.0,0.0,0.0,0.0,0.0,0.0,0.0,0.0,0.0,0.0,0.0,0.0,0.0,0.0,0.0,0.0,0.0,0.0,0.0,0.0,0.0,0.0,0.0,0.0,0.0,0.0,0.0,0.0,0.0,0.0,0.0,0.0,0.0,0.0,0.0,0.0,0.0,0.0,0.0,0.0,0.0,0.0,0.0,0.0,0.0,0.0,0.0,0.0,0.0,0.0,0.0,0.0,0.0,0.0,0.0,0.0,0.0,0.0,0.0,0.0,0.0,0.0,0.0,0.0,0.0,0.0,0.0,0.0,0.0,0.0,0.0,0.0,0.0,0.0,0.0,0.0,0.0,0.0,0.0,0.0,0.0,0.0,-3.9697,-3.9697,-3.9697,-3.9697,-3.9697,-3.9697,-3.9697,-3.9697,0.0,0.0,0.0,0.0,0.0,0.0,0.0,0.0,0.0,0.0,0.0,0.0,0.0,0.0,0.0,0.0,0.0,0.0,0.0,0.0,0.0,0.0,0.0,0.0,0.0,0.0,0.0,0.0,0.0,0.0,0.0,0.0,0.0,0.0,0.0,0.0,0.0,0.0,0.0,0.0,0.0,0.0,0.0,0.0,0.0,0.0,0.0,0.0,0.0,0.0,0.0,0.0,0.0,0.0,0.0,0.0,0.0,0.0,0.0,0.0,0.0,0.0,0.0,0.0,0.0,0.0,0.0,0.0,0.0,0.0,0.0,0.0,0.0,0.0,0.0,0.0,0.0,0.0,0.0,0.0,0.0,0.0,0.0,0.0,0.0,0.0,0.0,0.0,0.0,0.0,0.0,0.0,0.0,0.0,0.0,0.0,0.0,0.0,0.0,0.0,0.0,0.0,0.0,0.0,-3.9697,-3.9697,-3.9697,-3.9697,-3.9697,-3.9697,-3.9697,-3.9697,0.0,0.0,0.0,0.0,0.0,0.0,0.0,0.0,0.0,0.0,0.0,0.0,0.0,0.0,0.0,0.0,0.0,0.0,0.0,0.0,0.0,0.0,0.0,0.0,0.0,0.0,0.0,0.0,0.0,0.0,0.0,0.0,0.0,0.0,0.0,0.0,0.0,0.0,0.0,0.0,0.0,0.0,0.0,0.0,0.0,0.0,0.0,0.0,0.0,0.0,0.0,0.0,0.0,0.0,0.0,0.0,0.0,0.0,0.0,0.0,0.0,0.0,0.0,0.0,0.0,0.0,0.0,0.0,0.0,0.0,0.0,0.0,0.0,0.0,0.0,0.0,0.0,0.0,0.0,0.0,0.0,0.0,0.0,0.0,0.0,0.0,0.0,0.0,0.0,0.0,0.0,0.0,0.0,0.0,0.0,0.0,0.0,0.0,0.0,0.0,0.0,0.0,0.0,-3.9697,-3.9697,-3.9697,-3.9697,-3.9697,-3.9697,-3.9697,-3.9697,-3.9697,-3.9697,0.0,0.0,0.0,0.0,0.0,0.0,0.0,0.0,0.0,0.0,0.0,0.0,0.0,0.0,0.0,0.0,0.0,0.0,0.0,0.0,0.0,0.0,0.0,0.0,0.0,0.0,0.0,0.0,0.0,0.0,0.0,0.0,0.0,0.0,0.0,0.0,0.0,0.0,0.0,0.0,0.0,0.0,0.0,0.0,0.0,0.0,0.0,0.0,0.0,0.0,0.0,0.0,0.0,0.0,0.0,0.0,0.0,0.0,0.0,0.0,0.0,0.0,0.0,0.0,0.0,0.0,0.0,0.0,0.0,0.0,0.0,0.0,0.0,0.0,0.0,0.0,0.0,0.0,0.0,0.0,0.0,0.0,0.0,0.0,0.0,0.0,0.0,0.0,0.0,0.0,0.0,0.0,0.0,0.0,0.0,0.0,0.0,0.0,0.0,0.0,0.0,0.0,-3.9697,-3.9697,-3.9697,-3.9697,-3.9697,-3.9697,-3.9697,-3.9697,-3.9697,-3.9697,0.0,0.0,0.0,0.0,0.0,0.0,0.0,0.0,0.0,0.0,0.0,0.0,0.0,0.0,0.0,0.0,0.0,0.0,0.0,0.0,0.0,0.0,0.0,0.0,0.0,0.0,0.0,0.0,0.0,0.0,0.0,0.0,0.0,0.0,0.0,0.0,0.0,0.0,0.0,0.0,0.0,0.0,0.0,0.0,0.0,0.0,0.0,0.0,0.0,0.0,0.0,0.0,0.0,0.0,0.0,0.0,0.0,0.0,0.0,0.0,0.0,0.0,0.0,0.0,0.0,0.0,0.0,0.0,0.0,0.0,0.0,0.0,0.0,0.0,0.0,0.0,0.0,0.0,0.0,0.0,0.0,0.0,0.0,0.0,0.0,0.0,0.0,0.0,0.0,0.0,0.0,0.0,0.0,0.0,0.0,0.0,0.0,0.0,0.0,0.0,0.0,0.0,-3.9697,-3.9697,-3.9697,-3.9697,-3.9697,-3.9697,-3.9697,-3.9697,-3.9697,-3.9697,0.0,0.0,0.0,0.0,0.0,0.0,0.0,0.0,0.0,0.0,0.0,0.0,0.0,0.0,0.0,0.0,0.0,0.0,0.0,0.0,0.0,0.0,0.0,0.0,0.0,0.0,0.0,0.0,0.0,0.0,0.0,0.0,0.0,0.0,0.0,0.0,0.0,0.0,0.0,0.0,0.0,0.0,0.0,0.0,0.0,0.0,0.0,0.0,0.0,0.0,0.0,0.0,0.0,0.0,0.0,0.0,0.0,0.0,0.0,0.0,0.0,0.0,0.0,0.0,0.0,0.0,0.0,0.0,0.0,0.0,0.0,0.0,0.0,0.0,0.0,0.0,0.0,0.0,0.0,0.0,0.0,0.0,0.0,0.0,0.0,0.0,0.0,0.0,0.0,0.0,0.0,0.0,0.0,0.0,0.0,0.0,0.0,0.0,0.0,0.0,0.0,0.0,-3.9697,-3.9697,-3.9697,-3.9697,-3.9697,-3.9697,-3.9697,-3.9697,-3.9697,0.0,0.0,0.0,0.0,0.0,0.0,0.0,0.0,0.0,0.0,0.0,0.0,0.0,0.0,0.0,0.0,0.0,0.0,0.0,0.0,0.0,0.0,0.0,0.0,0.0,0.0,0.0,0.0,0.0,0.0,0.0,0.0,0.0,0.0,0.0,0.0,0.0,0.0,0.0,0.0,0.0,0.0,0.0,0.0,0.0,0.0,0.0,0.0,0.0,0.0,0.0,0.0,0.0,0.0,0.0,0.0,0.0,0.0,0.0,0.0,0.0,0.0,0.0,0.0,0.0,0.0,0.0,0.0,0.0,0.0,0.0,0.0,0.0,0.0,0.0,0.0,0.0,0.0,0.0,0.0,0.0,0.0,0.0,0.0,0.0,0.0,0.0,0.0,0.0,0.0,0.0,0.0,0.0,0.0,0.0,0.0,0.0,0.0,0.0,0.0,0.0,0.0,-3.9697,-3.9697,-3.9697,-3.9697,-3.9697,-3.9697,-3.9697,-3.9697,-3.9697,-3.9697,0.0,0.0,0.0,0.0,0.0,0.0,0.0,0.0,0.0,0.0,0.0,0.0,0.0,0.0,0.0,0.0,0.0,0.0,0.0,0.0,0.0,0.0,0.0,0.0,0.0,0.0,0.0,0.0,0.0,0.0,0.0,0.0,0.0,0.0,0.0,0.0,0.0,0.0,0.0,0.0,0.0,0.0,0.0,0.0,0.0,0.0,0.0,0.0,0.0,0.0,0.0,0.0,0.0,0.0,0.0,0.0,0.0,0.0,0.0,0.0,0.0,0.0,0.0,0.0,0.0,0.0,0.0,0.0,0.0,0.0,0.0,0.0,0.0,0.0,0.0,0.0,0.0,0.0,0.0,0.0,0.0,0.0,0.0,0.0,0.0,0.0,0.0,0.0,0.0,0.0,0.0,0.0,0.0,0.0,0.0,0.0,0.0,0.0,0.0,0.0,0.0,0.0,-3.9697,-3.9697,-3.9697,-3.9697,-3.9697,-3.9697,-3.9697,-3.9697,-3.9697,0.0,0.0,0.0,0.0,0.0,0.0,0.0,0.0,0.0,0.0,0.0,0.0,0.0,0.0,0.0,0.0,0.0,0.0,0.0,0.0,0.0,0.0,0.0,0.0,0.0,0.0,0.0,0.0,0.0,0.0,0.0,0.0,0.0,0.0,0.0,0.0,0.0,0.0,0.0,0.0,0.0,0.0,0.0,0.0,0.0,0.0,0.0,0.0,0.0,0.0,0.0,0.0,0.0,0.0,0.0,0.0,0.0,0.0,0.0,0.0,0.0,0.0,0.0,0.0,0.0,0.0,0.0,0.0,0.0,0.0,0.0,0.0,0.0,0.0,0.0,0.0,0.0,0.0,0.0,0.0,0.0,0.0,0.0,0.0,0.0,0.0,0.0,0.0,0.0,0.0,0.0,0.0,0.0,0.0,0.0,0.0,0.0,0.0,0.0,0.0,0.0,0.0,0.0,-4.0224,-4.0275,-4.0275,-4.0275,-4.0275,-4.0275,-4.0275,-3.9923,-3.9697,-3.9697,0.0,0.0,0.0,0.0,0.0,0.0,0.0,0.0,0.0,0.0,0.0,0.0,0.0,0.0,0.0,0.0,0.0,0.0,0.0,0.0,0.0,0.0,0.0,0.0,0.0,0.0,0.0,0.0,0.0,0.0,0.0,0.0,0.0,0.0,0.0,0.0,0.0,0.0,0.0,0.0,0.0,0.0,0.0,0.0,0.0,0.0,0.0,0.0,0.0,0.0,0.0,0.0,0.0,0.0,0.0,0.0,0.0,0.0,0.0,0.0,0.0,0.0,0.0,0.0,0.0,0.0,0.0,0.0,0.0,0.0,0.0,0.0,0.0,0.0,0.0,0.0,0.0,0.0,0.0,0.0,0.0,0.0,0.0,0.0,0.0,0.0,0.0,0.0,0.0,0.0,0.0,0.0,0.0,0.0,0.0,0.0,0.0,0.0,0.0,0.0,0.0,0.0,-4.0802,-4.0852,-4.0852,-4.0852,-4.0852,-4.0852,-4.0852,-4.0551,-4.0249,-4.0049,0.0,0.0,0.0,0.0,0.0,0.0,0.0,0.0,0.0,0.0,0.0,0.0,0.0,0.0,0.0,0.0,0.0,0.0,0.0,0.0,0.0,0.0,0.0,0.0,0.0,0.0,0.0,0.0,0.0,0.0,0.0,0.0,0.0,0.0,0.0,0.0,0.0,0.0,0.0,0.0,0.0,0.0,0.0,0.0,0.0,0.0,0.0,0.0,0.0,0.0,0.0,0.0,0.0,0.0,0.0,0.0,0.0,0.0,0.0,0.0,0.0,0.0,0.0,0.0,0.0,0.0,0.0,0.0,0.0,0.0,0.0,0.0,0.0,0.0,0.0,0.0,0.0,0.0,0.0,0.0,0.0,0.0,0.0,0.0,0.0,0.0,0.0,0.0,0.0,0.0,0.0,0.0,0.0,0.0,0.0,0.0,0.0,0.0,0.0,0.0,0.0,0.0,-4.1351,-4.1351,-4.1351,-4.1351,-4.1351,-4.1351,-4.1351,-4.13,-4.1075,-4.0626,0.0,0.0,0.0,0.0,0.0,0.0,0.0,0.0,0.0,0.0,0.0,0.0,0.0,0.0,0.0,0.0,0.0,0.0,0.0,0.0,0.0,0.0,0.0,0.0,0.0,0.0,0.0,0.0,0.0,0.0,0.0,0.0,0.0,0.0,0.0,0.0,0.0,0.0,0.0,0.0,0.0,0.0,0.0,0.0,0.0,0.0,0.0,0.0,0.0,0.0,0.0,0.0,0.0,0.0,0.0,0.0,0.0,0.0,0.0,0.0,-4.3266,-4.3929,0.0,0.0,0.0,0.0,0.0,0.0,0.0,0.0,0.0,0.0,0.0,0.0,0.0,0.0,0.0,0.0,0.0,0.0,0.0,0.0,0.0,0.0,0.0,0.0,0.0,0.0,0.0,0.0,0.0,0.0,0.0,0.0,0.0,0.0,0.0,0.0,0.0,0.0,0.0,0.0,-4.1932,-4.2037,-4.2037,-4.2037,-4.2037,-4.2037,-4.2037,-4.158,-4.1225,-4.1125,-4.0752,0.0,0.0,0.0,0.0,0.0,0.0,0.0,0.0,0.0,0.0,0.0,0.0,0.0,0.0,0.0,0.0,0.0,0.0,0.0,0.0,0.0,0.0,0.0,0.0,0.0,0.0,0.0,0.0,0.0,0.0,0.0,0.0,0.0,0.0,0.0,0.0,0.0,0.0,0.0,0.0,0.0,0.0,0.0,0.0,0.0,0.0,0.0,0.0,0.0,0.0,0.0,0.0,0.0,0.0,0.0,0.0,0.0,0.0,0.0,-4.5487,-4.5343,0.0,0.0,0.0,0.0,0.0,0.0,0.0,0.0,0.0,0.0,0.0,0.0,0.0,0.0,0.0,0.0,0.0,0.0,0.0,0.0,0.0,0.0,0.0,0.0,0.0,0.0,0.0,0.0,0.0,0.0,0.0,0.0,0.0,0.0,0.0,0.0,0.0,0.0,0.0,0.0,-4.2564,-4.2615,-4.2615,-4.2615,-4.2615,-4.2615,-4.2615,-4.2283,-4.2007,-4.1756,-4.1455,0.0,0.0,0.0,0.0,0.0,0.0,0.0,0.0,0.0,0.0,0.0,0.0,0.0,0.0,0.0,0.0,0.0,0.0,0.0,0.0,0.0,0.0,0.0,0.0,0.0,0.0,0.0,0.0,0.0,0.0,0.0,0.0,0.0,0.0,0.0,0.0,0.0,0.0,0.0,0.0,0.0,0.0,0.0,0.0,0.0,0.0,0.0,0.0,0.0,0.0,0.0,0.0,0.0,-4.7638,-4.7638,-4.7668,-4.8207,-4.8446,-4.8416,-4.7878,-4.7081,-4.6053,-4.6053,0.0,0.0,0.0,0.0,0.0,0.0,0.0,0.0,0.0,0.0,0.0,0.0,0.0,0.0,0.0,0.0,0.0,0.0,0.0,0.0,0.0,0.0,-4.148,-4.148,-4.1501,-4.163,-4.163,0.0,0.0,0.0,0.0,0.0,0.0,0.0,0.0,0.0,0.0,0.0,-4.2986,-4.2986,-4.2986,-4.2986,-4.2986,-4.2986,-4.2986,-4.2986,-4.2841,-4.2389,-4.2263,-4.181,0.0,0.0,0.0,0.0,0.0,0.0,0.0,0.0,0.0,0.0,0.0,0.0,0.0,0.0,0.0,0.0,0.0,0.0,0.0,0.0,0.0,0.0,0.0,0.0,0.0,0.0,0.0,0.0,0.0,0.0,0.0,0.0,-4.6606,-4.6695,0.0,0.0,0.0,0.0,0.0,0.0,0.0,0.0,0.0,0.0,0.0,0.0,0.0,-4.7578,-4.8147,-4.8147,-4.8446,-4.906,-4.906,-4.906,-4.906,-4.9149,-4.9179,-4.9179,-4.909,0.0,-4.8805,-4.8805,0.0,0.0,0.0,0.0,0.0,0.0,0.0,0.0,0.0,0.0,0.0,0.0,0.0,0.0,0.0,0.0,0.0,0.0,0.0,0.0,0.0,0.0,-4.2112,-4.2112,-4.2409,-4.276,-4.276,-4.2007,-4.148,-4.1957,-4.2112,-4.2263,0.0,0.0,0.0,0.0,0.0,0.0,-4.2986,-4.2986,-4.2986,-4.2986,-4.2986,-4.2986,-4.2986,-4.2986,-4.2936,-4.2861,-4.2464,-4.2137,-4.2011,-4.148,0.0,0.0,0.0,0.0,0.0,0.0,0.0,0.0,0.0,0.0,0.0,0.0,0.0,0.0,0.0,0.0,0.0,0.0,0.0,0.0,0.0,0.0,0.0,0.0,0.0,0.0,0.0,0.0,0.0,-4.6797,-4.7309,-4.7309,-4.7309,-4.7309,0.0,0.0,0.0,0.0,0.0,0.0,0.0,0.0,0.0,-4.7848,-4.8207,-4.8536,-4.888,-4.888,-4.903,-4.9299,-4.9299,-4.9299,-4.9329,-4.9643,-4.9823,-4.9823,-5.0212,-5.0361,-5.0301,-4.9629,-4.8953,-4.8466,0.0,0.0,0.0,0.0,-4.552,-4.3807,-4.3645,-4.3494,-4.3325,-4.3016,0.0,0.0,0.0,0.0,0.0,0.0,0.0,-4.2258,-4.2258,-4.2434,-4.2665,-4.2665,-4.2811,-4.2986,-4.2986,-4.261,-4.2333,-4.2615,-4.2665,-4.2685,-4.2936,-4.2986,0.0,0.0,0.0,-4.2986,-4.2986,-4.3237,-4.3438,-4.3438,-4.3714,-4.379,-4.3463,-4.3438,-4.3313,-4.2986,-4.2816,-4.2539,-4.2213,-4.1932,-4.153,0.0,0.0,0.0,0.0,0.0,0.0,0.0,0.0,0.0,0.0,0.0,0.0,0.0,0.0,0.0,0.0,0.0,0.0,0.0,0.0,0.0,0.0,0.0,0.0,0.0,0.0,0.0,0.0,-4.7309,-4.7309,-4.7309,-4.7309,-4.7309,0.0,0.0,0.0,0.0,0.0,0.0,-4.7788,-4.8267,-4.858,-4.858,-4.906,-4.9389,-4.9523,-4.9523,-4.9613,-4.9763,-4.9988,-5.0048,-5.0032,-5.069,-5.099,-5.102,-5.1498,-5.1708,-5.1618,-5.0301,-4.9808,-4.9808,-4.9808,-4.9199,-4.8471,-4.906,-4.7652,-4.5508,-4.5733,-4.543,-4.4969,-4.4943,-4.5208,-4.5449,-4.5102,0.0,0.0,0.0,0.0,-4.2986,-4.2986,-4.3087,-4.3187,-4.3187,-4.3288,-4.3388,-4.3388,-4.3388,-4.3313,-4.3037,-4.2986,-4.2986,-4.2986,-4.3087,0.0,-4.3187,-4.3313,-4.3388,-4.3388,-4.3765,-4.4016,-4.4016,-4.4367,-4.4468,-4.4041,-4.4016,-4.379,-4.3212,-4.3187,-4.2936,-4.2439,-4.2414,-4.2108,-4.1555,0.0,0.0,0.0,0.0,0.0,0.0,0.0,0.0,0.0,0.0,0.0,0.0,0.0,0.0,0.0,0.0,0.0,0.0,0.0,0.0,0.0,0.0,0.0,0.0,0.0,0.0,0.0,0.0,0.0,-4.7309,-4.7309,0.0,0.0,0.0,0.0,-4.8177,-4.8237,-4.8506,-4.9179,-4.9239,-4.9269,-4.9269,-4.9299,-4.9583,-5.0136,-5.0136,-5.0465,-5.1139,-5.1768,-5.2037,-5.2067,-5.2725,-5.3025,-5.3025,-5.3054,-5.3084,-5.2995,-5.1678,-5.1109,-5.1109,-5.1109,-5.1063,-5.0875,-4.964,-4.9075,-4.8759,-4.7471,-4.6134,-4.5236,-4.655,-4.6964,-4.6733,-4.5395,-4.4941,0.0,0.0,-4.3962,-4.2986,-4.2986,-4.3363,-4.3765,-4.3765,-4.4166,-4.4543,-4.4543,-4.4543,-4.4242,-4.3187,-4.2986,-4.2986,-4.2986,0.0,-4.3765,-4.3765,-4.4192,-4.4543,-4.4543,-4.4568,-4.4593,-4.4593,-4.4593,-4.4618,-4.4593,-4.4593,-4.4342,-4.379,-4.3765,-4.3514,-4.2961,-4.2936,-4.274,-4.2187,-4.2137,0.0,0.0,0.0,0.0,0.0,0.0,0.0,0.0,0.0,0.0,0.0,0.0,0.0,0.0,0.0,0.0,0.0,0.0,0.0,0.0,0.0,0.0,0.0,0.0,0.0,0.0,0.0,0.0,-4.7309,-4.7309,0.0,-4.7908,-4.7938,-4.8207,-4.891,-4.897,-4.906,-4.9299,-4.9673,-5.0092,-5.0511,-5.093,-5.1468,-5.2127,-5.2127,-5.2247,-5.2486,-5.2725,-5.2815,-5.2845,-5.3084,-5.3174,-5.3174,-5.3174,-5.3174,-5.3144,-5.2665,-5.2247,-5.1858,-5.1858,-5.1588,-5.1105,-5.065,-4.9921,-4.9014,-4.7605,-4.6785,-4.6265,-4.5872,-4.637,-4.6764,-4.4814,-4.4249,-4.4326,-4.4628,-4.4415,-4.4041,-4.4041,-4.4192,-4.4317,-4.4317,-4.4493,-4.4618,-4.4618,-4.4618,-4.4518,-4.4116,-4.4041,-4.4041,-4.4041,-4.4192,-4.4317,-4.4317,-4.4493,-4.4618,-4.4618,-4.4945,-4.5171,-4.5171,-4.5497,-4.5573,-4.5221,-4.5171,-4.4945,-4.4367,-4.3991,-4.3714,-4.3514,-4.3162,-4.2886,-4.274,-4.2389,-4.2011,0.0,0.0,0.0,0.0,0.0,0.0,0.0,0.0,0.0,0.0,0.0,0.0,0.0,0.0,0.0,0.0,0.0,0.0,0.0,0.0,0.0,0.0,0.0,0.0,0.0,0.0,-4.7399,-4.7608,-4.7638,-4.7908,-4.8566,-4.8626,-4.8895,-4.9553,-4.9583,-4.9793,-5.0242,-5.0661,-5.1199,-5.1858,-5.2306,-5.2725,-5.3174,-5.3174,-5.3294,-5.3533,-5.3743,-5.3982,-5.4192,-5.4401,-5.4491,-5.4491,-5.4491,-5.4491,-5.4491,-5.4491,-5.4132,-5.3473,-5.2785,-5.2276,-5.181,-5.1332,-5.0593,-4.9545,-4.7598,-4.7598,-4.8041,-4.5629,-4.6464,-4.7837,-4.4965,-4.4409,-4.4744,-4.4634,-4.4618,-4.4618,-4.4618,-4.4769,-4.492,-4.492,-4.5045,-4.5246,-4.5422,-4.5472,-4.5522,-4.5698,-4.5121,-4.4618,-4.4618,-4.4794,-4.492,-4.492,-4.507,-4.5196,-4.5196,-4.5522,-4.5773,-4.5773,-4.61,-4.6175,-4.5799,-4.5773,-4.5522,-4.4945,-4.4568,-4.4292,-4.4091,-4.3539,-4.3263,-4.3263,-4.259,-4.2213,-4.2213,0.0,0.0,0.0,0.0,0.0,0.0,0.0,0.0,0.0,0.0,0.0,0.0,0.0,0.0,0.0,0.0,0.0,0.0,0.0,0.0,0.0,0.0,0.0,-4.7309,-4.7309,-4.7578,-4.8207,-4.8297,-4.8566,-4.9269,-4.9329,-4.9583,-5.0196,-5.0255,-5.0823,-5.2157,-5.2217,-5.2546,-5.3234,-5.3234,-5.3264,-5.3294,-5.3294,-5.3653,-5.4311,-5.494,-5.5598,-5.6278,-5.6825,-5.7094,-5.7094,-5.7094,-5.7094,-5.7094,-5.7094,-5.6735,-5.6017,-5.4042,-5.3264,-5.3088,-5.1556,-5.0915,-5.0474,-4.7675,-4.8542,-5.0157,-4.5974,-4.7427,-5.0081,-4.5887,-4.5571,-4.6395,-4.5074,-4.4719,-4.4719,-4.4719,-4.5146,-4.5573,-4.5573,-4.5974,-4.6502,-4.6993,-4.7093,-4.7305,-4.7807,-4.6175,-4.4719,-4.4719,-4.5196,-4.5573,-4.5573,-4.6024,0.0,-4.6351,-4.6351,-4.6351,-4.6351,-4.6351,-4.6326,-4.6326,-4.6326,-4.6075,-4.5547,-4.5497,-4.5246,-4.4669,-4.4116,-4.3815,-4.379,-4.2791,-4.2238,-4.2213,0.0,0.0,0.0,0.0,0.0,0.0,0.0,0.0,0.0,0.0,0.0,0.0,0.0,0.0,0.0,0.0,0.0,0.0,0.0,0.0,0.0,0.0,-4.7848,-4.7369,-4.7728,-4.8087,-4.8267,-4.876,-4.9254,-4.9912,-4.9972,-5.0421,-5.1558,-5.1648,-5.2037,-5.2875,-5.2905,-5.3443,-5.461,-5.464,-5.5089,-5.6017,-5.6017,-5.6107,-5.6286,-5.6496,-5.6675,-5.6855,-5.7004,-5.7094,-5.7094,-5.7094,-5.7094,-5.7094,-5.7094,-5.7004,-5.6631,-5.4492,-5.4053,-5.4309,-5.1569,-4.9694,-4.8322,-4.7118,-4.7207,-4.751,-4.5317,-4.6061,-4.7563,-4.577,-4.5792,-4.6434,-4.6386,-4.6702,-4.7004,-4.7004,-4.7129,-4.723,-4.723,-4.7355,-4.7506,-4.7657,-4.7682,-4.7732,-4.7883,-4.7431,-4.7004,-4.7004,-4.7129,-4.723,-4.723,-4.738,-4.7481,-4.7481,-4.7481,-4.7481,-4.7481,-4.7129,-4.6903,-4.6903,-4.6552,-4.625,-4.61,-4.5723,-4.5422,-4.5246,-4.4694,-4.4217,-4.3815,-4.3112,-4.2615,0.0,0.0,0.0,0.0,0.0,0.0,0.0,0.0,0.0,0.0,0.0,0.0,0.0,0.0,0.0,0.0,0.0,0.0,0.0,0.0,0.0,0.0,-4.8027,-4.8237,-4.8147,-4.8446,-4.8805,-4.9075,-4.9434,-5.0032,-5.096,-5.105,-5.1498,-5.2546,-5.2606,-5.3025,-5.3982,-5.4012,-5.464,-5.5957,-5.5987,-5.6346,-5.7094,-5.7094,-5.7244,-5.7513,-5.7513,-5.7663,-5.7932,-5.7932,-5.7932,-5.7932,-5.7932,-5.7932,-5.7932,-5.7932,-5.7932,-5.7736,0.0,0.0,0.0,0.0,-4.9733,-4.7604,-4.7327,-4.7606,-4.7896,-4.6451,-4.6931,-4.7948,-4.6857,-4.6728,-4.7054,-4.738,-4.7682,-4.7908,-4.7908,-4.7908,-4.7908,-4.7908,-4.7908,-4.7983,-4.8209,-4.8259,-4.8335,-4.856,-4.8611,0.0,-4.8611,-4.8234,-4.7908,-4.7908,-4.7908,-4.7908,-4.7908,-4.7908,-4.7908,-4.7908,-4.7631,-4.7456,-4.7456,-4.6954,0.0,0.0,0.0,-4.5723,-4.5497,-4.5171,0.0,0.0,0.0,-4.3062,-4.2564,-4.2313,0.0,0.0,-4.04,-4.0049,0.0,0.0,0.0,0.0,0.0,0.0,0.0,0.0,0.0,0.0,0.0,0.0,0.0,0.0,0.0,0.0,-4.8446,-4.8716,-4.9329,-4.9479,-4.9673,-5.0136,-5.0315,-5.0853,-5.2097,-5.2276,-5.2576,-5.3234,-5.3354,-5.3952,-5.5239,0.0,0.0,0.0,0.0,-5.7244,-5.7304,-5.7334,-5.7633,-5.8231,-5.8321,-5.865,-5.9219,-5.9308,-5.9338,-5.9338,-5.9249,-5.9219,-5.9219,-5.9129,-5.9099,-5.8979,-5.7623,-5.6852,-5.6207,-5.3387,-5.0479,-4.7983,-4.7933,0.0,0.0,-4.8317,-4.8846,-4.9672,-4.8317,-4.7958,-4.8008,-4.8008,-4.8058,-4.8109,-4.8109,-4.8109,-4.8109,-4.8109,-4.8109,-4.8234,-4.8761,-4.8862,-4.9012,-4.949,-4.959,-4.959,-4.959,-4.8761,-4.8109,-4.8109,-4.8109,-4.8109,-4.8109,-4.8109,-4.8109,-4.8109,-4.8033,0.0,-4.8008,-4.7531,-4.7143,-4.7068,-4.6627,-4.61,-4.5598,-4.5522,-4.502,-4.4016,-4.3915,-4.3614,-4.3062,-4.264,-4.2363,-4.2263,-4.1128,-4.0601,0.0,0.0,0.0,0.0,0.0,0.0,0.0,0.0,0.0,0.0,0.0,0.0,0.0,0.0,0.0,-4.903,-4.9523,-4.9867,-4.9986,-5.0511,-5.069,-5.0255,-5.1169,-5.1917,-5.2187,-5.2665,-5.3264,-5.3952,-5.4491,-5.5149,-5.5927,-5.6466,-5.7094,-5.7902,-5.7932,-5.8171,-5.871,-5.871,-5.877,-5.8919,0.0,0.0,-5.9907,-6.0475,-6.0715,-6.0685,-6.0146,-5.9907,-5.9847,-5.9308,-5.9099,-5.8961,-5.74,-5.5222,-5.2875,-5.1817,-5.0227,-4.8535,-4.8083,-4.8094,-4.8317,-4.8032,-4.8094,-4.8255,-4.797,-4.8234,0.0,-4.8611,-4.8937,-4.9264,-4.9264,-4.9264,-4.9264,-4.9264,-4.9264,-4.9289,-4.9414,-4.9439,-4.9464,-4.9565,-4.959,-4.959,-4.959,-4.9414,-4.9264,-4.9264,-4.9264,-4.9264,-4.9264,-4.9264,-4.9264,-4.9264,-4.8862,-4.8611,-4.8611,-4.8083,-4.7581,-4.7093,-4.6627,-4.625,-4.615,-4.5723,-4.5397,-4.5171,-4.4694,-4.4192,-4.3639,-4.3539,-4.3263,-4.2785,-4.1706,-4.1125,0.0,0.0,0.0,0.0,0.0,0.0,0.0,0.0,0.0,0.0,0.0,-4.7908,0.0,0.0,-4.8985,-4.9643,-5.0032,-5.0315,-5.0644,-5.1289,-5.1588,-5.1259,-5.1798,-5.2456,-5.3144,-5.3503,-5.4102,-5.5119,-5.5508,-5.6107,-5.7094,-5.7453,-5.7932,-5.859,-5.862,-5.877,-5.9099,-5.9428,-5.9608,-5.9608,-6.0266,-6.0595,-6.0625,-6.0954,-6.1104,-6.1104,-6.0745,-6.0595,-6.0565,-6.0236,-6.0116,-5.9866,-5.7397,-5.515,-5.3099,-5.2013,-5.0602,-4.9138,-4.8862,-4.8761,-4.8761,-4.8761,-4.8761,-4.8761,-4.8761,-4.8962,-4.9188,-4.9188,-4.9389,-4.959,-4.959,-4.959,-4.959,-4.959,-4.959,-4.959,-4.959,-4.959,-4.959,-4.959,-4.959,-4.959,-4.959,-4.959,-4.959,-4.959,-4.959,-4.959,-4.959,-4.959,-4.959,-4.959,-4.9339,-4.9188,-4.9188,-4.8661,-4.8109,-4.7556,-4.7029,-4.6728,-4.6728,-4.62,-4.5773,-4.5497,-4.5196,-4.4769,-4.4217,-4.4217,-4.4066,-4.379,-4.3237,-4.2534,0.0,0.0,0.0,0.0,0.0,0.0,0.0,0.0,-4.7339,-4.7459,-4.7908,-4.8356,-4.8626,-4.9105,-4.9673,-5.0285,-5.0375,-5.0614,-5.1319,-5.1858,-5.2306,-5.2546,-5.2606,-5.3025,-5.4102,-5.4431,-5.5029,-5.6128,-5.6406,-5.7004,-5.8082,-5.8231,-5.856,-5.9099,-5.9219,-5.9308,-5.9308,-5.9967,-6.0266,-6.0296,-6.0984,-6.1313,-6.1313,-6.1433,-6.1493,-6.1493,-6.1373,-6.1224,-6.1048,-6.0737,-6.0624,-6.0255,-5.6973,-5.5114,-5.4057,-5.2324,-5.083,-4.959,-4.959,-4.959,-4.959,-4.959,-4.959,-4.959,-4.959,-4.959,-4.959,-4.959,-4.959,-4.959,-4.959,-4.959,-4.959,-4.959,-4.959,-4.959,-4.959,-4.959,-4.959,-4.959,-4.959,-4.959,-4.959,-4.959,-4.959,-4.959,-4.959,-4.959,-4.959,-4.959,-4.959,-4.959,-4.959,-4.959,-4.959,-4.9088,-4.856,-4.8109,-4.7581,-4.723,-4.7068,-4.6702,-4.62,-4.5673,-4.5648,-4.5372,-4.4794,-4.4794,-4.4744,-4.4618,-4.4618,-4.3915,-4.7309,-4.7309,-4.7309,-4.7309,-4.7309,-4.7309,0.0,0.0,-4.7489,-4.8057,-4.8237,-4.8656,-4.9747,-5.0046,-5.0315,-5.099,-5.1109,-5.1349,-5.2007,-5.2157,-5.2636,-5.3832,-5.3982,-5.4042,-5.4192,-5.5269,-5.6068,-5.6218,-5.7244,-5.7962,-5.8112,-5.868,-5.9039,-5.9099,-5.9668,-5.9967,-5.9967,-6.0655,-6.1014,-6.1014,-6.1672,-6.2002,-6.2002,-6.26,-6.2869,-6.281,-6.2241,-6.1642,-6.0992,-5.9422,-5.8783,-5.849,-5.5166,-5.3816,-5.344,-5.1356,-5.0122,-4.959,-4.959,-4.959,-4.959,-4.959,-4.959,-4.959,-4.959,-4.959,-4.959,-4.959,-4.959,-4.959,-4.959,-4.959,-4.959,-4.959,-4.959,-4.959,-4.959,-4.959,-4.959,-4.959,-4.959,-4.959,-4.959,-4.959,-4.959,-4.959,-4.959,-4.959,-4.959,-4.959,-4.959,-4.959,-4.959,-4.959,-4.959,-4.9088,-4.8736,-4.8686,-4.8134,-4.7606,-4.7093,-4.7018,-4.6778,-4.6225,-4.6225,-4.5949,-4.5397,-4.5397,-4.5121,-4.4618,-4.4618,-4.4518,-4.7309,-4.7309,0.0,0.0,-4.7309,-4.7309,-4.7309,-4.7608,-4.7967,-4.8237,-4.8895,-4.9583,-5.0076,-5.0495,-5.0853,0.0,-5.1229,-5.1439,-5.2097,-5.2546,-5.3114,-5.4102,-5.4551,-5.479,-5.479,-5.5628,-5.6368,-5.6675,-5.7573,-5.8291,-5.868,-5.8949,-5.9279,-5.9668,-5.9937,-6.0266,-6.0685,-6.1343,-6.1672,-6.1702,-6.2361,-6.266,-6.266,-6.2959,-6.3079,-6.3049,-6.1733,-6.1028,-6.0589,-5.892,-5.8221,-5.7976,-5.5585,-5.4431,-5.3959,-5.1732,-5.077,-5.0569,-5.0569,-5.0368,-5.0067,-5.0067,-4.9866,-4.959,-4.959,-4.959,-4.959,-4.959,-4.959,-4.959,-4.959,-4.959,-4.959,-4.959,-4.959,-4.959,-4.959,-4.959,-4.959,-4.959,-4.959,-4.959,-4.959,-4.959,-4.959,-4.959,-4.959,-4.959,-4.959,-4.959,-4.959,-4.959,-4.959,-4.959,-4.959,-4.9389,-4.9264,-4.9264,-4.8711,-4.8309,-4.8109,-4.7481,-4.6968,-4.6803,-4.6476,-4.62,-4.5974,-4.5974,-4.5849,-4.5598,-4.5598,-4.5598,-4.7309,0.0,0.0,-4.7309,-4.7309,-4.7309,-4.7309,-4.7818,-4.8327,-4.8506,-4.9464,-5.0255,-5.0435,-5.0853,-5.1229,-5.1229,-5.1229,-5.1498,-5.2366,-5.2875,-5.3503,-5.4371,-5.491,-5.5269,-5.5448,-5.6047,-5.6705,-5.7334,-5.8022,-5.859,-5.9069,-5.9099,-5.9398,-6.0057,-6.0266,-6.0685,-6.1373,-6.2032,-6.2361,-6.2361,-6.2839,-6.3079,-6.3079,-6.2613,-6.235,-6.2292,-6.0569,-5.981,-5.9659,-5.7977,-5.7277,-5.7112,-5.538,-5.4481,-5.3959,-5.232,-5.1548,-5.1272,-5.1272,-5.0996,-5.067,-5.067,-5.0268,-4.9816,-4.9816,-4.9715,-4.959,-4.959,-4.959,-4.959,-4.959,-4.959,-4.959,-4.959,-4.959,-4.959,-4.959,-4.959,-4.959,-4.959,-4.959,-4.959,-4.959,-4.959,-4.959,-4.959,-4.959,-4.959,-4.959,-4.959,-4.959,-4.959,-4.959,-4.959,-4.959,-4.959,-4.959,-4.959,-4.9213,-4.8937,-4.8786,-4.8008,-4.7431,-4.7093,-4.6753,-4.6451,-4.6301,-4.6301,-4.6301,-4.6301,-4.6301,-4.6301,0.0,0.0,-4.7309,-4.7309,-4.7309,-4.7309,-4.7309,-4.7818,-4.8476,-4.9149,-4.9763,-5.0375,-5.1079,-5.1199,-5.1229,-5.1229,-5.1229,-5.1678,-5.2965,-5.3174,-5.3683,-5.4999,-5.5179,-5.5448,0.0,-5.6705,-5.7363,-5.8052,-5.871,-5.9069,-5.9099,-5.9099,-5.9398,-6.0057,-6.0745,-6.1403,-6.2061,-6.272,-6.3049,-6.3049,-6.3079,-6.3079,-6.3021,-6.1318,-6.06,-6.048,-5.8793,-5.8068,-5.7941,-5.6206,-5.5485,-5.5287,-5.3606,-5.2973,-5.2948,-5.2879,-5.2201,-5.1272,-5.1272,-5.1272,-5.1247,-5.1247,-5.087,-5.0393,-5.0393,-5.0017,-4.959,-4.959,-4.959,-4.959,-4.959,-4.959,-4.959,-4.959,-4.959,-4.959,-4.959,-4.959,-4.959,-4.959,-4.959,-4.959,-4.959,-4.959,-4.959,-4.959,-4.959,-4.959,-4.959,-4.959,-4.959,-4.959,-4.959,-4.959,-4.959,-4.959,-4.959,-4.959,-4.9565,-4.9339,-4.8786,-4.8736,-4.8209,-4.7093,-4.7043,-4.6853,-4.6301,-4.6301,-4.6301,-4.6301,-4.6301,-4.6301,0.0,0.0,-4.7309,-4.7309,-4.7309,-4.7429,-4.7848,-4.8476,-4.9134,-4.9793,-5.0421,-5.0913,-5.1169,-5.1229,-5.1229,-5.1229,-5.1229,-5.1678,-5.2995,-5.3174,-5.3683,-5.5029,-5.5568,0.0,0.0,0.0,0.0,-5.8082,-5.874,-5.9099,-5.9099,-5.9518,-6.0057,-6.0745,-6.1403,-6.2091,-6.275,-6.2959,-6.3079,-6.3079,-6.191,-6.1377,-6.1318,-5.9626,-5.8884,-5.8731,-5.7021,-5.6245,-5.6141,-5.4433,-5.3742,-5.3674,-5.311,-5.2929,-5.2929,-5.2929,-5.2678,-5.2377,-5.2377,-5.2126,-5.1825,-5.1825,-5.1448,-5.0996,-5.0996,-5.087,-5.0619,-5.0243,-5.0142,-5.0067,-4.969,-4.959,-4.959,-4.959,-4.959,-4.959,-4.959,-4.959,-4.959,-4.959,-4.959,-4.959,-4.959,-4.959,-4.959,-4.959,-4.959,-4.959,-4.959,-4.959,-4.959,-4.959,-4.959,-4.959,-4.959,-4.959,-4.959,-4.959,-4.959,-4.9515,-4.9314,-4.8962,-4.8611,-4.8234,-4.7506,-4.6993,-4.6853,-4.6502,-4.6301,-4.6301,-4.6301,-4.6301,0.0,-4.7309,-4.7309,-4.7309,-4.7309,-4.7489,-4.8147,-4.885,-4.9464,-5.0076,-5.0704,-5.1229,-5.1229,-5.1229,-5.1229,-5.1229,-5.1409,-5.1947,-5.3025,-5.3384,-5.3952,-5.5059,-5.5777,0.0,0.0,0.0,0.0,-5.8411,-5.886,-5.9099,-5.9099,-5.9727,-6.0416,-6.1104,-6.1762,-6.2421,-6.3079,-6.3079,-6.2817,-6.2175,-6.1079,-6.0176,-5.9565,-5.785,-5.7085,-5.6984,-5.5247,-5.4474,-5.4433,-5.3359,-5.2929,-5.2929,-5.2929,-5.2929,-5.2929,-5.2929,-5.2929,-5.2929,-5.2929,-5.2703,-5.2402,-5.2402,-5.2026,-5.1574,-5.1574,-5.1448,-5.1197,-5.082,-5.072,-5.0645,-5.0293,-5.0042,-4.9891,-4.9891,-4.9741,-4.959,-4.959,-4.959,-4.959,-4.959,-4.959,-4.959,-4.959,-4.959,-4.959,-4.959,-4.959,-4.959,-4.959,-4.959,-4.959,-4.959,-4.959,-4.959,-4.959,-4.959,-4.959,-4.959,-4.959,-4.959,-4.959,-4.9264,-4.8962,-4.8761,-4.8083,-4.7531,-4.7068,-4.6778,-4.6502,-4.6301,-4.6301,-4.6301,-4.7266,-4.7309,-4.7309,-4.7309,-4.7309,-4.7489,-4.8177,-4.885,-4.9464,-5.0106,-5.0734,-5.1229,0.0,0.0,-5.1229,-5.1229,-5.1738,-5.2396,-5.3084,-5.3743,-5.4401,0.0,0.0,0.0,0.0,0.0,0.0,-5.9069,0.0,-5.9099,-5.9099,-5.9757,-6.0446,-6.1104,-6.1792,-6.245,-6.3079,-6.3021,-6.2086,-6.0359,-6.0298,-5.9413,-5.7815,-5.6076,-5.5287,-5.5181,-5.3606,-5.2929,-5.2929,-5.2929,-5.2929,-5.2929,-5.2929,-5.2929,-5.2929,-5.2929,-5.2929,-5.2929,-5.2929,-5.2929,-5.2929,-5.2929,-5.2578,-5.2151,-5.2151,-5.1774,-5.1373,-5.1322,-5.1322,-5.1322,-5.1297,-5.087,-5.0444,-5.0419,-5.0017,-4.9615,-4.9615,-4.959,-4.959,-4.959,-4.959,-4.959,-4.959,-4.959,-4.959,-4.959,-4.959,-4.959,-4.959,-4.959,-4.959,-4.959,-4.959,-4.959,-4.959,-4.959,-4.959,-4.959,-4.959,-4.959,-4.959,-4.959,-4.9339,-4.8812,-4.8786,-4.8234,-4.7118,-4.7093,-4.6792,-4.6301,-4.6301,-4.6301,-4.677,-4.7309,-4.7309,-4.7309,-4.7309,-4.7608,-4.879,-4.9179,-4.9629,-5.072,-5.1109,-5.1229,0.0,0.0,0.0,-5.1229,-5.1349,0.0,-5.3025,-5.3324,0.0,0.0,0.0,-5.6915,-5.7094,-5.8171,0.0,0.0,-5.9099,-5.9099,-5.9099,-6.0206,-6.0924,-6.1104,-6.2241,-6.2899,-6.3079,-6.1851,-6.0298,-5.8606,-5.7341,-5.6504,-5.601,-5.4299,-5.3563,-5.3495,-5.311,-5.2929,-5.2929,-5.2929,-5.2929,-5.2929,-5.2929,-5.2929,-5.2929,-5.2929,-5.2929,-5.2929,-5.2929,-5.2929,-5.2929,-5.2929,-5.2829,-5.2729,-5.2729,-5.2628,-5.2427,-5.2026,-5.19,-5.18,-5.1398,-5.1172,-5.0946,-5.0519,-5.0318,-5.0092,-4.969,-4.959,-4.959,-4.959,-4.959,-4.959,-4.959,-4.959,-4.959,-4.959,-4.959,-4.959,-4.959,-4.959,-4.959,-4.959,-4.959,-4.959,-4.959,-4.959,-4.959,-4.959,-4.959,-4.959,-4.959,-4.959,-4.954,-4.9389,-4.8987,-4.841,-4.7707,-4.733,-4.6792,-4.6301,-4.6301,-4.6301,-4.6931,-4.7309,-4.7309,-4.7309,-4.7309,-4.7638,-4.9,-4.9299,-4.9477,-5.0165,-5.0793,0.0,0.0,0.0,0.0,0.0,0.0,0.0,-5.3025,-5.3443,-5.4012,0.0,-5.6316,0.0,-5.7094,-5.8321,-5.9099,0.0,-5.9099,-5.9219,-5.9518,-6.0535,-6.0886,-6.0409,-6.138,-6.1585,-6.0839,-6.0629,-5.929,-5.6828,-5.588,-5.4982,-5.4299,-5.3291,-5.2929,-5.2929,-5.2929,-5.2929,-5.2929,-5.2929,-5.2929,-5.2929,-5.2929,-5.2929,-5.2929,-5.2929,-5.2929,-5.2929,-5.2929,-5.2929,-5.2929,-5.2929,-5.2929,-5.2929,-5.2929,-5.2929,-5.2854,-5.2553,-5.2477,-5.2402,-5.2076,-5.1649,-5.1197,-5.087,-5.0419,-4.9967,-4.9665,-4.959,-4.959,-4.959,-4.959,-4.959,-4.959,-4.959,-4.959,-4.959,-4.959,-4.959,-4.959,-4.959,-4.959,-4.959,-4.959,-4.959,-4.959,-4.959,-4.959,-4.959,-4.959,-4.959,-4.959,-4.959,-4.959,-4.959,-4.9289,-4.8862,-4.8284,-4.7732,-4.7205,-4.6677,-4.6426,-4.6301,-4.6975,-4.7062,-4.7062,-4.7266,-4.7309,-4.7638,-4.9,-4.9164,-4.9034,-4.9146,0.0,0.0,-4.9406,0.0,-5.1229,-5.1229,0.0,-5.2336,-5.3084,-5.3683,-5.4341,-5.5089,-5.6316,-5.7042,-5.6802,-5.8023,-5.8689,-5.8525,-5.847,-5.8956,-6.0057,-6.0324,-6.009,-5.9345,-5.989,-5.9352,-5.766,-5.9104,-5.8202,-5.5049,-5.5049,-5.4299,-5.2929,-5.2929,-5.2929,-5.2929,-5.2929,-5.2929,-5.2929,-5.2929,-5.2929,-5.2929,-5.2929,-5.2929,-5.2929,-5.2929,-5.2929,-5.2929,-5.2929,-5.2929,-5.2929,-5.2929,-5.2929,-5.2929,-5.2929,-5.2929,-5.2929,-5.2929,-5.2929,-5.2929,-5.2929,-5.2176,-5.1373,-5.1297,-5.0469,-4.969,-4.9615,-4.959,-4.959,-4.959,-4.959,-4.959,-4.959,-4.959,-4.959,-4.959,-4.959,-4.959,-4.959,-4.959,-4.959,-4.959,-4.959,-4.959,-4.959,-4.959,-4.959,-4.959,-4.959,-4.959,-4.959,-4.959,-4.959,-4.959,-4.959,-4.9314,-4.8761,-4.8184,-4.7631,-4.7129,-4.6577,-4.6301,-4.5161,-4.5734,-4.5958,-4.7019,-4.7309,-4.7638,-4.9,-4.842,0.0,0.0,0.0,-4.9455,-4.9259,-5.0287,0.0,-5.1229,0.0,0.0,0.0,0.0,-5.3803,0.0,0.0,0.0,0.0,0.0,0.0,0.0,0.0,-5.668,-5.9917,-5.8174,-5.7444,-5.8251,-5.839,-5.7596,-5.588,-5.6114,-5.5314,-5.3291,-5.3291,-5.3179,-5.2929,-5.2929,-5.2929,-5.2929,-5.2929,0.0,-5.2929,-5.2929,-5.2929,-5.2929,-5.2929,-5.2929,-5.2929,-5.2929,-5.2929,-5.2929,-5.2929,-5.2929,-5.2929,-5.2929,-5.2929,-5.2929,-5.2929,-5.2929,-5.2929,-5.2929,-5.2929,-5.2929,-5.2929,-5.2452,-5.185,-5.1398,-5.077,-5.0142,-4.969,-4.959,-4.959,-4.959,-4.959,-4.959,-4.959,-4.959,-4.959,-4.959,-4.959,-4.959,-4.959,-4.959,-4.959,-4.959,-4.959,-4.959,-4.959,-4.959,-4.959,-4.959,-4.959,-4.959,-4.959,-4.959,-4.959,-4.959,-4.959,-4.9314,-4.8761,-4.8184,-4.7631,-4.7129,-4.6577,-4.6301,-4.4069,-4.4396,-4.472,-4.5958,-4.5824,-4.5825,-4.7775,0.0,0.0,0.0,0.0,-4.7859,-4.7146,0.0,0.0,0.0,0.0,0.0,0.0,0.0,0.0,0.0,0.0,0.0,0.0,0.0,0.0,0.0,0.0,-5.4593,-5.7885,-5.6624,-5.6067,-5.6634,-5.6634,-5.5814,-5.4122,-5.4982,-5.4541,-5.2929,-5.2929,-5.2929,-5.2929,-5.2929,-5.2929,-5.2929,-5.2929,-5.2929,-5.2929,-5.2929,-5.2929,-5.2929,-5.2929,-5.2929,-5.2929,-5.2929,-5.2929,-5.2929,-5.2929,-5.2929,-5.2929,-5.2929,-5.2929,-5.2929,-5.2929,-5.2929,-5.2929,-5.2929,-5.2929,-5.2854,-5.2578,-5.2101,-5.1523,-5.0971,-5.0393,-4.9916,-4.9665,-4.959,-4.959,-4.959,-4.959,-4.959,-4.959,-4.959,-4.959,-4.959,-4.959,-4.959,-4.959,-4.959,-4.959,-4.959,-4.959,-4.959,-4.959,-4.959,-4.959,-4.959,-4.959,-4.959,-4.959,-4.959,-4.959,-4.959,-4.959,-4.9464,-4.9188,-4.8335,-4.7782,-4.7506,-4.6702,-4.6301,-4.3026,-4.3074,-4.3409,-4.4674,-4.4442,-4.4377,-4.6357,-4.5985,0.0,0.0,0.0,0.0,0.0,0.0,0.0,0.0,0.0,0.0,0.0,0.0,0.0,0.0,0.0,0.0,0.0,0.0,0.0,0.0,0.0,0.0,-5.5041,-5.5306,-5.5221,-5.4875,-5.4849,-5.4231,-5.2929,-5.4231,-5.4164,-5.2929,-5.2929,-5.2929,-5.2929,-5.2929,-5.2929,-5.2929,-5.2929,-5.2929,-5.2929,-5.2929,-5.2929,-5.2929,-5.2929,-5.2929,-5.2929,-5.2929,-5.2929,-5.2929,-5.2929,-5.2929,-5.2929,-5.2929,-5.2929,-5.2929,-5.2929,-5.2929,-5.2929,-5.2929,-5.2854,-5.2653,-5.2226,-5.1599,-5.0946,-5.0368,-4.9916,-4.959,-4.959,-4.959,-4.959,-4.959,-4.959,-4.959,-4.959,-4.959,-4.959,-4.959,-4.959,-4.959,-4.959,-4.959,-4.959,-4.959,-4.959,-4.959,-4.959,-4.959,-4.959,-4.959,-4.959,-4.959,-4.959,-4.959,-4.959,-4.959,-4.959,-4.954,-4.9414,-4.841,-4.7857,-4.7732,-4.6753,-4.6301,-4.1468,-4.1789,-4.2084,-4.3361,-4.4442,-4.5246,-4.5414,0.0,0.0,0.0,0.0,0.0,0.0,0.0,0.0,0.0,0.0,0.0,0.0,0.0,0.0,0.0,0.0,0.0,0.0,0.0,0.0,0.0,0.0,0.0,-5.1687,-5.4051,-5.4675,-5.3179,-5.311,-5.3042,-5.2929,-5.3042,-5.3042,-5.2929,-5.2929,-5.2929,-5.2929,-5.2929,-5.2929,-5.2929,-5.2929,-5.2929,0.0,-5.2929,-5.2929,-5.2929,-5.2929,-5.2929,-5.2929,-5.2929,-5.2929,-5.2929,-5.2929,-5.2929,-5.2929,-5.2929,-5.2929,-5.2929,-5.2929,-5.2929,-5.2929,-5.2929,-5.2578,-5.2176,-5.2126,-5.1297,-5.0368,-4.9791,-4.964,-4.959,-4.959,-4.959,-4.959,-4.959,-4.959,-4.959,-4.959,-4.959,-4.959,-4.959,-4.959,-4.959,-4.959,-4.959,-4.959,-4.959,-4.959,-4.959,-4.959,-4.959,-4.959,-4.959,-4.959,-4.959,-4.959,-4.959,-4.959,-4.959,-4.959,-4.9339,-4.8837,-4.8209,-4.7657,-4.7143,-4.6602,-4.6301,-4.0313,-4.0465,-4.0743,-4.2035,-4.2181,-4.2248,-4.3299,0.0,0.0,0.0,-4.3566,-4.3797,0.0,0.0,0.0,0.0,0.0,0.0,0.0,0.0,0.0,0.0,0.0,0.0,0.0,0.0,0.0,0.0,0.0,0.0,-5.0745,-5.2444,-5.3275,-5.2929,-5.2929,-5.2929,-5.2929,-5.2929,-5.2929,-5.2929,-5.2929,-5.2929,-5.2929,-5.2929,-5.2929,-5.2929,-5.2929,-5.2929,0.0,-5.2929,-5.2929,-5.2929,-5.2929,-5.2929,-5.2929,-5.2929,-5.2929,-5.2929,-5.2929,-5.2929,-5.2929,-5.2929,-5.2703,-5.2503,-5.2829,-5.2703,-5.2427,-5.2427,-5.2026,-5.1523,-5.1172,-5.0519,-4.9866,-4.964,-4.959,-4.959,-4.959,-4.959,-4.959,-4.959,-4.959,-4.959,-4.959,-4.959,-4.959,-4.959,-4.959,-4.959,-4.959,-4.959,-4.959,-4.959,-4.959,-4.959,-4.959,-4.959,-4.959,-4.959,-4.959,-4.959,-4.959,-4.959,-4.959,-4.959,-4.9264,-4.8987,-4.8761,-4.7883,-4.733,-4.7129,-4.6577,-4.6301,-3.9697,-3.9697,-3.9929,-4.0794,-4.0642,-4.0568,0.0,0.0,0.0,-4.2116,-4.2514,-4.2841,-4.2936,0.0,0.0,0.0,0.0,0.0,0.0,0.0,0.0,0.0,0.0,0.0,0.0,0.0,0.0,0.0,0.0,0.0,-5.0419,-5.1172,-5.1925,-5.2653,-5.2678,-5.2754,-5.2929,-5.2929,-5.2929,-5.2929,-5.2929,-5.2929,-5.2929,-5.2929,-5.2929,-5.2929,-5.2929,-5.2929,0.0,-5.2929,-5.2929,-5.2929,-5.2929,-5.2929,-5.2929,-5.2929,-5.2829,-5.2678,-5.2678,-5.2578,-5.2452,-5.2452,-5.2176,-5.1925,-5.2327,-5.2176,-5.185,-5.185,-5.1448,-5.0896,-5.0318,-4.9891,-4.959,-4.959,-4.959,-4.959,-4.959,-4.959,-4.959,-4.959,-4.959,-4.959,-4.959,-4.959,-4.959,-4.959,-4.959,-4.959,-4.959,-4.959,-4.959,-4.959,-4.959,-4.959,-4.959,-4.959,-4.959,-4.959,-4.959,-4.959,-4.959,-4.959,-4.9515,-4.9364,-4.8962,-4.8611,-4.8284,-4.7506,-4.6993,-4.6878,-4.6502,-4.6301,-3.9697,-3.9697,-3.9697,-3.9749,-4.0642,-4.1376,0.0,0.0,0.0,0.0,-4.2213,-4.2389,0.0,0.0,0.0,0.0,0.0,0.0,0.0,0.0,0.0,0.0,0.0,0.0,0.0,0.0,0.0,0.0,0.0,0.0,-5.0393,-5.0419,-5.0946,-5.2076,-5.2126,-5.2377,-5.2929,-5.2929,-5.2929,-5.2929,-5.2929,-5.2929,-5.2929,-5.2929,-5.2929,-5.2929,-5.2929,-5.2929,0.0,-5.2929,-5.2929,-5.2929,-5.2929,-5.2929,-5.2929,-5.2929,-5.2578,-5.2126,-5.2126,-5.1749,-5.1297,-5.1297,-5.1297,-5.1297,-5.1297,-5.1297,-5.1297,-5.1297,-5.087,-5.0293,-4.9741,-4.959,-4.959,-4.959,-4.959,-4.959,-4.959,-4.959,-4.959,-4.959,-4.959,-4.959,-4.959,-4.959,-4.959,-4.959,-4.959,-4.959,-4.959,-4.959,-4.959,-4.959,-4.959,-4.959,-4.959,-4.959,-4.959,-4.959,-4.959,-4.959,-4.959,-4.959,-4.9339,-4.8786,-4.8761,-4.8234,-4.7093,-4.7093,-4.6853,-4.6326,-4.6301,-4.6301,-3.9697,-3.9697,-3.9697,-3.9697,-3.9981,-4.0211,-4.0027,0.0,0.0,0.0,0.0,0.0,0.0,0.0,0.0,0.0,0.0,0.0,0.0,0.0,0.0,0.0,0.0,0.0,0.0,0.0,0.0,0.0,0.0,0.0,-4.9841,-4.9866,-5.0368,-5.1498,-5.1548,-5.18,-5.2352,-5.2377,-5.2553,-5.2929,-5.2929,-5.2929,-5.2929,-5.2929,-5.2929,-5.2929,-5.2929,-5.2929,-5.2904,-5.2528,-5.2377,-5.2327,-5.195,-5.18,-5.18,-5.18,-5.1699,-5.1548,-5.1548,-5.1423,-5.1272,-5.1272,-5.1021,-5.0695,-5.0695,-5.0695,-5.0619,-5.0243,-4.9992,-4.9816,-4.964,-4.959,-4.959,-4.959,-4.959,-4.959,-4.959,-4.959,-4.959,-4.959,-4.959,-4.959,-4.959,-4.959,-4.959,-4.959,-4.959,-4.959,-4.959,-4.959,-4.959,-4.959,-4.959,-4.959,-4.959,-4.959,-4.959,-4.959,-4.959,-4.9414,-4.9063,-4.9038,-4.8761,-4.8184,-4.7832,-4.7481,-4.7068,-4.6753,-4.6476,-4.6301,-4.6301,-4.6301,0.0,-3.9697,-3.9697,-3.9697,-3.9697,0.0,0.0,0.0,0.0,0.0,0.0,0.0,0.0,0.0,0.0,0.0,0.0,0.0,0.0,0.0,0.0,0.0,0.0,0.0,0.0,0.0,0.0,0.0,0.0,0.0,-4.959,-4.959,-4.9916,-5.0619,-5.0845,-5.1222,-5.18,-5.18,-5.1975,-5.2302,-5.2302,-5.2302,-5.2302,-5.2302,-5.2302,-5.2302,-5.2302,-5.2302,0.0,-5.1925,-5.18,-5.1749,-5.1423,-5.1272,-5.1272,-5.1272,-5.1147,-5.0946,-5.0946,-5.082,-5.0645,-5.0645,-5.0393,-5.0117,-5.0117,-5.0117,-5.0042,-4.969,-4.959,-4.959,-4.959,-4.959,-4.959,-4.959,-4.959,-4.959,-4.959,-4.959,-4.959,-4.959,-4.959,-4.959,-4.959,-4.959,-4.959,-4.959,-4.959,-4.959,-4.959,-4.959,-4.959,-4.959,-4.959,-4.9515,-4.9314,-4.9464,-4.9515,-4.9289,-4.9289,-4.9038,-4.846,-4.8435,-4.8184,-4.7631,-4.7305,-4.6968,-4.6828,-4.6476,-4.6301,-4.6301,-4.6301,-4.6301,0.0,0.0,0.0,0.0,0.0,0.0,0.0,0.0,0.0,0.0,0.0,0.0,0.0,0.0,0.0,0.0,0.0,0.0,0.0,0.0,0.0,0.0,0.0,0.0,0.0,0.0,0.0,0.0,0.0,0.0,-4.959,-4.959,-4.959,-4.959,-5.0092,-5.0645,-5.1222,-5.1222,-5.1247,-5.1272,-5.1272,-5.1272,-5.1272,-5.1272,-5.1272,0.0,-5.1272,-5.1272,-5.1272,-5.1247,-5.1222,-5.1222,-5.1172,-5.1172,-5.1172,-5.1172,-5.082,-5.0368,-5.0368,-5.0017,-4.959,-4.959,-4.959,-4.959,-4.959,-4.959,-4.959,-4.959,-4.959,-4.959,-4.959,-4.959,-4.959,-4.959,-4.959,-4.959,-4.959,-4.959,-4.959,-4.959,-4.959,-4.959,-4.959,-4.959,-4.959,-4.959,-4.959,-4.959,-4.959,-4.9565,-4.954,-4.954,-4.949,-4.9264,-4.8761,-4.9213,-4.9289,-4.8736,-4.8711,-4.846,-4.7883,-4.7857,-4.7606,-4.7018,-4.7018,-4.6828,-4.6301,-4.6301,-4.6301,-4.6301,-4.6301,-4.6301,-3.9697,0.0,-3.9697,0.0,0.0,0.0,0.0,0.0,0.0,0.0,0.0,0.0,0.0,0.0,0.0,0.0,0.0,0.0,0.0,0.0,0.0,0.0,0.0,0.0,0.0,0.0,0.0,0.0,0.0,-4.959,-4.959,-4.959,-4.959,-4.959,-4.9715,-5.0067,-5.0619,-5.0619,-5.0845,-5.1272,-5.1272,-5.1272,-5.1272,-5.1272,-5.1272,-5.1272,-5.1272,-5.1272,-5.1247,-5.0795,-5.0619,-5.0569,-5.0167,-4.9992,-4.9992,-4.9992,-4.9916,-4.9791,-4.9791,-4.9715,-4.959,-4.959,-4.959,-4.959,-4.959,-4.959,-4.959,-4.959,-4.959,-4.959,-4.959,-4.959,-4.959,-4.959,-4.959,-4.959,-4.959,-4.959,-4.959,-4.959,-4.959,-4.959,-4.959,-4.959,-4.959,-4.959,-4.959,-4.959,-4.959,-4.9213,-4.8962,-4.8962,-4.856,-4.8259,-4.8134,-4.8636,-4.8711,-4.8159,-4.8109,-4.7883,-4.733,-4.7305,-4.7054,-4.6527,-4.6502,-4.6451,-4.6301,-4.6301,-4.6301,-4.6301,-4.6301,-4.6301,-3.9697,-3.9697,-3.9697,-3.9697,-3.9697,-3.9697,0.0,0.0,0.0,0.0,0.0,0.0,0.0,0.0,0.0,0.0,0.0,0.0,0.0,0.0,0.0,0.0,0.0,0.0,0.0,0.0,0.0,0.0,0.0,-4.959,-4.959,-4.959,-4.959,-4.959,-4.959,-4.9741,-5.0042,-5.0042,-5.0193,-5.0494,-5.0494,-5.0494,-5.0494,-5.0494,-5.0494,-5.0494,-5.0494,-5.0494,-5.0469,-5.0167,-5.0042,-5.0017,-4.9715,-4.959,-4.959,-4.959,-4.959,-4.959,-4.959,-4.959,-4.959,-4.959,-4.959,-4.959,-4.959,-4.959,-4.959,-4.959,-4.959,-4.959,-4.959,-4.959,-4.959,-4.959,-4.959,-4.959,-4.959,-4.959,-4.959,-4.959,-4.959,-4.959,-4.959,-4.959,-4.959,-4.959,-4.9389,-4.9213,-4.9213,-4.8736,-4.8385,-4.8385,-4.8083,-4.7807,-4.7581,-4.7832,-4.7883,-4.7581,-4.7556,-4.7305,-4.6778,-4.6753,-4.6627,-4.6326,-4.6301,-4.6301,-4.6301,-4.6301,-4.6301,-4.6301,-4.6301,-4.6301,-3.9697,-3.9697,-3.9697,-3.9697,-3.9697,-3.9697,0.0,0.0,0.0,0.0,0.0,0.0,0.0,0.0,0.0,0.0,0.0,0.0,0.0,0.0,0.0,0.0,0.0,0.0,0.0,0.0,0.0,0.0,0.0,-4.959,-4.959,-4.959,-4.959,-4.959,-4.959,-4.959,-4.959,-4.959,-4.959,-4.959,-4.959,-4.959,-4.959,-4.959,-4.959,-4.959,-4.959,-4.959,-4.959,-4.959,-4.959,-4.959,-4.959,-4.959,-4.959,-4.959,-4.959,-4.959,-4.959,-4.959,-4.959,-4.959,-4.959,-4.959,-4.959,-4.959,-4.959,-4.959,-4.959,-4.959,-4.959,-4.959,-4.959,-4.959,-4.959,-4.959,-4.959,-4.959,-4.959,-4.959,-4.959,-4.959,-4.959,-4.9515,-4.9464,-4.9464,-4.8987,-4.8636,-4.8636,-4.8134,-4.7782,-4.7782,-4.7707,-4.7481,-4.7054,-4.7004,-4.7004,-4.7004,-4.7004,-4.6803,-4.6326,-4.6301,-4.6301,-4.6301,-4.6301,-4.6301,-4.6301,-4.6301,-4.6301,-4.6301,-4.6301,-4.6301,-3.9697,-3.9697,-3.9697,-3.9697,-3.9697,-3.9697,0.0,0.0,0.0,0.0,0.0,0.0,0.0,0.0,0.0,0.0,0.0,0.0,0.0,0.0,0.0,0.0,0.0,0.0,0.0,0.0,0.0,0.0,0.0,-4.959,-4.959,-4.959,-4.959,-4.959,-4.959,-4.959,-4.959,-4.959,-4.959,-4.959,-4.959,-4.959,-4.959,-4.959,-4.959,-4.959,0.0,-4.959,-4.959,-4.959,-4.959,-4.959,-4.959,-4.959,-4.959,-4.959,-4.959,-4.959,-4.959,-4.959,-4.959,-4.959,-4.959,-4.959,-4.959,-4.959,-4.959,-4.959,-4.959,-4.959,-4.959,-4.959,-4.959,-4.959,-4.959,-4.959,-4.959,-4.959,-4.959,-4.959,-4.959,-4.959,-4.959,-4.9213,-4.8887,-4.8887,-4.841,-4.8033,-4.8033,-4.7581,-4.7193,-4.7193,-4.6828,-4.6527,-4.6451,-4.6426,-4.6426,-4.6426,-4.6426,-4.6401,-4.6301,-4.6301,-4.6301,-4.6301,-4.6301,-4.6301,-4.6301,-4.6301,-4.6301,-4.6301,-4.6301,-4.6301,-3.9697,-3.9697,-3.9697,-3.9697,-3.9697,-3.9697,-3.9697,0.0,0.0,0.0,0.0,0.0,0.0,0.0,0.0,0.0,0.0,0.0,0.0,0.0,0.0,0.0,0.0,0.0,0.0,0.0,0.0,0.0,0.0,0.0,-4.9163,-4.9439,-4.959,-4.959,-4.959,-4.959,-4.959,-4.959,-4.959,-4.959,-4.959,-4.959,-4.959,-4.959,-4.959,-4.959,-4.959,-4.959,-4.959,-4.959,-4.959,-4.959,-4.959,-4.959,-4.959,-4.959,-4.959,-4.959,-4.959,-4.959,-4.959,-4.959,-4.959,-4.959,-4.959,-4.959,-4.959,-4.959,-4.959,-4.959,-4.959,-4.959,-4.959,-4.959,-4.959,-4.959,-4.959,-4.959,-4.959,-4.959,-4.9364,-4.9163,-4.9163,-4.8686,-4.8309,-4.8309,-4.7832,-4.7481,-4.7481,-4.7029,-4.6702,-4.6702,-4.6451,-4.6301,-4.6301,-4.6301,-4.6301,-4.6301,-4.6301,-4.6301,-4.6301,-4.6301,-4.6301,-4.6301,-4.6301,-4.6301,-4.6301,-4.6301,-4.6301,-4.6301,-4.6301,-4.6301,-3.9697,-3.9697,-3.9697,-3.9697,0.0,-3.9697,-3.9697,0.0,0.0,0.0,0.0,0.0,0.0,0.0,0.0,0.0,0.0,0.0,0.0,0.0,0.0,0.0,0.0,0.0,0.0,0.0,0.0,0.0,0.0,0.0,-4.856,-4.8962,-4.9188,-4.9188,-4.9188,-4.9188,-4.9188,-4.9188,-4.9339,-4.959,-4.959,-4.959,-4.959,-4.959,-4.959,-4.959,-4.959,-4.959,-4.959,-4.959,-4.959,-4.959,-4.959,-4.959,-4.959,-4.959,-4.959,-4.959,-4.959,-4.959,-4.959,-4.959,-4.959,-4.959,-4.959,-4.959,-4.959,-4.959,-4.959,-4.959,-4.959,-4.959,-4.959,-4.959,-4.959,-4.959,-4.959,-4.949,-4.9414,-4.9414,-4.8962,-4.856,-4.856,-4.8109,-4.7732,-4.7732,-4.728,-4.6892,-4.6892,-4.6577,-4.6301,-4.6301,-4.6301,-4.6301,-4.6301,-4.6301,-4.6301,-4.6301,-4.6301,-4.6301,-4.6301,-4.6301,-4.6301,-4.6301,-4.6301,-4.6301,-4.6301,-4.6301,-4.6301,-4.6301,-4.6301,-4.6301,-3.9697,-3.9697,-3.9697,-3.9697,0.0,0.0,-3.9697,-3.9697,0.0,0.0,0.0,0.0,0.0,0.0,0.0,0.0,0.0,0.0,0.0,0.0,0.0,0.0,0.0,0.0,0.0,0.0,0.0,0.0,0.0,0.0,-4.7958,-4.8008,-4.8033,-4.8033,-4.8033,-4.8033,-4.8033,-4.8033,-4.856,-4.959,-4.959,-4.959,-4.959,-4.959,-4.959,-4.959,-4.959,-4.959,-4.959,-4.959,-4.959,-4.959,-4.959,-4.959,-4.959,-4.959,-4.959,-4.959,-4.959,-4.959,-4.959,-4.959,-4.959,-4.959,-4.959,-4.959,-4.959,-4.959,-4.959,-4.959,-4.959,-4.959,-4.959,-4.959,-4.959,-4.959,-4.959,-4.9188,-4.8837,-4.8837,-4.836,-4.7958,-4.7958,-4.7531,-4.7179,-4.7179,-4.6728,-4.6376,-4.6376,-4.6326,-4.6301,-4.6301,-4.6301,-4.6301,-4.6301,-4.6301,-4.6301,-4.6301,-4.6301,-4.6301,-4.6301,-4.6301,-4.6301,-4.6301,-4.6301,-4.6301,-4.6301,-4.6301,-4.6301,-4.6301,-4.6301,-4.6301,-3.9697,-3.9697,-3.9697,-3.9697,0.0,0.0,0.0,0.0,0.0,0.0,0.0,0.0,0.0,0.0,0.0,0.0,0.0,0.0,0.0,0.0,0.0,0.0,0.0,0.0,0.0,0.0,0.0,0.0,0.0,0.0,-4.7431,-4.7732,-4.7908,-4.7908,-4.7908,-4.7908,-4.7908,-4.7908,-4.8134,-4.856,-4.8912,-4.9088,-4.9088,-4.9439,-4.959,-4.959,-4.959,-4.959,-4.959,-4.959,-4.959,-4.959,-4.959,-4.959,-4.959,-4.959,-4.959,-4.959,-4.959,-4.959,-4.959,-4.959,-4.959,-4.954,-4.9188,-4.9088,-4.9012,-4.8636,-4.8535,-4.8711,-4.9414,-4.959,-4.9515,-4.9163,-4.9088,-4.8987,-4.8636,-4.8385,-4.8234,-4.8234,-4.7807,-4.7431,-4.7431,-4.6979,-4.6627,-4.6627,-4.6451,-4.6301,-4.6301,-4.6301,-4.6301,-4.6301,-4.6301,-4.6301,-4.6301,-4.6301,-4.6301,-4.6301,-4.6301,-4.6301,-4.6301,-4.6301,-4.6301,-4.6301,-4.6301,-4.6301,-4.6301,-4.6301,-4.6301,-4.6301,-4.6301,-4.6125,-3.9697,-3.9697,-3.9697,0.0,0.0,0.0,0.0,0.0,0.0,0.0,0.0,0.0,0.0,0.0,0.0,0.0,0.0,0.0,0.0,0.0,0.0,0.0,0.0,0.0,0.0,0.0,0.0,0.0,0.0,0.0,0.0,-4.7205,-4.7405,-4.7405,-4.7405,-4.7405,-4.7405,-4.7405,-4.7405,-4.7405,-4.7983,-4.8335,-4.851,-4.8887,-4.9063,-4.9063,-4.9063,-4.9063,-4.9063,-4.9063,-4.9063,-4.9063,-4.9063,-4.9063,-4.9063,-4.9063,-4.9063,-4.9063,-4.9063,-4.9063,-4.9063,-4.9063,-4.9063,-4.8987,-4.8611,-4.851,-4.841,-4.8033,-4.7908,-4.8083,-4.8862,-4.9063,-4.8962,-4.8586,-4.851,-4.8385,-4.7983,-4.7782,-4.7657,-4.7657,-4.723,-4.6878,-4.6878,-4.6552,-4.6301,-4.6301,-4.6301,-4.6301,-4.6301,-4.6301,-4.6301,-4.6301,-4.6301,-4.6301,-4.6301,-4.6301,-4.6301,-4.6301,-4.6301,-4.6301,-4.6301,-4.6301,-4.6301,-4.6301,-4.6301,-4.6301,-4.6301,-4.6125,-4.605,-4.605,-4.5874,-4.5573,-3.9697,-3.9697,0.0,0.0,0.0,0.0,0.0,0.0,0.0,0.0,0.0,0.0,0.0,0.0,0.0,0.0,0.0,0.0,0.0,0.0,0.0,0.0,0.0,0.0,0.0,0.0,0.0,0.0,0.0,0.0,0.0,-4.6301,-4.6301,-4.6301,-4.6301,-4.6301,-4.6301,-4.6301,-4.6301,-4.6326,-4.6853,-4.7405,-4.7908,-4.7908,-4.7908,-4.7908,-4.7908,-4.7908,-4.7908,-4.7908,-4.7908,-4.7908,-4.7908,-4.7908,-4.7908,-4.7908,-4.7908,-4.7908,-4.7908,-4.7908,-4.7908,-4.7908,-4.7908,-4.7908,-4.7908,-4.7908,-4.7908,-4.7883,-4.7883,-4.7883,-4.7883,-4.7883,-4.7883,-4.7908,-4.7908,-4.7908,-4.7883,-4.7481,-4.7068,-4.7068,-4.6677,-4.6301,-4.6301,-4.6301,-4.6301,-4.6301,-4.6301,-4.6301,-4.6301,-4.6301,-4.6301,-4.6301,-4.6301,-4.6301,-4.6301,-4.6301,-4.6301,-4.6301,-4.6301,-4.6301,-4.6301,-4.6301,-4.6301,-4.6301,-4.6301,-4.6301,-4.6301,-4.5748,-4.5472,-4.5472,-4.4895,-4.4618,-3.9697,0.0,0.0,0.0,0.0,0.0,0.0,0.0,0.0,0.0,0.0,0.0,0.0,0.0,0.0,0.0,0.0,0.0,0.0,0.0,0.0,0.0,0.0,0.0,0.0,0.0,0.0,0.0,0.0,0.0,-4.6301,-4.6301,-4.6301,-4.6301,-4.6301,-4.6301,-4.6301,-4.6301,-4.6301,-4.6301,-4.6476,-4.6853,-4.738,-4.7732,-4.7908,-4.7908,-4.7908,-4.7908,-4.7908,-4.7908,-4.7908,-4.7908,-4.7908,-4.7908,-4.7908,-4.7908,-4.7908,-4.7908,-4.7908,-4.7908,-4.7908,-4.7908,-4.7908,-4.7832,-4.7481,-4.7355,-4.728,-4.6903,-4.6778,-4.6778,-4.6778,-4.6778,-4.6878,-4.728,-4.7355,-4.7255,-4.6878,-4.6652,-4.6552,-4.6552,-4.6426,-4.6301,-4.6301,-4.6301,-4.6301,-4.6301,-4.6301,-4.6301,-4.6301,-4.6301,-4.6301,-4.6301,-4.6301,-4.6301,-4.6301,-4.6301,-4.6301,-4.6301,-4.6301,-4.6301,-4.6301,-4.6301,-4.6301,-4.6301,-4.5924,-4.5723,-4.5723,-4.5146,-4.4895,-4.4869,-4.4694,-4.4418,-3.9697,0.0,0.0,0.0,0.0,0.0,0.0,0.0,0.0,0.0,0.0,0.0,0.0,0.0,0.0,0.0,0.0,0.0,0.0,0.0,0.0,0.0,0.0,0.0,0.0,0.0,0.0,0.0,0.0,-4.6301,-4.6301,-4.6301,-4.6301,-4.6301,-4.6301,-4.6301,-4.6301,-4.6301,-4.6301,-4.6301,-4.6301,-4.6476,-4.6828,-4.7129,-4.728,-4.728,-4.728,-4.728,-4.728,-4.728,-4.728,-4.728,-4.728,-4.728,-4.728,-4.728,-4.728,-4.728,-4.728,-4.728,-4.728,-4.728,-4.728,-4.7205,-4.6903,-4.6803,-4.6728,-4.6401,-4.6301,-4.6301,-4.6301,-4.6301,-4.6401,-4.6728,-4.6803,-4.6702,-4.6376,-4.6301,-4.6301,-4.6301,-4.6301,-4.6301,-4.6301,-4.6301,-4.6301,-4.6301,-4.6301,-4.6301,-4.6301,-4.6301,-4.6301,-4.6301,-4.6301,-4.6301,-4.6301,-4.61,-4.5974,-4.5974,-4.5773,-4.5648,-4.5648,-4.5849,-4.5874,-4.5648,-4.5321,-4.5146,-4.5146,-4.4568,-4.4292,-4.4292,-4.4066,-4.379,0.0,0.0,0.0,0.0,0.0,0.0,0.0,0.0,0.0,0.0,0.0,0.0,0.0,0.0,0.0,0.0,0.0,0.0,0.0,0.0,0.0,0.0,0.0,0.0,0.0,0.0,0.0,0.0,0.0,-4.6301,-4.6301,-4.6301,-4.6301,-4.6301,-4.6301,-4.6301,-4.6301,-4.6301,-4.6301,-4.6301,-4.6301,-4.6301,-4.6301,-4.6301,-4.6301,-4.6301,-4.6301,-4.6301,-4.6301,-4.6301,-4.6301,-4.6301,-4.6301,-4.6301,-4.6301,-4.6301,-4.6301,-4.6301,-4.6301,-4.6301,-4.6301,-4.6301,-4.6301,-4.6301,-4.6301,-4.6301,-4.6301,-4.6301,-4.6301,-4.6301,-4.6301,-4.6301,-4.6301,-4.6301,-4.6301,-4.6301,-4.6301,-4.6301,-4.6301,-4.6301,-4.6301,-4.6301,-4.6301,-4.6301,-4.6301,-4.6301,-4.6301,-4.6301,-4.6301,-4.6301,-4.6301,-4.625,-4.6225,-4.62,-4.615,-4.5698,-4.5422,-4.5422,-4.492,-4.4593,-4.4543,-4.5095,-4.5171,-4.4644,-4.4568,-4.4543,-4.4543,-4.3991,-4.374,-4.3714,-4.3212,-4.2986,0.0,0.0,0.0,0.0,0.0,0.0,0.0,0.0,0.0,0.0,0.0,0.0,0.0,0.0,0.0,0.0,0.0,0.0,0.0,0.0,0.0,0.0,0.0,0.0,0.0,0.0,0.0,0.0,-4.6301,-4.6301,-4.6301,-4.6301,-4.6301,-4.6301,-4.6301,-4.6301,-4.6301,-4.6301,-4.6301,-4.6301,-4.6301,-4.6301,-4.6301,-4.6301,-4.6301,-4.6301,-4.6301,-4.6301,-4.6301,-4.6301,-4.6301,-4.6301,-4.6301,-4.6301,-4.6301,-4.6301,-4.6301,-4.6301,-4.6301,-4.6301,-4.6301,-4.6301,-4.6301,-4.6301,-4.6301,-4.6301,-4.6301,-4.6301,-4.6301,-4.6301,-4.6301,-4.6301,-4.6301,-4.6301,-4.6301,-4.6301,-4.6301,-4.6301,-4.6301,-4.6301,-4.6301,-4.6301,-4.6301,-4.6301,-4.6301,-4.6301,-4.6301,-4.6301,-4.6301,-4.6301,-4.615,-4.5723,-4.5673,-4.5472,-4.502,-4.4869,-4.4819,-4.4819,-4.4694,-4.4418,-4.3991,-4.4518,-4.4744,-4.4618,-4.4192,-4.3991,-4.3966,-4.3413,-4.3162,-4.3162,-4.3037,-4.2986,0.0,0.0,0.0,0.0,0.0,0.0,0.0,0.0,0.0,0.0,0.0,0.0,0.0,0.0,0.0,0.0,0.0,0.0,0.0,0.0,0.0,0.0,0.0,0.0,0.0,0.0,0.0,-4.5497,-4.5497,-4.5497,-4.5497,-4.5497,-4.5497,-4.5497,-4.5497,-4.5497,-4.5497,-4.5773,-4.5924,-4.5924,-4.6175,-4.6301,-4.6301,-4.6301,-4.6301,-4.6301,-4.6301,-4.6301,-4.6301,-4.6301,-4.6301,-4.6301,-4.6301,-4.6301,-4.6301,-4.6301,-4.6301,-4.6301,-4.6301,-4.6301,-4.6301,-4.6301,-4.6301,-4.6301,-4.6301,-4.6301,-4.6301,-4.6301,-4.6301,-4.6301,-4.6301,-4.6301,-4.6301,-4.6301,-4.6301,-4.6301,-4.6301,-4.6301,-4.6301,-4.6301,-4.6301,-4.6301,-4.6301,-4.6301,-4.6301,-4.6301,-4.6301,-4.6225,-4.5949,-4.5924,-4.5698,-4.5121,-4.507,-4.4945,-4.4644,-4.4392,-4.4242,-4.4242,-4.3991,-4.3714,-4.3413,-4.3689,-4.384,-4.384,-4.3564,-4.3413,-4.3413,-4.3112,-4.2986,-4.2986,-4.2986,-4.2986,0.0,0.0,0.0,0.0,0.0,0.0,0.0,0.0,0.0,0.0,0.0,0.0,0.0,0.0,0.0,0.0,0.0,0.0,0.0,0.0,0.0,0.0,0.0,0.0,0.0,0.0,0.0,-4.4618,-4.4618,-4.4618,-4.4618,-4.4618,-4.4618,-4.4618,-4.4618,-4.4618,-4.4618,-4.5095,-4.5347,-4.5347,-4.5799,-4.6024,-4.6024,-4.6024,-4.6125,-4.6301,-4.6301,-4.6301,-4.6301,-4.6301,-4.6301,-4.6301,-4.6301,-4.6301,-4.6301,-4.6301,-4.6301,-4.6301,-4.6301,-4.6301,-4.6301,-4.6301,-4.6301,-4.6301,-4.6301,-4.6301,-4.6301,-4.6301,-4.6301,-4.6301,-4.6301,-4.6301,-4.6301,-4.6301,-4.6301,-4.6301,-4.6301,-4.6301,-4.6301,-4.6301,-4.6301,-4.6301,-4.6301,-4.6301,-4.6276,-4.6175,-4.6175,-4.5974,-4.5422,-4.5347,-4.5121,-4.4543,-4.4493,-4.4443,-4.4342,-4.3915,-4.3664,-4.3664,-4.3237,-4.2986,-4.2986,-4.2986,-4.2986,-4.2986,-4.2986,-4.2986,-4.2986,-4.2986,-4.2986,-4.2986,-4.2986,-4.2986,0.0,0.0,0.0,0.0,0.0,0.0,0.0,0.0,0.0,0.0,0.0,0.0,0.0,0.0,0.0,0.0,0.0,0.0,0.0,0.0,0.0,0.0,0.0,0.0,0.0,0.0,0.0,-4.4593,-4.4618,-4.4618,-4.4618,-4.4618,-4.4618,-4.4618,-4.4618,-4.4618,-4.4618,-4.4694,-4.4744,-4.4744,-4.4819,-4.4844,-4.4844,-4.4844,-4.5397,-4.6301,-4.6301,-4.6301,-4.6301,-4.6301,-4.6301,-4.6301,-4.6301,-4.6301,-4.6301,-4.6301,-4.6301,-4.6301,-4.6301,-4.6301,-4.6301,-4.6301,-4.6301,-4.6301,-4.6301,-4.6301,-4.6301,-4.6301,-4.6301,-4.6301,-4.6301,-4.6301,-4.6301,-4.6301,-4.6301,-4.6301,-4.6301,-4.6301,-4.6301,-4.6301,-4.6301,-4.6301,-4.6301,-4.6301,-4.615,-4.5673,-4.5598,-4.5397,-4.4819,-4.4744,-4.4518,-4.3966,-4.3915,-4.3714,-4.3237,-4.3137,-4.3087,-4.3087,-4.3011,-4.2986,-4.2986,-4.2986,-4.2986,-4.2986,-4.2986,-4.2986,-4.2986,-4.2986,-4.2986,-4.2986,-4.2986,-4.2986,0.0,0.0,0.0,0.0,0.0,0.0,0.0,0.0,0.0,0.0,0.0,0.0,0.0,0.0,0.0,0.0,0.0,0.0,0.0,0.0,0.0,0.0,0.0,0.0,0.0,0.0,0.0,-4.3689,-4.3689,-4.3689,-4.3689,-4.3689,-4.3689,-4.3689,-4.3689,-4.3689,-4.3689,-4.4016,-4.4317,-4.4618,-4.4618,-4.4618,-4.4618,-4.4618,-4.4895,-4.5372,-4.5372,-4.5547,-4.5849,-4.5849,-4.6024,-4.6301,-4.6301,-4.6301,-4.6301,-4.6301,-4.6301,-4.6301,-4.6301,-4.6301,-4.6301,-4.6301,-4.6301,-4.6301,-4.6301,-4.6301,-4.6301,-4.6301,-4.6301,-4.6301,-4.6301,-4.6301,-4.6301,-4.6301,-4.6301,-4.6301,-4.6301,-4.6301,-4.6301,-4.6301,-4.6301,-4.62,-4.5899,-4.5849,-4.5648,-4.5095,-4.4995,-4.4794,-4.4242,-4.4166,-4.394,-4.3388,-4.3338,-4.3237,-4.3011,-4.2986,-4.2986,-4.2986,-4.2986,-4.2986,-4.2986,-4.2986,-4.2986,-4.2986,-4.2986,-4.2986,-4.2986,-4.2986,-4.2986,-4.2986,-4.2986,-4.2986,0.0,0.0,0.0,0.0,0.0,0.0,0.0,0.0,0.0,0.0,0.0,0.0,0.0,0.0,0.0,0.0,0.0,0.0,0.0,0.0,0.0,0.0,0.0,0.0,0.0,0.0,0.0,-4.2986,-4.2986,-4.2986,-4.2986,-4.2986,-4.2986,-4.2986,-4.2986,-4.2986,-4.2986,-4.3388,-4.379,-4.4192,-4.4192,-4.4192,-4.4192,-4.4192,-4.4192,-4.4217,-4.4493,-4.4869,-4.5271,-4.5271,-4.5522,-4.5874,-4.5874,-4.5874,-4.5899,-4.605,-4.61,-4.6125,-4.625,-4.6301,-4.6301,-4.6301,-4.6301,-4.6301,-4.6301,-4.6301,-4.6301,-4.6301,-4.6301,-4.6301,-4.6301,-4.6301,-4.6301,-4.6301,-4.6301,-4.6301,-4.6301,-4.6301,-4.6276,-4.6125,-4.61,-4.5924,-4.5372,-4.5271,-4.507,-4.4493,-4.4418,-4.4217,-4.3664,-4.3589,-4.3438,-4.3011,-4.2986,-4.2986,-4.2986,-4.2986,-4.2986,-4.2986,-4.2986,-4.2986,-4.2986,-4.2986,-4.2986,-4.2986,-4.2986,-4.2986,-4.2986,-4.2986,-4.2986,-4.2986,-4.2986,-4.2986,0.0,0.0,0.0,0.0,0.0,0.0,0.0,0.0,0.0,0.0,0.0,0.0,0.0,0.0,0.0,0.0,0.0,0.0,0.0,0.0,0.0,0.0,0.0,0.0,0.0,0.0,0.0,-4.2986,-4.2986,-4.2986,-4.2986,-4.2986,-4.2986,-4.2986,-4.2986,-4.2986,-4.2986,-4.3011,-4.3037,-4.3062,-4.3062,-4.3062,-4.3062,-4.3062,-4.3062,-4.3112,-4.4166,-4.4644,-4.4669,-4.4669,-4.4694,-4.4719,-4.4719,-4.4719,-4.4769,-4.5321,-4.5522,-4.5598,-4.6125,-4.6301,-4.6301,-4.6301,-4.6301,-4.6301,-4.6301,-4.6301,-4.6301,-4.6301,-4.6301,-4.6301,-4.6301,-4.6301,-4.6301,-4.6301,-4.6301,-4.6301,-4.6301,-4.6301,-4.615,-4.5623,-4.5522,-4.5347,-4.4769,-4.4669,-4.4468,-4.3915,-4.384,-4.3639,-4.3087,-4.3011,-4.3011,-4.2986,-4.2986,-4.2986,-4.2986,-4.2986,-4.2986,-4.2986,-4.2986,-4.2986,-4.2986,-4.2986,-4.2986,-4.2986,-4.2986,-4.2986,-4.2986,-4.2986,-4.2986,-4.2986,-4.2986,-4.2986,0.0,0.0,0.0,0.0,0.0,0.0,0.0,0.0,0.0,0.0,0.0,0.0,0.0,0.0,0.0,0.0,0.0,0.0,0.0,0.0,0.0,0.0,0.0,0.0,0.0,0.0,0.0,0.0,-4.2986,-4.2986,-4.2986,-4.2986,-4.2986,-4.2986,-4.2986,-4.2986,-4.2986,-4.2986,-4.2986,-4.2986,-4.2986,-4.2986,-4.2986,-4.2986,-4.2986,-4.3011,-4.3388,-4.3765,-4.4091,-4.4091,-4.4292,-4.4618,-4.4618,-4.4618,-4.4644,-4.4844,-4.4945,-4.497,-4.5146,-4.5221,-4.5221,-4.5221,-4.5221,-4.5221,-4.5221,-4.5221,-4.5221,-4.5221,-4.5221,-4.5221,-4.5221,-4.5221,-4.5221,-4.5221,-4.5221,-4.5221,-4.5221,-4.5522,-4.5623,-4.5045,-4.4945,-4.4744,-4.4192,-4.4091,-4.3915,-4.3363,-4.3263,-4.3212,-4.3011,-4.2986,-4.2986,-4.2986,-4.2986,-4.2986,-4.2986,-4.2986,-4.2986,-4.2986,-4.2986,-4.2986,-4.2986,-4.2986,-4.2986,-4.2986,-4.2986,-4.2986,-4.2986,-4.2986,-4.2986,-4.2986,-4.2986,-4.2986,0.0,0.0,0.0,0.0,0.0,0.0,0.0,0.0,0.0,0.0,0.0,0.0,0.0,0.0,0.0,0.0,0.0,0.0,0.0,0.0,0.0,0.0,0.0,0.0,0.0,0.0,0.0,-4.2986,-4.2986,0.0,-4.2986,-4.2986,-4.2986,-4.2986,-4.2986,-4.2986,-4.2986,-4.2986,-4.2986,-4.2986,-4.2986,-4.2986,-4.2986,-4.2986,-4.2986,-4.2986,-4.2986,-4.3187,-4.3514,-4.3514,-4.374,-4.4066,-4.4066,-4.4066,-4.4091,-4.4292,-4.4342,-4.4367,-4.4568,-4.4618,-4.4618,-4.4618,-4.4618,-4.4618,-4.4618,-4.4618,-4.4618,-4.4618,-4.4618,-4.4618,-4.4618,-4.4618,-4.4618,-4.4618,-4.4618,-4.4568,-4.4392,-4.4794,-4.502,-4.4443,-4.4342,-4.4166,-4.3614,-4.3514,-4.3388,-4.3037,-4.2986,-4.2986,-4.2986,-4.2986,-4.2986,-4.2986,-4.2986,-4.2986,-4.2986,-4.2986,-4.2986,-4.2986,-4.2986,-4.2986,-4.2986,-4.2986,-4.2986,-4.2986,-4.2986,-4.2986,-4.2986,-4.2986,-4.2986,-4.2986,-4.2986,-4.2986,0.0,0.0,0.0,0.0,0.0,0.0,0.0,0.0,0.0,0.0,0.0,0.0,0.0,0.0,0.0,0.0,0.0,0.0,0.0,0.0,0.0,0.0,0.0,0.0,0.0,0.0,0.0,-4.2936,-4.2936,-4.2936,-4.2936,-4.2936,-4.2961,-4.2961,-4.2961,-4.2986,-4.2986,-4.2986,-4.2986,-4.2986,-4.2986,-4.2986,-4.2986,-4.2986,-4.2986,-4.2986,-4.2986,-4.2986,-4.2986,-4.2986,-4.2986,-4.2986,-4.2986,-4.2986,-4.3037,-4.3589,-4.379,-4.384,-4.4392,-4.4568,-4.4568,-4.4568,-4.4568,-4.4568,-4.4568,-4.4568,-4.4568,-4.4568,-4.4568,-4.4568,-4.4568,-4.4568,-4.4568,-4.4568,-4.4568,-4.4418,-4.389,-4.4192,-4.4418,-4.389,-4.379,-4.3614,-4.3062,-4.2986,-4.2986,-4.2986,-4.2986,-4.2986,-4.2986,-4.2986,-4.2986,-4.2986,-4.2986,-4.2986,-4.2986,-4.2986,-4.2986,-4.2986,-4.2986,-4.2986,-4.2986,-4.2986,-4.2986,-4.2986,-4.2986,-4.2986,-4.2986,-4.2986,-4.2986,-4.2986,-4.2986,-4.2986,-3.9697,0.0,0.0,0.0,0.0,0.0,0.0,0.0,0.0,0.0,0.0,0.0,0.0,0.0,0.0,0.0,0.0,0.0,0.0,0.0,0.0,0.0,0.0,0.0,0.0,0.0,-4.1806,0.0,-4.1806,-4.1806,-4.1806,-4.2158,-4.2439,-4.2439,-4.2816,-4.2986,-4.2986,-4.2986,-4.2986,-4.2986,-4.2986,-4.2986,-4.2986,-4.2986,-4.2986,-4.2986,-4.2986,-4.2986,-4.2986,-4.2986,-4.2986,-4.2986,-4.2986,-4.2986,-4.2986,-4.3162,-4.3212,-4.3212,-4.3388,-4.3438,-4.3438,-4.3438,-4.3438,-4.3438,-4.3438,-4.3438,-4.3438,-4.3438,-4.3438,-4.3438,-4.3438,-4.3438,-4.3438,-4.3438,-4.3438,-4.3388,-4.3237,-4.3313,-4.3388,-4.3237,-4.3212,-4.3162,-4.3011,-4.2986,-4.2986,-4.2986,-4.2986,-4.2986,-4.2986,-4.2986,-4.2986,-4.2986,-4.2986,-4.2986,-4.2986,-4.2986,-4.2986,-4.2986,-4.2986,-4.2986,-4.2986,-4.2986,-4.2986,-4.2986,-4.2986,-4.2986,-4.2986,-4.2986,-4.2986,-4.2986,-4.2986,-4.2986,-3.9697,0.0,0.0,0.0,0.0,0.0,-3.9697,-3.9697,0.0,0.0,0.0,0.0,0.0,0.0,0.0,0.0,0.0,0.0,0.0,0.0,0.0,0.0,0.0,0.0,0.0,-4.1275,-4.1275,-4.1275,-4.1275,-4.1275,-4.1275,-4.163,-4.1806,-4.1806,-4.2133,-4.2283,-4.2283,-4.2509,-4.269,-4.269,-4.2861,-4.2986,-4.2986,-4.2986,-4.2986,-4.2986,-4.2986,-4.2986,-4.2986,-4.2986,-4.2986,-4.2986,-4.2986,-4.2986,-4.2986,-4.2986,-4.2986,-4.2986,-4.2986,-4.2986,-4.2986,-4.2986,-4.2986,-4.2986,-4.2986,-4.2986,-4.2986,-4.2986,-4.2986,-4.2986,-4.2986,-4.2986,-4.2986,-4.2986,-4.2986,-4.2986,-4.2986,-4.2986,-4.2986,-4.2986,-4.2986,-4.2986,-4.2986,-4.2986,-4.2986,-4.2986,-4.2986,-4.2986,-4.2986,-4.2986,-4.2986,-4.2986,-4.2986,-4.2986,-4.2986,-4.2986,-4.2986,-4.2986,-4.2986,-4.2986,-4.2986,-4.2986,-4.2986,-4.2986,-4.276,-4.2509,-4.2283,-4.276,-4.2861,-4.269,-4.2409,-4.2283,0.0,-3.9697,-3.9697,0.0,0.0,0.0,-3.9697,-3.9697,-3.9697,0.0,0.0,0.0,0.0,0.0,0.0,0.0,0.0,0.0,0.0,0.0,0.0,0.0,0.0,0.0,-4.105,-4.11,-4.11,-4.11,-4.11,-4.11,-4.11,-4.1175,-4.12,-4.12,-4.125,-4.1275,-4.1275,-4.1831,-4.2112,-4.2137,-4.2665,-4.2886,-4.2886,-4.2961,-4.2986,-4.2986,-4.2986,-4.2986,-4.2986,-4.2986,-4.2986,-4.2986,-4.2986,-4.2986,-4.2986,-4.2986,-4.2986,-4.2986,-4.2986,-4.2986,-4.2986,-4.2986,-4.2986,-4.2986,-4.2986,-4.2986,-4.2986,-4.2986,-4.2986,-4.2986,-4.2986,-4.2986,-4.2986,-4.2986,-4.2986,-4.2986,-4.2986,-4.2986,-4.2986,-4.2986,-4.2986,-4.2986,-4.2986,-4.2986,-4.2986,-4.2986,-4.2986,-4.2986,-4.2986,-4.2986,-4.2986,-4.2986,-4.2986,-4.2986,-4.2986,-4.2986,-4.2986,-4.2986,-4.2986,-4.2986,-4.2986,-4.2911,-4.2886,-4.2886,-4.2414,-4.1831,-4.1275,-4.2333,-4.2534,-4.2112,-4.1555,-4.1275,0.0,0.0,0.0,0.0,-3.9697,0.0,-3.9697,-3.9697,-3.9697,0.0,0.0,0.0,0.0,0.0,0.0,0.0,0.0,0.0,0.0,0.0,0.0,0.0,0.0,0.0,-3.9998,-4.0023,-4.0023,-4.0023,-4.0023,-4.0023,-4.0023,-4.0425,-4.0676,-4.0676,-4.105,-4.1275,-4.1275,-4.1401,-4.1505,-4.1505,-4.2057,-4.2363,-4.2389,-4.2816,-4.2986,-4.2986,-4.2986,-4.2986,-4.2986,-4.2986,-4.2986,-4.2986,-4.2986,-4.2986,-4.2986,-4.2986,-4.2986,-4.2986,-4.2986,-4.2986,-4.2986,-4.2986,-4.2986,-4.2986,-4.2986,-4.2986,-4.2986,-4.2986,-4.2986,-4.2986,-4.2986,-4.2986,-4.2986,-4.2986,-4.2986,-4.2986,-4.2986,-4.2986,-4.2986,-4.2986,-4.2986,-4.2986,-4.2986,-4.2986,-4.2986,-4.2986,-4.2986,-4.2986,-4.2986,-4.2986,-4.2986,-4.2986,-4.2986,-4.2986,-4.2986,-4.2986,-4.2986,-4.2986,-4.2986,-4.2986,-4.2986,-4.2615,-4.2363,-4.2363,-4.1781,-4.1401,-4.1275,-4.1501,-4.1605,-4.1505,-4.1326,-4.1275,0.0,0.0,0.0,-3.9697,-3.9697,0.0,0.0,-3.9697,-3.9697,0.0,0.0,0.0,0.0,0.0,0.0,0.0,0.0,0.0,0.0,0.0,0.0,0.0,0.0,0.0,-3.9697,-3.9697,-3.9697,-3.9697,-3.9697,-3.9697,-3.9697,-3.9948,-4.0099,-4.0099,-4.0375,-4.0526,-4.0526,-4.0802,-4.0874,-4.0874,-4.148,-4.1756,-4.1756,-4.2308,-4.2615,-4.264,-4.2861,-4.2986,-4.2986,-4.2986,-4.2986,-4.2986,-4.2986,-4.2986,-4.2986,-4.2986,-4.2986,-4.2986,-4.2986,-4.2986,-4.2986,-4.2986,-4.2986,-4.2986,-4.2986,-4.2986,-4.2986,-4.2986,-4.2986,-4.2986,-4.2986,-4.2986,-4.2986,-4.2986,-4.2986,-4.2986,-4.2986,-4.2986,-4.2986,-4.2986,-4.2986,-4.2986,-4.2986,-4.2986,-4.2986,-4.2986,-4.2986,-4.2986,-4.2986,-4.2986,-4.2986,-4.2986,-4.2986,-4.2986,-4.2986,-4.2986,-4.2986,-4.2986,-4.2766,-4.2615,-4.2615,-4.2032,-4.163,-4.1354,-4.1078,-4.0802,-4.0526,-4.0526,-4.0651,-4.0874,-4.0651,-4.0526,0.0,0.0,0.0,0.0,0.0,-3.9697,0.0,0.0,0.0,0.0,0.0,0.0,0.0,0.0,0.0,0.0,0.0,0.0,0.0,0.0,0.0,0.0,0.0,0.0,-3.9697,-3.9697,-3.9697,-3.9697,-3.9697,-3.9697,-3.9697,-3.9697,-3.9697,-3.9697,-3.9697,-3.9697,-3.9697,-4.0149,-4.035,-4.0375,-4.0874,-4.1125,-4.115,-4.1756,-4.2062,-4.2087,-4.264,-4.2866,-4.2836,-4.2936,-4.2986,-4.2986,-4.2986,-4.2986,-4.2986,-4.2986,-4.2986,-4.2986,-4.2986,-4.2986,-4.2986,-4.2986,-4.2986,-4.2986,-4.2986,-4.2986,-4.2986,-4.2986,-4.2986,-4.2986,-4.2986,-4.2986,-4.2986,-4.2986,-4.2986,-4.2986,-4.2986,-4.2986,-4.2986,-4.2986,-4.2986,-4.2986,-4.2986,-4.2986,-4.2986,-4.2986,-4.2986,-4.2986,-4.2986,-4.2986,-4.2986,-4.2986,-4.2986,-4.2936,-4.2836,-4.2866,-4.2785,-4.266,-4.2258,-4.2062,-4.2062,-4.148,-4.0874,-4.0375,-4.035,-4.0149,-3.9697,-3.9697,-3.9923,-4.035,-3.9898,-3.9697,0.0,0.0,0.0,0.0,-3.9697,-3.9697,0.0,0.0,-3.9697,-3.9697,0.0,0.0,0.0,0.0,0.0,0.0,0.0,0.0,0.0,0.0,0.0,0.0,0.0,0.0,-3.9697,-3.9697,-3.9697,-3.9697,-3.9697,-3.9697,-3.9697,-3.9697,-3.9697,-3.9697,-3.9697,-3.9697,-3.9697,-3.9747,-3.9798,-3.9798,-4.035,-4.0601,-4.0626,-4.1125,-4.1376,-4.1455,-4.2007,-4.2313,-4.2338,-4.2816,-4.2986,-4.2986,-4.2986,-4.2986,-4.2986,-4.2986,-4.2986,-4.2986,-4.2986,-4.2986,-4.2986,-4.2986,-4.2986,-4.2986,-4.2986,-4.2986,-4.2986,-4.2986,-4.2986,-4.2986,-4.2986,-4.2986,-4.2986,-4.2986,-4.2986,-4.2986,-4.2986,-4.2986,-4.2986,-4.2986,-4.2986,-4.2986,-4.2986,-4.2986,-4.2986,-4.2986,-4.2986,-4.2986,-4.2986,-4.2986,-4.2986,-4.2986,-4.2986,-4.2841,-4.2338,-4.2313,-4.2032,-4.1501,-4.1455,-4.1376,-4.1376,-4.0902,-4.035,-3.9798,-3.9798,-3.9747,-3.9697,-3.9697,-3.9722,-3.9798,-3.9722,-3.9697,0.0,0.0,0.0,0.0,0.0,0.0,-3.9517,-3.9697,-3.9697,-3.9697,0.0,0.0,0.0,0.0,0.0,0.0,-3.9546,0.0,0.0,0.0,0.0,0.0,0.0,0.0,-3.9697,-3.9697,-3.9697,-3.9697,-3.9697,-3.9697,-3.9697,-3.9697,-3.9697,-3.9697,-3.9697,-3.9697,-3.9697,-3.9697,-3.9697,-3.9697,-3.9923,-4.0049,-4.0049,-4.0601,-4.0852,-4.0902,-4.1455,-4.1681,-4.1731,-4.2283,-4.2564,-4.259,-4.2861,-4.2986,-4.2986,-4.2986,-4.2986,-4.2986,-4.2986,-4.2986,-4.2986,-4.2986,-4.2986,-4.2986,-4.2986,-4.2986,-4.2986,-4.2986,-4.2986,-4.2986,-4.2986,-4.2986,-4.2986,-4.2986,-4.2986,-4.2986,-4.2986,-4.2986,-4.2986,-4.2986,-4.2986,-4.2986,-4.2986,-4.2986,-4.2986,-4.2986,-4.2986,-4.2986,-4.2986,-4.2766,-4.2564,-4.2564,-4.2208,-4.1932,-4.1706,-4.1681,-4.158,-4.13,-4.0974,-4.0727,-4.04,-4.0174,-3.9923,-3.9697,-3.9697,-3.9697,-3.9697,-3.9697,-3.9697,-3.9697,-3.9697,-3.9697,-3.8868,0.0,0.0,0.0,0.0,-3.7902,-3.9362,-3.9697,-3.9697,-3.9697,-3.9697,0.0,0.0,0.0,-3.9647,-3.9496,0.0,-3.9647,0.0,0.0,0.0,0.0,0.0,0.0,0.0,-3.9697,-3.9697,-3.9697,-3.9697,-3.9697,-3.9697,-3.9697,-3.9697,-3.9697,-3.9697,-3.9697,-3.9697,-3.9697,-3.9697,-3.9697,-3.9697,-3.9697,-3.9697,-4.0099,-4.03,-4.0325,-4.0877,-4.1075,-4.1153,-4.1706,-4.1932,-4.1957,-4.2384,-4.2534,-4.2559,-4.2861,-4.2986,-4.2986,-4.2986,-4.2986,-4.2986,-4.2986,-4.2986,-4.2986,-4.2986,-4.2986,-4.2986,-4.2986,-4.2986,-4.2986,-4.2986,-4.2986,-4.2986,-4.2986,-4.2986,-4.2986,-4.2986,-4.2986,-4.2986,-4.2986,-4.2986,-4.2936,-4.2841,-4.2886,-4.2936,-4.2816,-4.276,-4.271,-4.2559,-4.2183,-4.1932,-4.1932,-4.158,-4.1225,-4.1075,-4.1075,-4.1,-4.0902,-4.0526,-4.0124,-3.9722,-3.9697,-3.9697,-3.9697,-3.9697,-3.9697,-3.9697,-3.9697,-3.9697,-3.9697,-3.9697,-3.9697,-3.6811,-3.6487,-3.6054,-3.8973,-3.8582,-3.7902,-3.9362,-3.9697,-3.9697,-3.9697,-3.9697,-3.9697,-3.9697,-3.9697,-3.9521,-3.8994,-3.9346,0.0,0.0,0.0,0.0,0.0,0.0,0.0,0.0,-3.9697,-3.9697,-3.9697,-3.9697,-3.9697,-3.9697,-3.9697,-3.9697,-3.9697,-3.9697,-3.9697,-3.9697,-3.9697,-3.9697,-3.9697,-3.9697,-3.9697,-3.9697,-3.9722,-3.9722,-3.9747,-4.03,-4.0551,-4.0576,-4.1075,-4.13,-4.13,-4.1326,-4.1326,-4.1476,-4.2585,-4.2986,-4.2986,-4.2986,-4.2986,-4.2986,-4.2986,-4.2986,-4.2986,-4.2986,-4.2986,-4.2986,-4.2986,-4.2986,-4.2986,-4.2986,-4.2986,-4.2986,-4.2986,-4.2986,-4.2986,-4.2986,-4.2986,-4.2986,-4.2986,-4.2986,-4.2866,-4.2338,-4.269,-4.2785,-4.2313,-4.2238,-4.1982,-4.1401,-4.1326,-4.13,-4.13,-4.13,-4.1075,-4.0601,-4.0551,-4.0325,-3.9772,-3.9722,-3.9722,-3.9697,-3.9697,-3.9697,-3.9697,-3.9697,-3.9697,-3.9697,-3.9697,-3.9697,-3.9697,-3.9697,-3.9697,-3.5781,-3.4958,-3.4348,-3.6271,-3.6379,-3.6162,-3.6673,-3.8319,-3.9413,-3.8477,-3.8243,-3.8243,-3.8243,-3.8243,-3.8194,-3.8,-3.8953,-3.9622,0.0,0.0,0.0,0.0,0.0,0.0,0.0,0.0,0.0,-3.9697,-3.9697,-3.9697,-3.9697,-3.9697,-3.9697,-3.9697,-3.9697,-3.9697,-3.9697,-3.9697,-3.9697,-3.9697,-3.9697,-3.9697,-3.9697,-3.9697,-3.9697,-3.9697,-3.9898,-3.9973,-4.0023,-4.0576,-4.0802,-4.0827,-4.115,-4.1275,-4.1326,-4.1756,-4.1882,-4.1882,-4.1882,-4.1882,-4.1882,-4.1882,-4.1882,-4.1882,-4.1882,-4.1882,-4.1882,-4.1882,-4.2158,-4.2414,-4.1982,-4.2158,-4.2333,-4.1982,-4.1882,-4.1882,-4.1882,-4.1882,-4.1882,-4.1882,-4.1882,-4.1831,-4.1656,-4.1756,-4.1831,-4.1656,-4.1605,-4.1555,-4.13,-4.0974,-4.0802,-4.0802,-4.0475,-4.0174,-3.9998,-3.9973,-3.9898,-3.9697,-3.9697,-3.9697,-3.9697,-3.9697,-3.9697,-3.9697,-3.9697,-3.9697,-3.9697,-3.9697,-3.9697,-3.9697,-3.9697,-3.9697,-3.4348,-3.3417,-3.2815,-3.4792,-3.4902,-3.4681,-3.5178,-3.678,-3.7873,-3.6918,-3.6703,-3.6703,-3.6703,-3.6703,-3.6703,-3.6703,-3.7979,-3.9077,0.0,-3.9697,0.0,0.0,0.0,0.0,0.0,0.0,-3.9697,-3.9697,-3.9697,-3.9697,0.0,-3.9697,-3.9697,-3.9697,-3.9697,-3.9697,-3.9697,-3.9697,-3.9697,-3.9697,-3.9697,-3.9697,-3.9697,-3.9697,-3.9697,-3.9697,-3.9697,-3.9697,-3.9722,-4.0074,-4.0224,-4.0249,-4.0626,-4.0752,-4.0802,-4.115,-4.1275,-4.1275,-4.1275,-4.1275,-4.1275,-4.1275,-4.1275,-4.1275,-4.1275,-4.1275,-4.1326,-4.158,-4.1756,-4.1831,-4.1681,-4.1756,-4.1781,-4.1376,-4.1275,-4.1275,-4.1275,-4.1275,-4.1275,-4.1275,-4.1275,-4.1225,-4.1025,-4.1,-4.1,-4.1,-4.1,-4.0924,-4.0777,-4.045,-4.0224,-4.0224,-3.9898,-3.9465,-3.8973,-3.8921,-3.8921,-3.8921,-3.8921,-3.9129,-3.9697,-3.9697,-3.9798,-3.9973,-3.9798,-3.9798,-3.9998,-3.9798,-3.9697,-3.9697,-3.9697,-3.9697]}]]